[[{"header":{"parameterUnit":"m.s-1","parameterCategory":1,"la1":31.0,"la2":29.5877,"lo1":-88.7671,"lo2":-86.6584,"dy":0.0162,"dx":0.0185,"nx":115,"ny":88,"refTime":"2023-08-23T06:00:00:Z","depth":0,"parameterNumber":2,"parameterNumberName":"U-component_of_WINDS"},"data":[0.0,0.0,0.0,0.0,0.0,0.0,0.0,0.0,0.0,0.0,0.0,0.0,0.0,0.0,0.0,0.0,0.0,0.0,0.0,0.0,0.0,0.0,0.0,0.0,0.0,0.0,0.0,0.0,0.0,0.0,0.0,0.0,0.0,0.0,0.0,0.0,0.0,0.0,0.0,0.0,0.0,0.0,0.0,0.0,0.0,0.0,0.0,0.0,0.0,0.0,0.0,0.0,0.0,0.0,0.0,0.0,0.0,0.0,0.0,0.0,0.0,0.0,0.0,0.0,0.0,0.0,0.0,0.0,0.0,0.0,0.0,0.0,0.0,0.0,0.0,0.0,0.0,0.0,0.0,0.0,0.0,0.0,0.0,0.0,0.0,0.0,0.0,0.0,0.0,0.0,0.0,0.0,0.0,0.0,0.0,0.0,0.0,0.0,0.0,0.0,0.0,0.0,0.0,0.0,0.0,0.0,0.0,0.0,0.0,0.0,0.0,0.0,0.0,0.0,0.0,0.0,0.0,0.0,0.0,0.0,0.0,0.0,0.0,0.0,0.0,0.0,0.0,0.0,0.0,0.0,0.0,0.0,0.0,0.0,0.0,0.0,0.0,0.0,0.0,0.0,0.0,0.0,0.0,0.0,0.0,0.0,0.0,0.0,0.0,0.0,0.0,0.0,0.0,0.0,0.0,0.0,0.0,0.0,0.0,0.0,0.0,0.0,0.0,0.0,0.0,0.0,0.0,0.0,0.0,0.0,0.0,0.0,0.0,0.0,0.0,0.0,0.0,0.0,0.0,0.0,0.0,0.0,0.0,0.0,0.0,0.0,0.0,0.0,0.0,0.0,0.0,0.0,0.0,0.0,0.0,0.0,0.0,0.0,0.0,0.0,0.0,0.0,0.0,0.0,0.0,0.0,0.0,0.0,0.0,0.0,0.0,0.0,0.0,0.0,0.0,0.0,0.0,0.0,0.0,0.0,0.0,0.0,0.0,0.0,0.0,0.0,0.0,0.0,0.0,0.0,0.0,0.0,0.0,0.0,0.0,0.0,0.0,0.0,0.0,0.0,0.0,0.0,0.0,0.0,0.0,0.0,0.0,0.0,0.0,0.0,0.0,0.0,0.0,0.0,0.0,0.0,0.0,0.0,0.0,0.0,0.0,0.0,0.0,0.0,0.0,0.0,0.0,0.0,0.0,0.0,0.0,0.0,0.0,0.0,0.0,0.0,0.0,0.0,0.0,0.0,0.0,0.0,0.0,0.0,0.0,0.0,0.0,0.0,0.0,0.0,0.0,0.0,0.0,0.0,0.0,0.0,0.0,0.0,0.0,0.0,0.0,0.0,0.0,0.0,0.0,0.0,0.0,0.0,0.0,0.0,0.0,0.0,0.0,0.0,0.0,0.0,0.0,0.0,0.0,0.0,0.0,0.0,0.0,0.0,0.0,0.0,0.0,0.0,0.0,0.0,0.0,0.0,0.0,0.0,0.0,0.0,0.0,0.0,0.0,0.0,0.0,0.0,0.0,0.0,0.0,0.0,0.0,0.0,0.0,0.0,0.0,0.0,0.0,0.0,0.0,0.0,0.0,0.0,0.0,0.0,0.0,0.0,0.0,0.0,0.0,0.0,0.0,0.0,0.0,0.0,0.0,0.0,0.0,0.0,0.0,0.0,0.0,0.0,0.0,0.0,0.0,0.0,0.0,0.0,0.0,0.0,0.0,0.0,0.0,0.0,0.0,0.0,0.0,0.0,0.0,0.0,0.0,0.0,0.0,0.0,0.0,0.0,0.0,0.0,0.0,0.0,0.0,0.0,0.0,0.0,0.0,0.0,0.0,0.0,0.0,0.0,0.0,0.0,0.0,0.0,0.0,0.0,0.0,0.0,0.0,0.0,0.0,0.0,0.0,0.0,0.0,0.0,0.0,0.0,0.0,0.0,0.0,0.0,0.0,0.0,0.0,0.0,0.0,0.0,0.0,0.0,0.0,0.0,0.0,0.0,0.0,0.0,0.0,0.0,0.0,0.0,0.0,0.0,0.0,0.0,0.0,0.0,0.0,0.0,0.0,0.0,0.0,0.0,0.0,0.0,0.0,0.0,0.0,0.0,0.0,0.0,0.0,0.0,0.0,0.0,0.0,0.0,0.0,0.0,0.0,0.0,0.0,0.0,0.0,0.0,0.0,0.0,0.0,0.0,0.0,0.0,0.0,0.0,0.0,0.0,0.0,0.0,0.0,0.0,0.0,0.0,0.0,0.0,0.0,0.0,0.0,0.0,0.0,0.0,0.0,0.0,0.0,0.0,0.0,0.0,0.0,0.0,0.0,0.0,0.0,0.0,0.0,0.0,0.0,0.0,0.0,0.0,0.0,0.0,0.0,0.0,0.0,0.0,0.0,0.0,0.0,0.0,0.0,0.0,0.0,0.0,0.0,0.0,0.0,0.0,0.0,0.0,0.0,0.0,0.0,0.0,0.0,0.0,0.0,0.0,0.0,0.0,0.0,0.0,0.0,0.0,0.0,0.0,0.0,0.0,0.0,0.0,0.0,0.0,0.0,0.0,0.0,0.0,0.0,0.0,0.0,0.0,0.0,0.0,0.0,0.0,0.0,0.0,0.0,0.0,0.0,0.0,0.0,0.0,0.0,0.0,0.0,0.0,0.0,0.0,0.0,0.0,0.0,0.0,0.0,0.0,0.0,0.0,0.0,0.0,0.0,0.0,0.0,0.0,0.0,0.0,0.0,0.0,0.0,0.0,0.0,0.0,0.0,0.0,0.0,0.0,0.0,0.0,0.0,0.0,0.0,0.0,0.0,0.0,0.0,0.0,0.0,0.0,0.0,0.0,0.0,0.0,0.0,0.0,0.0,0.0,0.0,0.0,0.0,0.0,0.0,0.0,0.0,0.0,0.0,0.0,0.0,0.0,0.0,0.0,0.0,0.0,0.0,0.0,0.0,0.0,0.0,0.0,0.0,0.0,0.0,0.0,0.0,0.0,0.0,0.0,0.0,0.0,0.0,0.0,0.0,0.0,0.0,0.0,0.0,0.0,0.0,0.0,0.0,0.0,0.0,0.0,0.0,0.0,0.0,0.0,0.0,0.0,0.0,0.0,0.0,0.0,0.0,0.0,0.0,0.0,0.0,0.0,0.0,0.0,0.0,0.0,0.0,0.0,0.0,0.0,0.0,0.0,0.0,0.0,0.0,0.0,0.0,0.0,0.0,0.0,0.0,0.0,0.0,0.0,0.0,0.0,0.0,0.0,0.0,0.0,0.0,0.0,0.0,0.0,0.0,0.0,0.0,0.0,0.0,0.0,0.0,0.0,0.0,0.0,0.0,0.0,0.0,0.0,0.0,0.0,0.0,0.0,0.0,0.0,0.0,0.0,0.0,0.0,0.0,0.0,0.0,0.0,0.0,0.0,0.0,0.0,0.0,0.0,0.0,0.0,0.0,0.0,0.0,0.0,0.0,0.0,0.0,0.0,0.0,0.0,0.0,0.0,0.0,0.0,0.0,0.0,0.0,0.0,0.0,0.0,0.0,0.0,0.0,0.0,0.0,0.0,0.0,0.0,0.0,0.0,0.0,0.0,0.0,0.0,0.0,0.0,0.0,0.0,0.0,0.0,0.0,0.0,0.0,0.0,0.0,0.0,0.0,0.0,0.0,0.0,0.0,0.0,0.0,0.0,0.0,0.0,0.0,0.0,0.0,0.0,0.0,0.0,0.0,0.0,0.0,0.0,0.0,0.0,0.0,0.0,0.0,0.0,0.0,0.0,0.0,0.0,0.0,0.0,0.0,0.0,0.0,0.0,0.0,0.0,0.0,0.0,0.0,0.0,0.0,0.0,0.0,0.0,0.0,0.0,0.0,0.0,0.0,0.0,0.0,0.0,0.0,0.0,0.0,0.0,0.0,0.0,0.0,0.0,0.0,0.0,0.0,0.0,0.0,0.0,0.0,0.0,0.0,0.0,0.0,0.0,0.0,0.0,0.0,0.0,0.0,0.0,0.0,0.0,0.0,0.0,0.0,0.0,0.0,0.0,0.0,0.0,0.0,0.0,0.0,0.0,0.0,0.0,0.0,0.0,0.0,0.0,0.0,0.0,0.0,0.0,0.0,0.0,0.0,0.0,0.0,0.0,0.0,0.0,0.0,0.0,0.0,0.0,0.0,0.0,0.0,0.0,0.0,0.0,0.0,0.0,0.0,0.0,0.0,0.0,0.0,0.0,0.0,0.0,0.0,0.0,0.0,0.0,0.0,0.0,0.0,0.0,0.0,0.0,0.0,0.0,-1.4588,0.0,0.0,0.0,0.0,0.0,0.0,0.0,0.0,0.0,0.0,0.0,0.0,0.0,0.0,0.0,0.0,0.0,0.0,0.0,0.0,0.0,0.0,0.0,0.0,0.0,0.0,0.0,0.0,0.0,0.0,0.0,0.0,0.0,0.0,0.0,0.0,0.0,0.0,0.0,0.0,0.0,0.0,0.0,0.0,0.0,0.0,0.0,0.0,0.0,0.0,0.0,0.0,0.0,0.0,0.0,0.0,0.0,0.0,0.0,0.0,0.0,0.0,0.0,0.0,0.0,0.0,0.0,0.0,0.0,0.0,0.0,0.0,0.0,0.0,0.0,0.0,0.0,0.0,0.0,0.0,0.0,0.0,0.0,0.0,0.0,0.0,0.0,0.0,0.0,0.0,0.0,0.0,0.0,0.0,0.0,0.0,0.0,0.0,0.0,0.0,0.0,0.0,0.0,0.0,0.0,0.0,0.0,0.0,0.0,0.0,-1.6256,-1.8351,-1.7978,-1.7363,-1.6505,0.0,0.0,0.0,0.0,0.0,0.0,0.0,0.0,0.0,0.0,0.0,0.0,0.0,0.0,0.0,0.0,0.0,0.0,0.0,0.0,0.0,0.0,0.0,0.0,0.0,0.0,0.0,0.0,0.0,0.0,0.0,0.0,0.0,0.0,0.0,0.0,0.0,0.0,0.0,0.0,0.0,0.0,0.0,0.0,0.0,0.0,0.0,0.0,0.0,0.0,0.0,0.0,0.0,0.0,0.0,0.0,0.0,0.0,0.0,0.0,0.0,0.0,0.0,0.0,0.0,0.0,0.0,0.0,0.0,0.0,0.0,0.0,0.0,0.0,0.0,0.0,0.0,0.0,0.0,0.0,0.0,0.0,0.0,0.0,0.0,0.0,0.0,0.0,0.0,0.0,0.0,0.0,0.0,0.0,0.0,0.0,0.0,0.0,0.0,0.0,0.0,0.0,0.0,0.0,0.0,0.0,0.0,0.0,0.0,0.0,0.0,0.0,-2.0721,-1.9645,-1.8333,0.0,0.0,0.0,0.0,0.0,0.0,0.0,0.0,0.0,0.0,0.0,0.0,0.0,0.0,0.0,0.0,0.0,0.0,0.0,0.0,0.0,0.0,0.0,0.0,0.0,0.0,0.0,0.0,0.0,0.0,0.0,0.0,0.0,0.0,0.0,0.0,0.0,0.0,0.0,0.0,0.0,0.0,0.0,0.0,0.0,0.0,0.0,0.0,0.0,0.0,0.0,0.0,0.0,0.0,0.0,0.0,0.0,0.0,0.0,0.0,0.0,0.0,0.0,0.0,0.0,0.0,0.0,0.0,0.0,0.0,0.0,0.0,0.0,0.0,0.0,0.0,0.0,0.0,0.0,0.0,0.0,0.0,0.0,0.0,0.0,0.0,0.0,0.0,0.0,0.0,0.0,0.0,0.0,0.0,0.0,0.0,0.0,0.0,0.0,0.0,0.0,0.0,0.0,0.0,0.0,0.0,0.0,0.0,0.0,0.0,-2.0774,-2.4799,-2.4183,0.0,-1.947,0.0,0.0,0.0,0.0,0.0,0.0,0.0,0.0,0.0,0.0,0.0,0.0,0.0,0.0,0.0,0.0,0.0,0.0,0.0,0.0,0.0,0.0,0.0,0.0,0.0,0.0,0.0,0.0,0.0,0.0,0.0,0.0,0.0,0.0,0.0,0.0,0.0,0.0,0.0,0.0,0.0,0.0,0.0,0.0,0.0,0.0,0.0,0.0,0.0,0.0,0.0,0.0,0.0,0.0,0.0,0.0,0.0,0.0,0.0,0.0,0.0,0.0,0.0,0.0,0.0,0.0,0.0,0.0,0.0,0.0,0.0,0.0,0.0,0.0,0.0,0.0,0.0,0.0,0.0,0.0,0.0,0.0,0.0,0.0,0.0,0.0,0.0,0.0,0.0,0.0,0.0,0.0,0.0,0.0,0.0,0.0,0.0,0.0,0.0,0.0,0.0,0.0,0.0,0.0,0.0,0.0,0.0,0.0,0.0,0.0,-2.3822,-2.6819,-2.5884,-2.4064,0.0,0.0,0.0,0.0,0.0,0.0,0.0,0.0,0.0,0.0,0.0,0.0,0.0,0.0,0.0,0.0,0.0,0.0,0.0,0.0,0.0,0.0,0.0,0.0,0.0,0.0,0.0,0.0,0.0,0.0,0.0,0.0,0.0,0.0,0.0,0.0,0.0,0.0,0.0,0.0,0.0,0.0,0.0,0.0,0.0,0.0,0.0,0.0,0.0,0.0,0.0,0.0,0.0,0.0,0.0,0.0,0.0,0.0,0.0,0.0,0.0,0.0,0.0,0.0,0.0,0.0,0.0,0.0,0.0,0.0,0.0,0.0,0.0,0.0,0.0,0.0,0.0,0.0,0.0,0.0,0.0,0.0,0.0,0.0,0.0,0.0,0.0,0.0,0.0,0.0,0.0,0.0,0.0,0.0,0.0,0.0,0.0,0.0,0.0,0.0,0.0,0.0,0.0,0.0,0.0,0.0,0.0,0.0,0.0,0.0,-2.4517,-2.6759,-2.8954,-2.8388,-2.6401,-2.3046,0.0,0.0,0.0,0.0,0.0,0.0,0.0,0.0,0.0,0.0,0.0,0.0,0.0,0.0,0.0,0.0,0.0,0.0,0.0,0.0,0.0,0.0,0.0,0.0,0.0,0.0,0.0,0.0,0.0,0.0,0.0,0.0,0.0,0.0,0.0,0.0,0.0,0.0,0.0,0.0,0.0,0.0,0.0,0.0,0.0,0.0,0.0,0.0,0.0,0.0,0.0,0.0,0.0,0.0,0.0,0.0,0.0,0.0,0.0,0.0,0.0,0.0,0.0,0.0,0.0,0.0,0.0,0.0,0.0,0.0,0.0,0.0,0.0,0.0,0.0,0.0,0.0,0.0,0.0,0.0,0.0,0.0,0.0,0.0,0.0,0.0,0.0,0.0,0.0,0.0,0.0,0.0,0.0,0.0,0.0,0.0,0.0,0.0,0.0,0.0,0.0,0.0,0.0,0.0,0.0,0.0,0.0,0.0,-2.7718,-2.7977,-2.9326,-3.2112,-3.2452,-3.0057,0.0,0.0,0.0,0.0,0.0,0.0,0.0,0.0,0.0,0.0,0.0,0.0,0.0,0.0,0.0,0.0,0.0,0.0,0.0,0.0,0.0,0.0,0.0,0.0,0.0,0.0,0.0,0.0,0.0,0.0,0.0,0.0,0.0,0.0,0.0,0.0,0.0,0.0,0.0,0.0,0.0,0.0,0.0,0.0,0.0,0.0,0.0,0.0,0.0,0.0,0.0,0.0,0.0,0.0,0.0,0.0,0.0,0.0,0.0,0.0,0.0,0.0,0.0,0.0,0.0,0.0,0.0,0.0,0.0,0.0,0.0,0.0,0.0,0.0,0.0,0.0,0.0,0.0,0.0,0.0,0.0,0.0,0.0,0.0,0.0,0.0,0.0,0.0,0.0,0.0,0.0,0.0,0.0,0.0,0.0,0.0,0.0,0.0,0.0,0.0,0.0,0.0,0.0,0.0,0.0,0.0,0.0,0.0,0.0,-2.5727,-2.8934,-3.2411,-3.5837,-3.2732,-3.0155,0.0,0.0,0.0,0.0,0.0,0.0,0.0,0.0,0.0,0.0,0.0,0.0,0.0,0.0,0.0,0.0,0.0,0.0,0.0,0.0,0.0,0.0,0.0,0.0,0.0,0.0,0.0,0.0,0.0,0.0,0.0,0.0,0.0,0.0,0.0,0.0,0.0,0.0,0.0,0.0,0.0,0.0,0.0,0.0,0.0,0.0,0.0,0.0,0.0,0.0,0.0,0.0,0.0,0.0,0.0,0.0,0.0,0.0,0.0,0.0,0.0,0.0,0.0,0.0,0.0,0.0,0.0,0.0,0.0,0.0,0.0,0.0,0.0,0.0,0.0,0.0,0.0,0.0,0.0,0.0,0.0,0.0,0.0,0.0,0.0,0.0,0.0,0.0,0.0,0.0,0.0,0.0,0.0,0.0,0.0,0.0,0.0,0.0,0.0,0.0,0.0,0.0,0.0,0.0,0.0,0.0,0.0,0.0,0.0,-2.7941,0.0,-3.5609,-3.7114,-3.3425,-3.0482,0.0,0.0,0.0,0.0,0.0,0.0,0.0,0.0,0.0,0.0,0.0,0.0,0.0,0.0,0.0,0.0,0.0,0.0,0.0,0.0,0.0,0.0,0.0,0.0,0.0,0.0,0.0,0.0,0.0,0.0,0.0,0.0,0.0,0.0,0.0,0.0,0.0,0.0,0.0,0.0,0.0,0.0,0.0,0.0,0.0,0.0,0.0,0.0,0.0,0.0,0.0,0.0,0.0,0.0,0.0,0.0,0.0,0.0,0.0,0.0,0.0,0.0,0.0,0.0,0.0,0.0,0.0,0.0,0.0,0.0,0.0,0.0,0.0,0.0,0.0,0.0,0.0,0.0,0.0,0.0,0.0,0.0,0.0,0.0,0.0,0.0,0.0,0.0,0.0,0.0,0.0,0.0,0.0,0.0,0.0,0.0,0.0,0.0,0.0,0.0,0.0,0.0,0.0,0.0,0.0,0.0,0.0,0.0,-2.8206,-3.5334,-3.8363,-3.8492,-3.5876,-3.4843,-3.126,0.0,0.0,0.0,0.0,0.0,0.0,0.0,0.0,0.0,0.0,0.0,0.0,0.0,0.0,0.0,0.0,0.0,0.0,0.0,0.0,0.0,0.0,0.0,0.0,0.0,0.0,0.0,0.0,0.0,0.0,0.0,0.0,0.0,0.0,0.0,0.0,0.0,0.0,0.0,0.0,0.0,0.0,0.0,0.0,0.0,0.0,0.0,0.0,0.0,0.0,0.0,0.0,0.0,0.0,0.0,0.0,0.0,0.0,0.0,0.0,0.0,0.0,0.0,0.0,0.0,0.0,0.0,0.0,0.0,0.0,0.0,0.0,0.0,0.0,0.0,0.0,0.0,0.0,0.0,0.0,0.0,0.0,0.0,0.0,0.0,0.0,0.0,0.0,0.0,0.0,0.0,0.0,0.0,0.0,0.0,0.0,0.0,0.0,0.0,0.0,0.0,0.0,0.0,0.0,0.0,0.0,0.0,0.0,0.0,-3.3555,-3.5872,-3.7557,-3.8307,-3.3689,-3.0643,0.0,0.0,0.0,0.0,0.0,0.0,0.0,0.0,0.0,0.0,0.0,0.0,0.0,0.0,0.0,0.0,0.0,0.0,0.0,0.0,0.0,0.0,0.0,0.0,0.0,0.0,0.0,0.0,0.0,0.0,0.0,0.0,0.0,0.0,0.0,0.0,0.0,0.0,0.0,0.0,0.0,0.0,0.0,0.0,0.0,0.0,0.0,0.0,0.0,0.0,0.0,0.0,0.0,0.0,0.0,0.0,0.0,0.0,0.0,0.0,0.0,0.0,0.0,0.0,0.0,0.0,0.0,0.0,0.0,0.0,0.0,0.0,0.0,0.0,0.0,0.0,0.0,0.0,0.0,0.0,0.0,0.0,0.0,0.0,0.0,0.0,0.0,0.0,0.0,0.0,0.0,0.0,0.0,0.0,0.0,0.0,0.0,0.0,0.0,0.0,0.0,0.0,0.0,0.0,0.0,0.0,0.0,0.0,0.0,-3.4798,-3.7277,-3.8989,-3.9779,-3.4666,-3.1627,-3.0997,0.0,0.0,0.0,0.0,0.0,0.0,0.0,0.0,0.0,0.0,0.0,0.0,0.0,0.0,0.0,0.0,0.0,0.0,0.0,0.0,0.0,0.0,0.0,0.0,0.0,0.0,0.0,0.0,0.0,0.0,0.0,0.0,0.0,0.0,0.0,0.0,0.0,0.0,0.0,0.0,0.0,0.0,0.0,0.0,0.0,0.0,0.0,0.0,0.0,0.0,0.0,0.0,0.0,0.0,0.0,0.0,0.0,0.0,0.0,0.0,0.0,0.0,0.0,0.0,0.0,0.0,0.0,0.0,0.0,0.0,0.0,0.0,0.0,0.0,0.0,0.0,0.0,0.0,0.0,0.0,0.0,0.0,0.0,0.0,0.0,0.0,0.0,0.0,0.0,0.0,0.0,0.0,0.0,0.0,0.0,0.0,0.0,0.0,0.0,0.0,0.0,0.0,0.0,0.0,0.0,0.0,0.0,0.0,-3.833,-4.1824,-4.2459,-4.011,-3.7356,-3.3961,0.0,0.0,0.0,0.0,0.0,0.0,0.0,0.0,0.0,0.0,0.0,0.0,0.0,0.0,0.0,0.0,0.0,0.0,0.0,0.0,0.0,0.0,0.0,0.0,0.0,0.0,0.0,0.0,0.0,0.0,0.0,0.0,0.0,0.0,0.0,0.0,0.0,0.0,0.0,0.0,0.0,0.0,0.0,0.0,0.0,0.0,0.0,0.0,0.0,0.0,0.0,0.0,0.0,0.0,0.0,0.0,0.0,0.0,0.0,0.0,0.0,0.0,0.0,0.0,0.0,0.0,0.0,0.0,0.0,0.0,0.0,0.0,0.0,0.0,0.0,0.0,0.0,0.0,0.0,0.0,0.0,0.0,0.0,0.0,0.0,0.0,0.0,0.0,0.0,0.0,0.0,0.0,0.0,0.0,0.0,0.0,0.0,0.0,0.0,0.0,0.0,0.0,0.0,0.0,0.0,0.0,0.0,0.0,0.0,-4.0168,-4.3092,-4.4023,-4.2653,-3.8891,-3.5431,0.0,0.0,0.0,0.0,0.0,0.0,0.0,0.0,0.0,0.0,0.0,0.0,0.0,0.0,0.0,0.0,0.0,0.0,0.0,0.0,0.0,0.0,0.0,0.0,0.0,0.0,0.0,0.0,0.0,0.0,0.0,0.0,0.0,0.0,0.0,0.0,0.0,0.0,0.0,0.0,0.0,0.0,0.0,0.0,0.0,0.0,0.0,0.0,0.0,0.0,0.0,0.0,0.0,0.0,0.0,0.0,0.0,0.0,0.0,0.0,0.0,0.0,0.0,0.0,0.0,0.0,0.0,0.0,0.0,0.0,0.0,0.0,0.0,0.0,0.0,0.0,0.0,0.0,0.0,0.0,0.0,0.0,0.0,0.0,0.0,0.0,0.0,0.0,0.0,0.0,0.0,0.0,0.0,0.0,0.0,0.0,0.0,0.0,0.0,0.0,0.0,0.0,0.0,0.0,0.0,0.0,0.0,0.0,-3.864,-4.1443,-4.4141,-4.5102,-4.419,-4.1022,-3.7745,0.0,0.0,0.0,0.0,0.0,0.0,0.0,0.0,0.0,0.0,0.0,0.0,0.0,0.0,0.0,0.0,0.0,0.0,0.0,0.0,0.0,0.0,0.0,0.0,0.0,0.0,0.0,0.0,0.0,0.0,0.0,0.0,0.0,0.0,0.0,0.0,0.0,0.0,0.0,0.0,0.0,0.0,0.0,0.0,0.0,0.0,0.0,0.0,0.0,0.0,0.0,0.0,0.0,0.0,0.0,0.0,0.0,0.0,0.0,0.0,0.0,0.0,0.0,0.0,0.0,0.0,0.0,0.0,0.0,0.0,0.0,0.0,0.0,0.0,0.0,0.0,0.0,0.0,0.0,0.0,0.0,0.0,0.0,0.0,0.0,0.0,0.0,0.0,0.0,0.0,0.0,0.0,0.0,0.0,0.0,0.0,0.0,0.0,0.0,0.0,0.0,0.0,0.0,0.0,0.0,0.0,0.0,0.0,-3.9685,-4.2249,-4.4917,-4.5867,-4.4919,-4.3166,-4.0194,0.0,0.0,0.0,0.0,0.0,0.0,0.0,0.0,0.0,0.0,0.0,0.0,0.0,0.0,0.0,0.0,0.0,0.0,0.0,0.0,0.0,0.0,0.0,0.0,0.0,0.0,0.0,0.0,0.0,0.0,0.0,0.0,0.0,0.0,0.0,0.0,0.0,0.0,0.0,0.0,0.0,0.0,0.0,0.0,0.0,0.0,0.0,0.0,0.0,0.0,0.0,0.0,0.0,0.0,0.0,0.0,0.0,0.0,0.0,0.0,0.0,0.0,0.0,0.0,0.0,0.0,0.0,0.0,0.0,0.0,0.0,0.0,0.0,0.0,0.0,0.0,0.0,0.0,0.0,0.0,0.0,0.0,0.0,0.0,0.0,0.0,0.0,0.0,0.0,0.0,0.0,0.0,0.0,0.0,0.0,0.0,0.0,0.0,0.0,0.0,0.0,0.0,0.0,0.0,0.0,0.0,0.0,0.0,-4.0246,-4.2268,-4.4917,-4.6084,-4.5668,-4.3456,-4.0509,0.0,0.0,0.0,0.0,0.0,0.0,0.0,0.0,0.0,0.0,0.0,0.0,0.0,0.0,0.0,0.0,0.0,0.0,0.0,0.0,0.0,0.0,0.0,0.0,0.0,0.0,0.0,0.0,0.0,0.0,0.0,0.0,0.0,0.0,0.0,0.0,0.0,0.0,0.0,0.0,0.0,0.0,0.0,0.0,0.0,0.0,0.0,0.0,-3.1513,0.0,0.0,0.0,0.0,0.0,0.0,0.0,0.0,0.0,0.0,0.0,0.0,0.0,0.0,0.0,0.0,0.0,0.0,0.0,0.0,0.0,0.0,0.0,0.0,0.0,0.0,0.0,0.0,0.0,0.0,0.0,0.0,0.0,0.0,0.0,0.0,0.0,0.0,0.0,0.0,0.0,0.0,0.0,0.0,0.0,0.0,0.0,0.0,0.0,0.0,0.0,0.0,0.0,0.0,0.0,0.0,0.0,0.0,0.0,-4.028,-4.2901,-4.474,-4.5796,-4.5923,-4.3942,-4.1097,0.0,0.0,0.0,0.0,0.0,0.0,0.0,0.0,0.0,0.0,0.0,0.0,0.0,0.0,0.0,0.0,0.0,0.0,0.0,0.0,0.0,0.0,0.0,0.0,0.0,0.0,0.0,0.0,0.0,0.0,0.0,0.0,0.0,0.0,0.0,0.0,0.0,0.0,0.0,0.0,0.0,0.0,0.0,0.0,0.0,0.0,0.0,0.0,0.0,0.0,0.0,0.0,0.0,0.0,0.0,0.0,0.0,0.0,0.0,0.0,0.0,0.0,0.0,0.0,0.0,0.0,0.0,0.0,0.0,0.0,0.0,0.0,0.0,0.0,0.0,0.0,0.0,0.0,0.0,0.0,0.0,0.0,0.0,0.0,0.0,0.0,0.0,0.0,0.0,0.0,0.0,0.0,0.0,0.0,0.0,0.0,0.0,0.0,0.0,0.0,0.0,0.0,0.0,0.0,0.0,0.0,0.0,-3.6495,-3.9923,-4.3338,-4.4484,-4.5282,-4.5848,-4.4275,-4.1687,-3.8055,0.0,0.0,0.0,0.0,0.0,0.0,0.0,0.0,0.0,0.0,0.0,0.0,0.0,0.0,0.0,0.0,0.0,0.0,0.0,0.0,0.0,0.0,0.0,0.0,0.0,0.0,0.0,0.0,0.0,0.0,0.0,0.0,0.0,0.0,0.0,0.0,0.0,0.0,-2.7045,-3.12,0.0,0.0,0.0,0.0,0.0,0.0,0.0,0.0,-3.4296,0.0,0.0,0.0,0.0,0.0,0.0,0.0,0.0,0.0,0.0,0.0,0.0,0.0,0.0,0.0,0.0,0.0,0.0,0.0,0.0,0.0,0.0,0.0,0.0,0.0,0.0,0.0,0.0,0.0,0.0,0.0,0.0,0.0,0.0,0.0,0.0,0.0,0.0,0.0,0.0,0.0,0.0,0.0,0.0,0.0,0.0,0.0,0.0,0.0,0.0,0.0,0.0,0.0,0.0,0.0,0.0,-3.5044,-3.6565,-3.9033,-4.2519,-4.4166,-4.4989,-4.4988,-4.3979,-4.1731,-3.8157,0.0,0.0,0.0,0.0,0.0,0.0,0.0,0.0,0.0,0.0,0.0,0.0,0.0,0.0,0.0,0.0,0.0,0.0,0.0,0.0,0.0,0.0,0.0,0.0,0.0,0.0,0.0,0.0,0.0,0.0,0.0,0.0,0.0,0.0,0.0,0.0,0.0,0.0,0.0,-3.4009,-3.6181,0.0,0.0,0.0,0.0,0.0,0.0,0.0,0.0,-3.3931,0.0,0.0,0.0,0.0,0.0,0.0,0.0,0.0,0.0,0.0,0.0,0.0,0.0,0.0,0.0,0.0,0.0,0.0,0.0,0.0,0.0,0.0,0.0,0.0,0.0,0.0,0.0,0.0,0.0,0.0,0.0,0.0,0.0,0.0,0.0,0.0,0.0,0.0,0.0,0.0,0.0,0.0,0.0,0.0,0.0,0.0,0.0,0.0,0.0,0.0,0.0,0.0,0.0,0.0,0.0,-3.4266,-3.6649,-3.9524,-4.2947,-4.3911,-4.4514,-4.486,-4.3123,-4.071,0.0,0.0,0.0,0.0,0.0,0.0,0.0,0.0,0.0,0.0,0.0,0.0,0.0,0.0,0.0,0.0,0.0,0.0,0.0,0.0,0.0,0.0,0.0,0.0,0.0,0.0,0.0,0.0,0.0,0.0,0.0,0.0,0.0,0.0,0.0,0.0,0.0,0.0,0.0,0.0,-3.5215,-3.6927,-3.7588,0.0,0.0,0.0,0.0,0.0,0.0,-3.4321,-3.3915,0.0,0.0,0.0,0.0,0.0,0.0,0.0,0.0,0.0,0.0,0.0,0.0,0.0,0.0,0.0,0.0,0.0,0.0,0.0,0.0,0.0,0.0,0.0,0.0,0.0,0.0,0.0,0.0,0.0,0.0,0.0,0.0,0.0,0.0,0.0,0.0,0.0,0.0,0.0,0.0,0.0,0.0,0.0,0.0,0.0,0.0,0.0,0.0,0.0,0.0,0.0,0.0,0.0,0.0,0.0,-3.3229,-3.6357,-3.9664,-4.3004,-4.3343,-4.3761,-4.4419,-4.2206,-3.9726,0.0,0.0,0.0,0.0,0.0,0.0,0.0,0.0,0.0,0.0,0.0,0.0,0.0,0.0,0.0,0.0,0.0,0.0,0.0,0.0,0.0,0.0,0.0,0.0,0.0,0.0,0.0,0.0,0.0,0.0,0.0,0.0,0.0,0.0,0.0,0.0,0.0,0.0,0.0,0.0,0.0,-3.7872,-3.8299,-3.8663,0.0,0.0,0.0,0.0,-3.5479,-3.4889,0.0,0.0,0.0,0.0,0.0,0.0,0.0,0.0,0.0,0.0,0.0,0.0,0.0,0.0,0.0,0.0,0.0,0.0,0.0,0.0,0.0,0.0,0.0,0.0,0.0,0.0,0.0,0.0,0.0,0.0,0.0,0.0,0.0,0.0,0.0,0.0,0.0,0.0,0.0,0.0,0.0,0.0,0.0,0.0,0.0,0.0,0.0,0.0,0.0,0.0,0.0,0.0,0.0,0.0,0.0,0.0,-3.3196,-3.5201,-3.791,-4.1232,-4.2144,-4.2602,-4.268,-4.1513,-3.9641,0.0,0.0,0.0,0.0,0.0,0.0,0.0,0.0,0.0,0.0,0.0,0.0,0.0,0.0,0.0,0.0,0.0,0.0,0.0,0.0,0.0,0.0,0.0,0.0,0.0,0.0,0.0,0.0,0.0,0.0,0.0,0.0,0.0,0.0,0.0,0.0,0.0,0.0,0.0,0.0,0.0,-3.9902,-3.8441,-3.9559,-4.0144,0.0,0.0,-3.8137,-3.857,-3.68,0.0,0.0,0.0,0.0,0.0,0.0,0.0,0.0,0.0,0.0,0.0,0.0,0.0,0.0,0.0,0.0,0.0,0.0,0.0,0.0,0.0,0.0,0.0,0.0,0.0,0.0,0.0,0.0,0.0,0.0,0.0,0.0,0.0,0.0,0.0,0.0,0.0,0.0,0.0,0.0,0.0,0.0,0.0,0.0,0.0,0.0,0.0,0.0,0.0,0.0,0.0,0.0,0.0,0.0,0.0,-3.0234,-3.3314,-3.6014,-3.8826,-4.1714,-4.219,-4.2395,-4.2383,-4.0532,-3.8054,0.0,0.0,0.0,0.0,0.0,0.0,0.0,0.0,0.0,0.0,0.0,0.0,0.0,0.0,0.0,0.0,0.0,0.0,0.0,0.0,0.0,0.0,0.0,0.0,0.0,0.0,0.0,0.0,0.0,0.0,0.0,0.0,0.0,0.0,0.0,0.0,0.0,0.0,0.0,0.0,0.0,0.0,-4.0217,-4.0434,0.0,0.0,0.0,-3.8881,-3.7725,0.0,0.0,0.0,0.0,0.0,0.0,0.0,0.0,0.0,0.0,0.0,0.0,0.0,0.0,0.0,0.0,0.0,0.0,0.0,0.0,0.0,0.0,0.0,0.0,0.0,0.0,0.0,0.0,0.0,0.0,0.0,0.0,0.0,0.0,0.0,0.0,0.0,0.0,0.0,0.0,0.0,0.0,0.0,0.0,0.0,0.0,0.0,0.0,0.0,0.0,0.0,0.0,0.0,0.0,0.0,0.0,0.0,-3.3085,-3.6445,-3.9347,-4.1647,-4.1749,-4.1754,-4.1683,-3.9613,0.0,0.0,0.0,0.0,0.0,0.0,0.0,0.0,0.0,0.0,0.0,0.0,0.0,0.0,0.0,0.0,0.0,0.0,0.0,0.0,0.0,0.0,0.0,0.0,0.0,0.0,0.0,-2.2114,0.0,0.0,0.0,0.0,0.0,0.0,0.0,0.0,0.0,0.0,0.0,0.0,0.0,0.0,-4.0103,-4.1203,-4.1293,-4.111,0.0,0.0,-3.9585,-3.7833,-3.6927,-3.5403,0.0,0.0,0.0,0.0,0.0,0.0,0.0,0.0,0.0,0.0,0.0,0.0,0.0,0.0,0.0,0.0,0.0,0.0,0.0,0.0,0.0,0.0,0.0,0.0,0.0,0.0,0.0,0.0,0.0,0.0,0.0,0.0,0.0,0.0,0.0,0.0,0.0,0.0,0.0,0.0,0.0,0.0,0.0,0.0,0.0,0.0,0.0,0.0,0.0,0.0,0.0,0.0,0.0,0.0,0.0,-3.2265,-3.5624,-3.823,-3.9911,-3.9965,-3.9959,-3.9855,-3.8941,-3.674,0.0,0.0,0.0,0.0,0.0,0.0,0.0,0.0,0.0,0.0,0.0,0.0,0.0,0.0,0.0,0.0,0.0,0.0,0.0,0.0,0.0,0.0,0.0,0.0,0.0,0.0,0.0,0.0,0.0,0.0,0.0,0.0,0.0,0.0,0.0,0.0,0.0,0.0,0.0,0.0,0.0,-4.0443,-4.0167,-4.2104,-4.3243,0.0,0.0,-4.0288,-4.0867,-3.8318,-3.547,-3.3012,0.0,0.0,0.0,0.0,0.0,0.0,0.0,0.0,0.0,0.0,0.0,0.0,0.0,0.0,0.0,0.0,0.0,0.0,0.0,0.0,0.0,0.0,0.0,0.0,0.0,0.0,0.0,0.0,0.0,0.0,0.0,0.0,0.0,0.0,0.0,0.0,0.0,0.0,0.0,0.0,0.0,0.0,0.0,0.0,0.0,0.0,0.0,0.0,0.0,0.0,0.0,0.0,0.0,-3.0194,-3.2109,-3.5478,-3.7819,-3.8931,-3.894,-3.8906,-3.8898,-3.8054,-3.5962,0.0,0.0,0.0,0.0,0.0,0.0,0.0,0.0,0.0,0.0,0.0,0.0,0.0,0.0,0.0,0.0,0.0,0.0,0.0,0.0,0.0,0.0,0.0,0.0,0.0,0.0,0.0,0.0,-2.7711,-2.7792,-2.7179,0.0,0.0,0.0,0.0,0.0,0.0,0.0,0.0,0.0,0.0,-4.1455,-4.2121,-4.3023,0.0,0.0,-4.2528,-4.1571,-3.9818,-3.8121,-3.578,-3.2289,-3.035,0.0,0.0,0.0,0.0,0.0,0.0,0.0,0.0,0.0,0.0,0.0,0.0,0.0,0.0,0.0,0.0,0.0,0.0,0.0,0.0,0.0,0.0,0.0,0.0,0.0,0.0,0.0,0.0,0.0,0.0,0.0,0.0,0.0,0.0,0.0,0.0,0.0,0.0,0.0,0.0,0.0,0.0,0.0,0.0,0.0,0.0,0.0,0.0,0.0,0.0,0.0,0.0,-2.9805,-3.209,-3.5211,-3.7227,-3.8068,-3.8027,-3.8015,-3.7984,-3.7408,-3.5605,0.0,0.0,0.0,0.0,0.0,0.0,0.0,0.0,0.0,0.0,0.0,0.0,0.0,0.0,0.0,0.0,0.0,0.0,0.0,0.0,0.0,0.0,0.0,0.0,0.0,0.0,0.0,0.0,-2.9401,-2.8683,-2.7478,0.0,0.0,0.0,0.0,0.0,0.0,0.0,0.0,0.0,0.0,-4.2087,-4.3005,-4.3077,-4.3037,-4.2913,-4.2171,-4.0957,-3.9154,-3.7805,-3.5746,-3.223,0.0,0.0,0.0,0.0,0.0,0.0,0.0,0.0,0.0,0.0,0.0,0.0,0.0,0.0,0.0,0.0,0.0,0.0,0.0,0.0,0.0,0.0,0.0,0.0,0.0,0.0,0.0,0.0,0.0,0.0,-3.0729,0.0,0.0,0.0,0.0,0.0,0.0,0.0,0.0,0.0,0.0,0.0,0.0,0.0,0.0,0.0,0.0,0.0,0.0,0.0,0.0,0.0,0.0,-3.039,-3.2088,-3.4659,-3.635,-3.7108,-3.712,-3.7102,-3.7124,-3.71,-3.5877,-3.3309,0.0,0.0,0.0,0.0,0.0,0.0,0.0,0.0,0.0,0.0,0.0,0.0,0.0,0.0,0.0,0.0,0.0,0.0,0.0,0.0,0.0,0.0,0.0,0.0,0.0,0.0,-3.0542,-2.9854,-2.8631,0.0,0.0,0.0,0.0,0.0,0.0,0.0,0.0,0.0,0.0,-4.0245,-4.2152,-4.21,-4.2061,-4.2136,-4.2085,-3.9512,-3.7996,-3.9455,-3.7581,-3.5262,0.0,0.0,0.0,0.0,0.0,0.0,0.0,0.0,0.0,0.0,0.0,0.0,0.0,0.0,0.0,0.0,0.0,0.0,0.0,0.0,0.0,0.0,0.0,0.0,0.0,0.0,0.0,-3.3262,-3.2526,0.0,0.0,0.0,0.0,0.0,0.0,0.0,0.0,0.0,0.0,0.0,-3.4129,-3.3832,0.0,0.0,0.0,0.0,0.0,0.0,0.0,0.0,0.0,0.0,0.0,0.0,-3.0372,-3.2113,-3.4603,-3.6038,-3.6287,-3.6262,-3.6238,-3.6241,-3.6222,-3.4997,-3.2385,0.0,0.0,0.0,0.0,0.0,0.0,0.0,0.0,0.0,0.0,0.0,0.0,0.0,0.0,0.0,0.0,0.0,0.0,0.0,0.0,0.0,0.0,0.0,0.0,0.0,-3.0348,0.0,0.0,0.0,0.0,0.0,0.0,0.0,0.0,0.0,0.0,0.0,-3.749,-4.0239,-4.1942,-4.3081,-4.347,-4.3573,-4.3545,0.0,0.0,0.0,0.0,0.0,0.0,0.0,0.0,0.0,0.0,0.0,0.0,0.0,0.0,-2.8375,-2.6434,-2.5995,-2.601,-2.6197,0.0,0.0,0.0,0.0,0.0,0.0,0.0,0.0,0.0,0.0,0.0,0.0,0.0,0.0,0.0,0.0,-3.4312,0.0,0.0,0.0,0.0,0.0,0.0,0.0,0.0,-3.5824,-3.6518,-3.6767,-3.6725,-3.5992,0.0,-3.4122,-3.1988,0.0,0.0,0.0,0.0,0.0,0.0,0.0,0.0,-3.0957,-3.2945,-3.4904,-3.5895,-3.5861,-3.583,-3.5795,-3.5795,-3.5795,-3.4801,-3.2739,-3.151,-2.9874,0.0,0.0,0.0,0.0,0.0,0.0,0.0,0.0,0.0,0.0,0.0,0.0,0.0,0.0,0.0,0.0,0.0,0.0,0.0,0.0,0.0,0.0,0.0,-3.1386,0.0,0.0,0.0,0.0,0.0,0.0,0.0,0.0,0.0,-3.5905,-3.741,-3.9279,-4.1775,-4.2998,-4.36,-4.3479,0.0,0.0,0.0,0.0,0.0,0.0,0.0,-3.6094,-3.4265,-3.2528,-3.1285,-3.106,-3.1052,-3.0995,-3.0717,0.0,0.0,-2.7777,-2.7564,-2.7658,-2.7832,-2.8599,-2.9074,-2.8625,-2.867,-2.8625,0.0,0.0,0.0,0.0,0.0,0.0,0.0,0.0,-3.7363,-3.6892,0.0,-3.6072,0.0,0.0,0.0,0.0,0.0,-3.6246,0.0,0.0,-3.8842,-3.9256,-3.8512,-3.8442,-3.7999,-3.7269,-3.7147,-3.5832,-3.3355,-3.0907,0.0,0.0,0.0,0.0,0.0,0.0,-3.2108,-3.4491,-3.5431,-3.5861,-3.5799,-3.5795,-3.5795,-3.5795,-3.5791,-3.534,-3.44,-3.4316,-3.2334,-2.8031,-2.784,0.0,0.0,0.0,0.0,0.0,0.0,0.0,0.0,0.0,0.0,0.0,0.0,0.0,0.0,0.0,0.0,0.0,0.0,0.0,0.0,-3.2419,0.0,0.0,0.0,0.0,0.0,0.0,0.0,0.0,0.0,0.0,-3.7624,-3.8769,-4.0096,-4.1858,0.0,0.0,0.0,0.0,-4.1857,-4.1519,-3.9978,-3.8799,-3.8382,-3.7487,-3.622,-3.4401,0.0,0.0,-3.1575,-3.0885,-3.0365,-2.958,-2.9476,-2.98,-3.1127,-3.0412,-2.9963,-3.0446,-3.0111,-3.0039,-3.0394,-2.9453,-2.9039,-4.0059,0.0,0.0,0.0,0.0,-3.8374,-3.8807,-3.9878,-3.9331,-3.8617,-3.7857,-3.7807,0.0,0.0,0.0,0.0,0.0,0.0,-3.777,-3.8959,-3.9474,-3.9878,-4.0154,-3.9603,-3.8873,-3.805,-3.7461,-3.6508,-3.5183,-3.4417,-3.2303,-2.8923,0.0,0.0,0.0,0.0,-3.3258,-3.4546,-3.541,-3.583,-3.5795,-3.5795,-3.5795,-3.5795,-3.5766,-3.5587,-3.5308,-3.4676,-3.3425,-3.1437,-2.9056,0.0,0.0,0.0,0.0,0.0,0.0,0.0,0.0,0.0,0.0,0.0,0.0,0.0,0.0,0.0,0.0,0.0,0.0,0.0,-3.2379,-3.3612,-3.3773,0.0,0.0,0.0,0.0,0.0,0.0,0.0,0.0,0.0,-3.8907,-3.975,-4.0675,0.0,0.0,-4.374,-4.2752,-4.3164,-4.3513,-4.3187,0.0,0.0,0.0,-3.7668,-3.5778,-3.4584,-3.3562,-3.275,-3.2403,-3.1956,-3.1642,-3.161,-3.0572,-2.9812,-3.0173,-3.0186,-2.9926,-2.9707,-2.9878,-3.0015,-2.9737,-2.9347,-2.9066,-4.1282,-3.9546,-3.9549,-3.9814,-4.0199,-3.9726,-4.0117,-4.0996,-4.0517,-4.0055,-3.9587,-3.9558,-3.8778,-3.7484,-3.7113,0.0,0.0,0.0,-3.8885,-4.0189,-4.0189,-4.0266,-4.0383,-3.9925,-3.9077,-3.7923,-3.7447,-3.6768,-3.5956,-3.5939,-3.4485,-3.1729,0.0,0.0,-3.2322,-3.3323,-3.4229,-3.5053,-3.5554,-3.5795,-3.5795,-3.5795,-3.5795,-3.5795,-3.5756,-3.5718,-3.5688,-3.5169,-3.429,-3.2972,-3.0612,-2.8445,0.0,0.0,0.0,0.0,0.0,0.0,0.0,0.0,0.0,0.0,0.0,-3.0115,0.0,0.0,0.0,0.0,-3.0521,-3.2292,-3.4536,-3.5223,0.0,0.0,0.0,0.0,0.0,0.0,0.0,-3.7471,-3.9147,-4.0087,-3.9552,-4.0386,-4.1073,-4.1118,-4.23,-4.2847,-4.2103,0.0,-4.3218,-4.2881,-4.2566,-4.1757,-4.001,-3.7938,-3.6015,-3.4351,-3.3535,-3.2959,-3.2798,-3.2252,-3.1883,-3.1827,-3.0617,-2.9397,-2.9397,-2.9378,-2.9342,-2.9157,-2.9597,-2.9843,-2.9479,-2.9213,-2.8878,-4.1893,-4.1102,-4.1092,-4.1101,-4.1103,-4.1113,-4.1113,-4.1113,-4.11,-4.1109,-4.1109,-4.1109,-4.0649,-3.9865,-3.8988,0.0,-3.9805,-3.9803,-4.0189,-4.0893,-4.0912,-4.0489,-3.9712,-3.9642,-3.8744,-3.72,-3.7145,-3.6737,-3.603,-3.609,-3.5701,-3.492,-3.4839,-3.4753,-3.4614,-3.4643,-3.5053,-3.5795,-3.5795,-3.5795,-3.5795,-3.5795,-3.5795,-3.5795,-3.5736,-3.5668,-3.5606,-3.5581,-3.4763,-3.2982,-3.2006,-3.0001,-2.6802,0.0,0.0,0.0,0.0,0.0,0.0,0.0,0.0,0.0,0.0,0.0,0.0,0.0,0.0,0.0,-3.3118,0.0,-3.6836,-3.7041,0.0,0.0,0.0,-3.6769,-3.5971,-3.8736,-4.0191,-3.901,0.0,0.0,-3.9514,0.0,-4.107,-4.0397,-4.1218,-4.1563,-4.0643,-4.1333,-4.1717,-4.1295,-4.1119,-4.0632,-3.9423,-3.8019,-3.6237,-3.3899,-3.3683,-3.3487,-3.2831,-3.185,-3.1285,-3.128,-2.9923,-2.8834,-2.8815,-2.8551,-2.8427,-2.9036,-2.933,-2.9507,-2.9445,-2.9038,-2.8665,-4.1901,-4.1106,-4.1112,-4.1113,-4.1112,-4.1108,-4.1104,-4.1103,-4.1115,-4.1109,-4.1109,-4.1109,-4.098,-4.0779,-4.051,-4.0496,-4.068,-4.0639,-4.0731,-4.098,-4.098,-4.0529,-3.9682,-3.9071,-3.8229,-3.7206,-3.6583,-3.6202,-3.6051,-3.6656,-3.6891,-3.6695,-3.6616,-3.5925,-3.4673,-3.5223,-3.5613,-3.5795,-3.5795,-3.5795,-3.5795,-3.5795,-3.5795,-3.5795,-3.5158,-3.48,-3.4768,-3.4113,-3.3209,-3.2046,-3.0491,-2.9027,-2.7624,-2.4668,0.0,0.0,0.0,0.0,0.0,0.0,0.0,0.0,0.0,-3.1352,-2.835,0.0,-3.2804,0.0,-3.4778,-3.6636,-3.7623,-3.7752,0.0,0.0,-3.8079,-3.8247,-3.9212,-3.9901,-3.9878,-3.8793,-3.9395,-3.9489,-3.8412,-3.8566,-3.8934,-3.938,-4.1291,-4.1921,-4.0064,-4.0918,-4.1558,-4.0864,-4.0611,-4.0284,-3.915,-3.7114,-3.5069,-3.326,-3.276,-3.256,-3.2652,-3.1373,-3.0484,-3.0705,-2.9736,-2.8906,-2.8863,-2.8563,-2.8685,-2.9259,-2.9067,-2.872,-2.8812,-2.8701,-2.8781,-4.1885,-4.1109,-4.1111,-4.1111,-4.1131,-4.1106,-4.1103,-4.1102,-4.1114,-4.1109,-4.1108,-4.107,-4.1052,-4.1053,-4.0986,-4.0949,-4.0948,-4.0958,-4.0952,-4.0996,-4.0995,-4.0545,-3.973,-3.8897,-3.8051,-3.7214,-3.6765,-3.6578,-3.6597,-3.7067,-3.7301,-3.7282,-3.6842,-3.6133,-3.524,-3.5604,-3.5795,-3.5795,-3.5795,-3.5795,-3.5795,-3.5795,-3.5795,-3.5795,-3.5352,-3.5064,-3.5014,-3.4555,-3.3794,-3.2794,-3.1411,-3.026,-2.9385,-2.6835,-2.5401,0.0,0.0,0.0,0.0,0.0,0.0,0.0,0.0,0.0,0.0,0.0,-3.4017,0.0,-3.6343,-3.7827,-3.8274,-3.8765,-3.9254,-3.9688,-3.9395,-3.9518,-4.0414,-4.0351,-3.9824,-3.8731,-3.9158,-3.9127,-3.8077,-3.8576,-3.9022,-3.9142,-4.0389,-4.0705,-3.9266,-3.9661,-3.9898,-3.9111,-3.891,-3.8622,-3.7914,-3.655,-3.51,-3.3869,-3.3454,-3.3313,-3.3156,-3.2195,-3.152,-3.1649,-3.0865,-3.0109,-2.9989,-2.9503,-2.9313,-2.9439,-2.9038,-2.8722,-2.9039,-2.9427,-2.9771,-4.179,-4.1112,-4.1112,-4.1132,-4.1172,-4.113,-4.1107,-4.1107,-4.1115,-4.1108,-4.1103,-4.1042,-4.1013,-4.0981,-4.0932,-4.0917,-4.0921,-4.098,-4.1019,-4.1011,-4.1023,-4.0593,-3.9764,-3.8904,-3.8055,-3.7223,-3.7159,-3.7145,-3.7145,-3.7243,-3.7301,-3.7262,-3.6462,-3.6068,-3.6064,-3.5896,-3.5795,-3.5795,-3.5795,-3.5795,-3.5795,-3.5795,-3.5791,-3.5782,-3.5685,-3.5577,-3.5503,-3.5386,-3.4874,-3.3942,-3.2905,-3.1977,-3.1197,-2.9486,-2.8468,0.0,-2.7918,0.0,0.0,0.0,0.0,0.0,0.0,0.0,0.0,-3.4603,-3.5476,-3.6074,-3.7778,-3.8868,-3.8855,-3.9776,-4.0304,-4.0182,-4.026,-4.0298,-4.0202,-4.013,-3.9661,-3.8581,-3.8905,-3.8833,-3.7968,-3.8985,-3.9463,-3.8899,-3.8915,-3.8699,-3.7978,-3.7972,-3.781,-3.6739,-3.6609,-3.6679,-3.6255,-3.6097,-3.564,-3.4666,-3.4323,-3.4444,-3.3721,-3.3191,-3.2888,-3.2825,-3.2166,-3.1685,-3.156,-3.0723,-3.0094,-3.0039,-2.9399,-2.9034,-2.9608,-3.0201,-3.0618,-4.1266,-4.1172,-4.1191,-4.1171,-4.1131,-4.1109,-4.1107,-4.1107,-4.1115,-4.1099,-4.11,-4.1072,-4.1042,-4.0988,-4.0992,-4.0984,-4.0984,-4.0992,-4.1029,-4.1078,-4.1083,-4.063,-3.977,-3.8975,-3.8136,-3.7277,-3.6576,-3.6246,-3.6246,-3.6949,-3.7301,-3.7301,-3.7052,-3.6966,-3.6919,0.0,0.0,0.0,-3.5795,-3.5795,-3.5795,-3.5795,-3.5769,-3.5713,-3.5025,0.0,-3.4452,-3.3686,-3.3159,-3.2852,-3.1268,0.0,0.0,0.0,0.0,0.0,0.0,0.0,0.0,0.0,0.0,0.0,-3.2604,-3.2657,-3.3085,-3.5859,-3.7686,-3.7849,-3.8958,-3.9663,-3.9678,-4.0043,-4.0048,-3.9427,-3.9413,-3.9196,-3.8581,-3.8798,-3.867,-3.7842,-3.751,-3.7287,-3.715,-3.6745,-3.6719,-3.7343,-3.7293,-3.6957,-3.6297,-3.677,-3.6546,-3.5245,-3.5299,-3.5569,-3.5294,-3.5412,-3.5156,-3.4233,-3.3565,-3.3389,-3.3275,-3.2683,-3.2224,-3.2326,-3.2027,-3.182,-3.1797,-3.0879,-3.0283,-3.0874,-3.0205,-2.9621,-2.9766,-2.9929,-3.0165,-4.2382,0.0,-4.1973,-4.1777,0.0,-4.1284,-4.1106,-4.1102,-4.1114,-4.1117,-4.1113,-4.1059,-4.1026,-4.0996,-4.0996,-4.0996,-4.0996,-4.1032,-4.1087,-4.1113,-4.1107,-4.0865,-4.0405,-3.9177,-3.8376,-3.7926,-3.7048,-3.6636,-3.6656,-3.7106,-3.7301,-3.7301,-3.6803,-3.6565,-3.6512,-3.5627,-3.5158,-3.5158,-3.5581,-3.56,-3.5193,-3.5532,-3.5728,-3.5688,0.0,0.0,0.0,0.0,0.0,0.0,0.0,0.0,0.0,0.0,0.0,-2.9707,-3.0039,-3.0387,-3.0761,-3.1424,-3.2288,-3.3315,-3.36,-3.3826,-3.4025,-3.6081,-3.751,-3.7867,-3.8521,-3.8971,-3.9116,-3.9342,-3.9241,-3.8671,-3.889,-3.8794,-3.812,-3.8346,-3.8131,-3.7038,-3.6851,-3.6777,-3.6366,-3.6317,-3.6379,-3.6807,-3.6522,-3.6099,-3.5848,-3.6017,-3.5645,-3.4006,-3.3606,-3.3752,-3.3975,-3.4136,-3.4303,-3.3956,-3.3784,-3.3669,-3.3678,-3.3082,-3.2614,-3.2649,-3.2299,-3.1939,-3.1778,-3.1021,-3.0443,-3.0546,-2.9983,-2.9524,-2.972,-3.011,-3.0346,-4.3545,-4.3398,-4.2695,-4.2304,-4.2107,-4.142,-4.1102,-4.1116,0.0,0.0,0.0,-4.1031,-4.102,-4.0988,-4.0984,-4.1007,-4.1018,-4.1073,-4.1115,-4.11,-4.1101,-4.1012,-4.0795,-3.9313,-3.8533,-3.8337,-3.7477,-3.7067,-3.7067,-3.7067,-3.6988,-3.6789,-3.605,-3.5595,-3.5407,-3.4671,-3.421,-3.4109,-3.4925,-3.51,-3.4536,-3.5146,-3.5523,-3.5667,-3.5538,-3.5385,-3.5184,-3.516,-3.4721,-3.377,-3.293,-3.2504,-3.2528,-3.1585,-3.131,-3.1931,-3.1952,-3.2091,-3.2537,-3.2841,-3.3179,-3.3638,-3.421,-3.482,-3.5367,-3.6044,-3.666,-3.725,-3.7553,-3.7809,-3.8019,-3.845,-3.849,-3.8017,-3.8588,-3.8718,-3.7975,-3.8156,-3.7843,-3.6564,-3.6588,-3.6531,-3.589,-3.6079,-3.6483,-3.6407,-3.5698,-3.5264,-3.528,-3.4967,-3.4393,-3.3292,-3.2444,-3.1931,-3.2562,-3.2823,-3.3076,-3.3559,-3.3724,-3.3895,-3.3836,-3.3474,-3.3117,-3.2933,-3.2516,-3.2139,-3.1894,-3.1227,-3.0514,-3.0048,-2.93,-2.879,-2.9123,-2.9671,-2.9961,-4.3183,-4.2501,-4.2422,-4.1951,-4.1283,-4.1161,-4.1116,-4.1111,-4.1109,-4.1117,-4.1113,-4.1089,-4.1053,-4.0984,-4.0984,-4.1039,-4.1083,-4.1111,-4.1107,0.0,-4.1108,-4.0698,-3.9956,-3.904,-3.8201,-3.7458,-3.6597,-3.6187,-3.6187,-3.6187,-3.5812,-3.5135,-3.4878,-3.4428,-3.3704,-3.353,-3.3099,-3.2396,-3.3215,-3.3934,-3.4478,-3.456,-3.4891,-3.5481,-3.5438,-3.532,-3.5136,-3.4991,-3.4841,-3.4591,-3.3736,-3.3542,-3.4132,-3.2747,-3.1946,-3.1979,-3.1923,-3.1615,-3.1043,-3.2164,-3.3204,-3.3862,-3.4039,-3.4703,-3.6168,-3.6408,-3.651,-3.6564,-3.6846,-3.7026,-3.7088,-3.7947,-3.8279,-3.7842,-3.8528,-3.8741,-3.7936,-3.7787,-3.7576,-3.7046,-3.6407,-3.596,-3.5721,-3.5184,-3.4782,-3.4716,-3.4173,-3.3485,-3.3424,-3.2829,-3.2661,-3.2697,-3.1719,-3.1236,-3.1756,-3.1961,-3.2102,-3.2184,-3.2344,-3.2482,-3.2588,-3.2406,-3.2287,-3.2272,-3.2145,-3.209,-3.2023,-3.1477,-3.0421,-2.9506,-2.8561,-2.7816,-2.725,-2.7198,-2.7707,-4.3273,-4.2895,-4.2529,-4.2126,-4.1714,-4.1289,-4.1113,-4.1112,-4.1112,-4.1101,-4.1115,-4.1113,-4.1059,-4.0974,-4.0541,-4.0359,-4.0372,-3.9936,-3.9754,-3.9743,-3.9743,-3.9528,-3.9099,-3.8279,-3.7672,-3.7243,-3.6402,-3.6012,-3.5973,-3.5525,-3.509,-3.4663,-3.4177,-3.3446,-3.2652,-3.2609,-3.2166,-3.1351,-3.2633,-3.3239,-3.3109,-3.3437,-3.3782,-3.4077,-3.3983,-3.4074,-3.4318,-3.4291,-3.4377,-3.4697,-3.3853,-3.3569,-3.3888,-3.2766,-3.2077,-3.1987,-3.1941,-3.1905,-3.1905,-3.2966,-3.3573,-3.3463,-3.3463,-3.3747,-3.4525,-3.4924,-3.5351,-3.5754,-3.5951,-3.6112,-3.6245,-3.6815,-3.6996,-3.6495,-3.7127,-3.7428,-3.7181,-3.7262,-3.712,-3.657,-3.5716,-3.5011,-3.4583,-3.3719,-3.3152,-3.3155,-3.2723,-3.2449,-3.2362,-3.1704,-3.1455,-3.2017,-3.0995,-3.0448,-3.1027,-3.1205,-3.1413,-3.1867,-3.1992,-3.2035,-3.206,-3.18,-3.1475,-3.1459,-3.1224,-3.0779,-3.0483,-3.0021,-2.9249,-2.8268,-2.7704,-2.7024,-2.6531,-2.6388,-2.6822,-4.3333,-4.3137,-4.2561,-4.2184,-4.1984,-4.1356,-4.1107,-4.1107,-4.1108,-4.1113,-4.1108,-4.1104,-4.0975,-4.0662,-4.0073,-3.9706,-3.9468,-3.8878,-3.8611,-3.8611,-3.8611,-3.8513,-3.8259,-3.7594,-3.7087,-3.6696,-3.6033,-3.5602,-3.5368,-3.4725,-3.4306,-3.4051,-3.3159,-3.2373,-3.1739,-3.1716,-3.137,-3.083,-3.2019,-3.2434,-3.1951,-3.2436,-3.2736,-3.2897,-3.2778,-3.2929,-3.3382,-3.3563,-3.3865,-3.4266,-3.3907,-3.3682,-3.3634,-3.287,-3.235,-3.2286,-3.2056,-3.2244,-3.2957,-3.3596,-3.3733,-3.3324,-3.328,-3.3268,-3.3305,-3.3741,-3.4129,-3.4454,-3.4641,-3.4897,-3.5203,-3.5769,-3.5903,-3.5718,-3.6257,-3.6765,-3.6722,-3.6842,-3.6572,-3.5735,-3.4846,-3.403,-3.3272,-3.2575,-3.2151,-3.1923,-3.1888,-3.1867,-3.1537,-3.0968,-3.0961,-3.1054,-3.031,-2.9735,-3.0307,-3.0439,-3.0702,-3.1379,-3.1262,-3.118,-3.1163,-3.0743,-3.0293,-3.0196,-2.9767,-2.9185,-2.8597,-2.8503,-2.8061,-2.7133,-2.6729,-2.6479,-2.5879,-2.603,-2.6318,-4.298,-4.237,-4.2281,-4.1872,-4.1261,-4.1145,-4.1106,-4.1106,-4.1107,-4.1108,-4.1053,-4.1111,-4.0625,-3.9977,-3.9782,-3.9308,-3.8687,-3.863,-3.8513,-3.8494,-3.8591,-3.8181,-3.7419,-3.7301,-3.6482,-3.5135,-3.4881,-3.4452,-3.3806,-3.361,-3.3108,-3.2311,-3.1397,-3.095,-3.083,-3.0846,-3.0791,-3.0713,-3.0793,-3.1185,-3.1864,-3.179,-3.2103,-3.2872,-3.2688,-3.2566,-3.2539,-3.3167,-3.3523,-3.3561,-3.4113,-3.4451,-3.4339,-3.369,-3.3216,-3.3044,-3.2406,-3.2284,-3.292,-3.3057,-3.3429,-3.4011,-3.4023,-3.4005,-3.4005,-3.4104,-3.353,-3.2641,-3.2853,-3.3549,-3.3596,-3.5015,-3.6017,-3.6285,-3.7014,-3.7678,-3.7279,-3.6873,-3.6007,-3.4851,-3.3976,-3.3255,-3.26,-3.2241,-3.1845,-3.1092,-3.1344,-3.1402,-3.0844,-3.0554,-3.0541,-3.0586,-2.9971,-2.9544,-2.9678,-2.9642,-2.9811,-2.9869,-2.927,-2.9336,-2.9514,-2.8872,-2.7886,-2.8841,-2.8373,-2.7899,-2.7733,-2.7679,-2.7418,-2.6424,-2.592,-2.5591,-2.4762,-2.4976,-2.5619,-4.1682,-4.1388,-4.1441,-4.1332,-4.1106,-4.1113,-4.1103,-4.1046,-4.0559,-4.0325,-4.0266,-3.9798,-3.9634,-3.9687,-3.8261,-3.736,-3.7035,-3.653,-3.6296,-3.6351,-3.68,-3.6584,-3.5837,-3.5779,-3.5096,-3.4003,-3.3925,-3.3749,-3.3355,-3.2892,-3.2188,-3.1386,-3.0882,-3.0694,-3.0694,-3.0694,-3.0694,-3.0694,-3.0633,-3.0732,-3.095,-3.0895,-3.0989,-3.1243,-3.1217,-3.137,-3.1676,-3.1983,-3.2289,-3.2603,-3.2949,-3.31,-3.3118,-3.2799,-3.2825,-3.3189,-3.3381,-3.3318,-3.3135,-3.3552,-3.3757,-3.3627,-3.3589,-3.3589,-3.3589,-3.3191,-3.2385,-3.1562,-3.2728,-3.3904,-3.4182,-3.4936,-3.5543,-3.5866,-3.6231,-3.6365,-3.6124,-3.542,-3.4643,-3.4008,-3.2967,-3.2146,-3.1787,-3.1295,-3.0768,-3.0223,-3.018,-2.9927,-2.9883,-2.9573,-2.9559,-2.9983,-2.9832,-2.9645,-2.9561,-2.956,-2.9373,-2.897,-2.8651,-2.8595,-2.8158,-2.7909,-2.7495,-2.7862,-2.7557,-2.7208,-2.6924,-2.6842,-2.6626,-2.5754,-2.5166,-2.4794,-2.4384,-2.4524,-2.4872,-4.0825,-4.0829,-4.0918,-4.1003,-4.1076,-4.0833,-4.0737,-4.062,-3.9825,-3.9435,-3.9354,-3.851,-3.8473,-3.8769,-3.7109,-3.6113,-3.5597,-3.4974,-3.4563,-3.4442,-3.4989,-3.4946,-3.4375,-3.4334,-3.3905,-3.3162,-3.3046,-3.2908,-3.2652,-3.2095,-3.1408,-3.0872,-3.0727,-3.0694,-3.0694,-3.0694,-3.0694,-3.0706,-3.0633,-3.0525,-3.0407,-3.0339,-3.026,-3.0199,-3.019,-3.0411,-3.0875,-3.1052,-3.1334,-3.1778,-3.1993,-3.2115,-3.2115,-3.2115,-3.2356,-3.2959,-3.3653,-3.3807,-3.3228,-3.3986,-3.4222,-3.3642,-3.3574,-3.3618,-3.3495,-3.3021,-3.2341,-3.1862,-3.3112,-3.4116,-3.4169,-3.4745,-3.512,-3.5162,-3.5123,-3.4988,-3.455,-3.3938,-3.3494,-3.2976,-3.1838,-3.0839,-3.0421,-2.9836,-2.9348,-2.9055,-2.8655,-2.8355,-2.8716,-2.8435,-2.8372,-2.9039,-2.9139,-2.922,-2.9329,-2.9314,-2.8985,-2.8328,-2.7932,-2.7556,-2.7207,-2.7091,-2.6927,-2.6942,-2.696,-2.6752,-2.6225,-2.6008,-2.5964,-2.5213,-2.4738,-2.4553,-2.4459,-2.4401,-2.4339,-4.0848,-4.0912,-4.1038,-4.1033,-4.1036,-4.0195,-3.9864,-3.9786,-3.8925,-3.8555,-3.8435,-3.7592,-3.721,-3.735,-3.7077,-3.6229,-3.4918,-3.4683,-3.4232,-3.3582,-3.3582,-3.3521,-3.3476,-3.3455,-3.3006,-3.2207,-3.2148,-3.1777,-3.1053,-3.094,-3.086,-3.0796,-3.0743,-3.0694,-3.0694,-3.0694,-3.0694,-3.0687,-3.0637,-3.0549,-3.0413,-3.0339,-3.0267,-3.0206,-3.0147,-3.0141,-3.0243,-3.0705,-3.1015,-3.1044,-3.1628,-3.2029,-3.2048,-3.2048,-3.2074,-3.2221,-3.2857,-3.3246,-3.3298,-3.4014,-3.4451,-3.4337,-3.4346,-3.459,-3.4514,-3.421,-3.3783,-3.3583,-3.3411,-3.3354,-3.3026,-3.4258,-3.4976,-3.4582,-3.4475,-3.4085,-3.3186,-3.3064,-3.2492,-3.1663,-3.0686,-2.9678,-2.833,-2.8037,-2.8076,-2.7899,-2.7733,-2.7713,-2.7596,-2.7547,-2.7597,-2.7754,-2.7883,-2.7987,-2.8621,-2.8753,-2.8335,-2.768,-2.7036,-2.6487,-2.6469,-2.6408,-2.6201,-2.5983,-2.5857,-2.5658,-2.5377,-2.5263,-2.5253,-2.498,-2.4921,-2.4794,-2.4551,-2.4508,-2.4451,-4.0848,-4.0854,-4.0389,-4.0231,-4.0172,-3.9337,-3.8964,-3.8886,-3.7991,-3.7615,-3.7452,-3.6658,-3.6317,-3.6352,-3.6372,-3.5771,-3.4705,-3.412,-3.3689,-3.3391,-3.3391,-3.3094,-3.2597,-3.2558,-3.2109,-3.1387,-3.125,-3.1114,-3.0837,-3.0784,-3.0801,-3.0772,-3.0743,-3.0694,-3.0694,-3.0694,-3.0694,-3.071,-3.0692,-3.061,-3.052,-3.0422,-3.0314,-3.0273,-3.0199,-3.0128,-3.0102,-3.0243,-3.0275,-3.0223,-3.0452,-3.0565,-3.0621,-3.1053,-3.1325,-3.1418,-3.2073,-3.2545,-3.2712,-3.3025,-3.3497,-3.4036,-3.4147,-3.4438,-3.4734,-3.4414,-3.3795,-3.3236,-3.3131,-3.2793,-3.2485,-3.3538,-3.452,-3.4425,-3.4374,-3.3939,-3.3088,-3.2503,-3.1815,-3.0765,-2.9611,-2.8496,-2.8068,-2.7957,-2.7913,-2.7689,-2.725,-2.7114,-2.7298,-2.7082,-2.6906,-2.7496,-2.7704,-2.7654,-2.7431,-2.7847,-2.7717,-2.7022,-2.641,-2.6024,-2.5873,-2.5734,-2.5539,-2.5602,-2.5313,-2.5262,-2.5229,-2.5229,-2.5119,-2.5019,-2.4966,-2.4851,-2.4599,-2.4551,-2.4486,-4.002,-3.9976,-3.9501,-3.9303,-3.9227,-3.841,-3.804,-3.7939,-3.7078,-3.6681,-3.6534,-3.6028,-3.5813,-3.5819,-3.5585,-3.5211,-3.4668,-3.4082,-3.3515,-3.3003,-3.2983,-3.2511,-3.1799,-3.168,-3.1368,-3.082,-3.0509,-3.0411,-3.035,-3.011,-3.0111,-3.0341,-3.032,-3.0464,-3.0652,-3.0711,-3.0704,-3.0697,-3.0694,-3.0665,-3.06,-3.0492,-3.0427,-3.0339,-3.0254,-3.0187,-3.014,-3.003,-2.9924,-2.9832,-2.9764,-2.9719,-2.9767,-3.0208,-3.0518,-3.0574,-3.126,-3.1798,-3.2021,-3.227,-3.2762,-3.3401,-3.3555,-3.3918,-3.4653,-3.4244,-3.37,-3.3338,-3.325,-3.3031,-3.281,-3.3305,-3.3714,-3.3619,-3.3557,-3.3177,-3.2284,-3.1457,-3.0452,-2.9224,-2.8232,-2.7553,-2.7252,-2.7157,-2.705,-2.7005,-2.6491,-2.6446,-2.664,-2.6485,-2.6222,-2.691,-2.6925,-2.6737,-2.6558,-2.6704,-2.6779,-2.6197,-2.6015,-2.5627,-2.5418,-2.5221,-2.5151,-2.5193,-2.521,-2.5216,-2.5216,-2.5203,-2.5131,-2.5025,-2.4986,-2.49,-2.4719,-2.4572,-2.4439,-3.8384,-3.8418,-3.8373,-3.8399,-3.8268,-3.7467,-3.7085,-3.6953,-3.6226,-3.5911,-3.5926,-3.5751,-3.5737,-3.5632,-3.4991,-3.4596,-3.4551,-3.4434,-3.3613,-3.234,-3.2145,-3.1671,-3.0938,-3.0937,-3.0859,-3.0644,-2.9982,-2.9631,-2.9552,-2.8892,-2.8842,-2.9445,-2.962,-3.0019,-3.07,-3.0697,-3.0704,-3.0701,-3.0694,-3.0665,-3.0608,-3.0595,-3.0516,-3.0407,-3.0333,-3.0273,-3.0192,-3.0132,-3.003,-2.9916,-2.9851,-2.9755,-2.972,-2.9777,-2.9739,-2.9898,-3.049,-3.0913,-3.1185,-3.1916,-3.2363,-3.269,-3.2794,-3.3256,-3.3968,-3.3973,-3.3898,-3.4039,-3.3953,-3.3938,-3.3828,-3.3339,-3.2782,-3.2043,-3.2179,-3.1748,-3.0782,-2.9843,-2.8683,-2.7331,-2.6799,-2.6358,-2.5797,-2.5778,-2.5837,-2.5711,-2.5633,-2.5636,-2.5712,-2.5668,-2.5564,-2.5634,-2.5893,-2.5986,-2.5747,-2.5529,-2.5492,-2.5419,-2.5447,-2.5321,-2.5321,-2.5208,-2.5185,-2.5208,-2.5214,-2.5214,-2.5206,-2.5206,-2.516,-2.5075,-2.5013,-2.475,-2.4437,-2.4193,-2.423,-3.825,-3.8228,-3.7667,-3.7462,-3.7392,-3.6576,-3.6203,-3.6198,-3.5842,-3.5727,-3.5732,-3.5706,-3.5426,-3.4976,-3.4636,-3.4261,-3.3828,-3.3769,-3.3163,-3.2145,-3.1539,-3.1164,-3.0861,-3.0781,-3.0509,-3.0021,-2.9729,-2.9259,-2.873,-2.8348,-2.8631,-2.9349,-2.9468,-2.9929,-3.0586,-3.0703,-3.0707,-3.0697,-3.0694,-3.0683,-3.0661,-3.064,-3.0591,-3.0535,-3.0392,-3.0292,-3.0273,-3.0164,-3.0087,-3.0011,-2.9874,-2.9764,-2.971,-2.9701,-2.9701,-2.9739,-3.0017,-3.0267,-3.0441,-3.0841,-3.1474,-3.1954,-3.2164,-3.2619,-3.3359,-3.3445,-3.345,-3.3475,-3.3006,-3.2628,-3.2479,-3.1879,-3.1797,-3.2585,-3.2159,-3.1173,-2.9824,-2.847,-2.7421,-2.6803,-2.6223,-2.5778,-2.5584,-2.5507,-2.5495,-2.5451,-2.5472,-2.5468,-2.5459,-2.5468,-2.5488,-2.5507,-2.5519,-2.5515,-2.552,-2.5538,-2.5524,-2.5456,-2.5389,-2.5313,-2.5292,-2.525,-2.5228,-2.5212,-2.5217,-2.5146,-2.5157,-2.5174,-2.5141,-2.4809,-2.4518,-2.4197,-2.3855,-2.3666,-2.3542,-3.7312,-3.7267,-3.6744,-3.6546,-3.6522,-3.5979,-3.5766,-3.5761,-3.5733,-3.5718,-3.5669,-3.5377,-3.4998,-3.4442,-3.3943,-3.3407,-3.293,-3.2656,-3.2167,-3.1735,-3.1539,-3.1164,-3.0803,-3.045,-3.0138,-2.9534,-2.8929,-2.8363,-2.7815,-2.7495,-2.772,-2.8434,-2.856,-2.8948,-2.9736,-3.0097,-3.0237,-3.025,-3.0538,-3.0694,-3.0687,-3.0657,-3.0637,-3.0621,-3.0501,-3.0439,-3.0403,-3.0286,-3.0173,-3.0076,-2.991,-2.9773,-2.972,-2.9747,-2.9764,-2.9808,-2.994,-3.009,-3.0196,-3.041,-3.0655,-3.1288,-3.1443,-3.1805,-3.2503,-3.274,-3.2813,-3.3018,-3.2763,-3.2367,-3.2251,-3.155,-3.1623,-3.2449,-3.1811,-3.0636,-2.9031,-2.7576,-2.6629,-2.6261,-2.5816,-2.5565,-2.5507,-2.5507,-2.5507,-2.5507,-2.5507,-2.5507,-2.5511,-2.5515,-2.5519,-2.5507,-2.5518,-2.552,-2.5541,-2.5573,-2.5602,-2.5564,-2.5513,-2.5412,-2.5346,-2.5293,-2.5282,-2.5225,-2.5215,-2.4861,-2.4809,-2.5048,-2.5086,-2.4588,-2.4005,-2.3992,-2.373,-2.2823,-2.2726,-3.5718,-3.5704,-3.5729,-3.5767,-3.5792,-3.5715,-3.5643,-3.5574,-3.5574,-3.5477,-3.5305,-3.4697,-3.434,-3.3977,-3.2915,-3.2317,-3.1992,-3.1464,-3.1132,-3.1208,-3.1441,-3.1397,-3.0588,-2.9865,-2.9397,-2.9026,-2.7837,-2.7095,-2.6899,-2.6291,-2.6131,-2.7132,-2.7284,-2.754,-2.8595,-2.9185,-2.9635,-2.9823,-3.0364,-3.0694,-3.0694,-3.071,-3.071,-3.0706,-3.0625,-3.0582,-3.0549,-3.0432,-3.0291,-3.0113,-2.9916,-2.9808,-2.9765,-2.9841,-2.9905,-2.9921,-3.0092,-3.0235,-3.035,-3.0422,-3.0525,-3.0718,-3.0843,-3.1014,-3.1713,-3.2051,-3.2384,-3.2944,-3.2954,-3.2951,-3.2763,-3.2072,-3.1681,-3.1599,-3.1004,-2.9805,-2.8257,-2.7252,-2.6474,-2.5797,-2.5526,-2.5507,-2.5507,-2.5507,-2.5507,-2.5511,-2.5515,-2.5511,-2.5523,-2.5515,-2.5518,-2.551,-2.552,-2.5554,-2.5573,-2.5583,-2.5609,-2.5589,-2.5551,-2.5487,-2.5395,-2.5337,-2.5307,-2.5257,-2.5165,-2.4772,-2.4518,-2.473,-2.4467,-2.3794,-2.3618,-2.384,-2.3283,-2.2215,-2.219,-3.5608,-3.5704,-3.5704,-3.5704,-3.5704,-3.5704,-3.5298,-3.4781,-3.4761,-3.4408,-3.3897,-3.3688,-3.3293,-3.2657,-3.2368,-3.1874,-3.1348,-3.1034,-3.0859,-3.0859,-3.107,-3.0712,-2.9885,-2.9025,-2.8324,-2.7738,-2.723,-2.6665,-2.6059,-2.5825,-2.613,-2.6976,-2.6954,-2.7675,-2.8999,-2.926,-2.981,-3.0289,-3.0519,-3.0694,-3.0694,-3.0694,-3.0694,-3.0687,-3.0653,-3.0604,-3.0591,-3.0487,-3.0308,-3.0123,-2.9988,-2.9929,-2.9874,-2.9973,-3.0052,-3.008,-3.0235,-3.0358,-3.0414,-3.0535,-3.0645,-3.0669,-3.0688,-3.08,-3.0978,-3.1619,-3.2019,-3.2299,-3.2251,-3.2234,-3.2095,-3.1468,-3.1004,-3.081,-3.023,-2.9268,-2.8165,-2.7252,-2.6397,-2.5681,-2.5526,-2.5507,-2.5507,-2.5515,-2.5515,-2.5503,-2.5517,-2.5518,-2.5524,-2.5544,-2.5564,-2.5538,-2.5541,-2.557,-2.5599,-2.5609,-2.5598,-2.5604,-2.5576,-2.5518,-2.543,-2.5351,-2.5322,-2.5282,-2.5273,-2.4975,-2.4466,-2.4284,-2.3661,-2.3168,-2.2767,-2.2713,-2.2079,-2.1267,-2.1756,-3.554,-3.5581,-3.5287,-3.5168,-3.5085,-3.4775,-3.4331,-3.3924,-3.3847,-3.3596,-3.3108,-3.2799,-3.2455,-3.1997,-3.1721,-3.1366,-3.0957,-3.0917,-3.0878,-3.0703,-3.0111,-2.9732,-2.93,-2.842,-2.7484,-2.7016,-2.6626,-2.6196,-2.5786,-2.5687,-2.5971,-2.6286,-2.6399,-2.6942,-2.7651,-2.864,-2.9117,-2.9625,-3.0243,-3.0694,-3.0694,-3.0694,-3.0694,-3.071,-3.0677,-3.0641,-3.0633,-3.0482,-3.0317,-3.0189,-3.0128,-3.0099,-3.006,-3.0162,-3.0216,-3.0228,-3.0419,-3.0521,-3.0535,-3.0633,-3.0692,-3.0695,-3.0706,-3.071,-3.0791,-3.1195,-3.1441,-3.141,-3.1382,-3.1362,-3.1282,-3.0872,-3.066,-3.054,-2.9824,-2.8958,-2.8088,-2.6884,-2.6107,-2.5642,-2.5507,-2.5507,-2.5511,-2.5518,-2.5517,-2.5518,-2.5532,-2.5546,-2.5547,-2.5579,-2.5604,-2.557,-2.5557,-2.5586,-2.5598,-2.561,-2.5624,-2.5609,-2.5599,-2.5546,-2.532,-2.5232,-2.5067,-2.5038,-2.5173,-2.4923,-2.4005,-2.3463,-2.3446,-2.2899,-2.2193,-2.1925,-2.1702,-2.1435,-2.1819,-3.5213,-3.5156,-3.4538,-3.4267,-3.4146,-3.3455,-3.3146,-3.2972,-3.2952,-3.2875,-3.259,-3.2027,-3.1774,-3.1826,-3.1198,-3.0851,-3.0898,-3.0879,-3.0898,-3.039,-2.9508,-2.8819,-2.9363,-2.768,-2.69,-2.6646,-2.602,-2.5805,-2.5687,-2.5687,-2.5673,-2.5749,-2.5701,-2.5738,-2.6543,-2.7491,-2.8107,-2.878,-3.0033,-3.0674,-3.0694,-3.0694,-3.0694,-3.071,-3.071,-3.0683,-3.0645,-3.0527,-3.0399,-3.0278,-3.0278,-3.0247,-3.0235,-3.0333,-3.0409,-3.0436,-3.0573,-3.0665,-3.0677,-3.0692,-3.071,-3.071,-3.071,-3.0694,-3.0733,-3.083,-3.0846,-3.0862,-3.0653,-3.0741,-3.072,-3.0621,-3.0602,-3.0462,-2.9824,-2.8977,-2.8088,-2.6652,-2.5604,-2.5511,-2.5515,-2.5523,-2.5522,-2.5506,-2.5513,-2.5546,-2.5563,-2.5589,-2.5576,-2.56,-2.5603,-2.5592,-2.5592,-2.5601,-2.5596,-2.5609,-2.5627,-2.5637,-2.5603,-2.5504,-2.5121,-2.4927,-2.4692,-2.4576,-2.4456,-2.3654,-2.2442,-2.2312,-2.2766,-2.2495,-2.1714,-2.2191,-2.2651,-2.2322,-2.2404,-3.3274,-3.3358,-3.3318,-3.3296,-3.3288,-3.3163,-3.2701,-3.2082,-3.2082,-3.1773,-3.1235,-3.0983,-3.093,-3.0918,-3.0847,-3.0804,-3.0809,-3.0832,-3.0814,-3.0578,-2.902,-2.8789,-2.8846,-2.716,-2.6119,-2.6001,-2.5845,-2.5687,-2.5687,-2.5688,-2.5676,-2.5609,-2.5648,-2.5946,-2.6617,-2.7479,-2.8478,-2.9146,-3.0157,-3.0658,-3.0701,-3.0697,-3.0697,-3.0697,-3.0697,-3.0694,-3.071,-3.0653,-3.0614,-3.0574,-3.0453,-3.0372,-3.0386,-3.0472,-3.0539,-3.0572,-3.0625,-3.07,-3.0704,-3.0699,-3.0694,-3.0694,-3.0694,-3.0694,-3.0694,-3.0694,-3.0694,-3.0687,-3.0634,-3.0617,-3.0601,-3.0607,-3.0617,-3.0424,-2.9766,-2.9152,-2.8765,-2.7441,-2.6242,-2.5732,-2.5543,-2.5518,-2.5522,-2.5564,-2.5572,-2.5584,-2.56,-2.5633,-2.5627,-2.5616,-2.56,-2.561,-2.5607,-2.5599,-2.5612,-2.561,-2.5654,-2.564,-2.5628,-2.5537,-2.514,-2.4601,-2.4373,-2.3983,-2.3571,-2.2639,-2.1904,-2.1794,-2.2388,-2.1816,-2.1501,-2.2034,-2.2486,-2.2548,-2.2994,-3.2661,-3.2678,-3.2404,-3.2288,-3.2249,-3.1954,-3.1562,-3.1205,-3.1221,-3.1004,-3.0684,-3.0617,-3.0614,-3.062,-3.0667,-3.072,-3.076,-3.0749,-3.0768,-3.0396,-2.9081,-2.8488,-2.8356,-2.6973,-2.5855,-2.6142,-2.5871,-2.5733,-2.5692,-2.5697,-2.5696,-2.5651,-2.5636,-2.5794,-2.6466,-2.7493,-2.8318,-2.8946,-3.0085,-3.0697,-3.0697,-3.0704,-3.0698,-3.0698,-3.0698,-3.0711,-3.0694,-3.069,-3.0691,-3.0678,-3.0605,-3.0543,-3.0528,-3.0597,-3.0641,-3.0665,-3.0684,-3.0695,-3.0703,-3.0706,-3.0694,-3.0694,-3.0694,-3.0694,-3.0694,-3.0694,-3.0694,-3.0683,-3.0653,-3.0608,-3.0602,-3.0617,-3.0598,-3.0346,-2.9442,-2.8765,-2.8489,-2.7503,-2.659,-2.6064,-2.5748,-2.5589,-2.5532,-2.5591,-2.5637,-2.5644,-2.564,-2.5662,-2.562,-2.5608,-2.5598,-2.5603,-2.5609,-2.5612,-2.5608,-2.563,-2.5676,-2.5658,-2.5632,-2.5517,-2.5271,-2.4654,-2.4036,-2.3636,-2.3259,-2.2951,-2.2342,-2.223,-2.219,-2.2184,-2.2185,-2.2168,-2.2484,-2.3202,-2.3627,-3.2183,-3.2141,-3.1546,-3.1288,-3.1193,-3.07,-3.0483,-3.0447,-3.051,-3.0641,-3.0617,-3.0617,-3.0613,-3.0607,-3.0616,-3.0655,-3.0669,-3.0709,-3.0728,-3.0524,-2.8984,-2.8511,-2.8107,-2.6889,-2.6113,-2.6809,-2.6111,-2.572,-2.5701,-2.5703,-2.5703,-2.5696,-2.5699,-2.5738,-2.6044,-2.7093,-2.8068,-2.846,-2.9684,-3.0577,-3.0691,-3.0733,-3.0723,-3.0697,-3.0717,-3.0706,-3.071,-3.0713,-3.0734,-3.0711,-3.0715,-3.0708,-3.0707,-3.0713,-3.0706,-3.0706,-3.0727,-3.0737,-3.0717,-3.0711,-3.0704,-3.0701,-3.0694,-3.0694,-3.0694,-3.0694,-3.0704,-3.0681,-3.0664,-3.0614,-3.0616,-3.0346,-3.0346,-3.0075,-2.89,-2.8154,-2.7876,-2.7253,-2.6719,-2.6308,-2.5865,-2.5607,-2.5593,-2.5624,-2.5676,-2.5702,-2.5701,-2.568,-2.5641,-2.5605,-2.5627,-2.5603,-2.5615,-2.5628,-2.5638,-2.5632,-2.5692,-2.5693,-2.565,-2.5442,-2.5254,-2.4658,-2.4002,-2.3486,-2.3086,-2.2836,-2.2765,-2.27,-2.2696,-2.281,-2.2935,-2.2985,-2.3416,-2.3987,-2.4158,-3.0346,-3.0362,-3.0334,-3.0348,-3.0343,-3.0311,-3.0342,-3.0392,-3.0409,-3.05,-3.0593,-3.0617,-3.0607,-3.0604,-3.061,-3.0603,-3.0542,-3.0597,-3.0619,-3.0321,-2.9024,-2.8546,-2.837,-2.6881,-2.6286,-2.6561,-2.615,-2.5702,-2.5703,-2.5701,-2.5702,-2.5703,-2.5703,-2.5683,-2.5917,-2.6674,-2.7573,-2.8085,-2.9151,-2.9938,-3.0516,-3.0744,-3.0765,-3.0714,-3.0735,-3.0735,-3.0728,-3.0749,-3.0789,-3.0794,-3.08,-3.0799,-3.0771,-3.0774,-3.0774,-3.0755,-3.0772,-3.0757,-3.0755,-3.0734,-3.07,-3.0707,-3.0704,-3.0707,-3.0704,-3.0704,-3.0716,-3.0692,-3.0684,-3.0658,-3.058,-3.0174,-2.9659,-2.9311,-2.8782,-2.8051,-2.7909,-2.7255,-2.6465,-2.5974,-2.5722,-2.5641,-2.5631,-2.564,-2.5684,-2.5702,-2.5697,-2.5697,-2.5683,-2.5661,-2.5658,-2.5627,-2.5611,-2.5647,-2.5686,-2.5675,-2.5704,-2.5703,-2.5599,-2.5304,-2.5033,-2.4569,-2.4045,-2.3895,-2.3401,-2.2979,-2.2953,-2.3151,-2.3345,-2.3528,-2.3683,-2.3824,-2.4037,-2.4253,-2.4166,-2.9916,-2.9897,-2.998,-2.9984,-3.0007,-3.0138,-3.0214,-3.026,-3.0352,-3.0419,-3.05,-3.0579,-3.0617,-3.0612,-3.06,-3.0397,-3.0094,-3.049,-3.0164,-2.9408,-2.8982,-2.8396,-2.831,-2.6767,-2.638,-2.6244,-2.5875,-2.569,-2.5698,-2.5705,-2.5691,-2.5698,-2.5699,-2.5696,-2.5893,-2.6541,-2.7107,-2.7749,-2.8418,-2.9256,-3.0133,-3.0502,-3.0765,-3.0778,-3.0777,-3.0778,-3.0771,-3.0777,-3.0793,-3.0798,-3.08,-3.0801,-3.0801,-3.0801,-3.0796,-3.076,-3.0753,-3.0752,-3.0732,-3.0725,-3.0723,-3.0753,-3.0741,-3.0754,-3.075,-3.0752,-3.0735,-3.0704,-3.0708,-3.0704,-3.0645,-3.0212,-3.0086,-2.9791,-2.8876,-2.8175,-2.7807,-2.6922,-2.6258,-2.572,-2.5665,-2.5677,-2.5642,-2.5644,-2.5677,-2.569,-2.5688,-2.5696,-2.5702,-2.5683,-2.5683,-2.5661,-2.5633,-2.5665,-2.5701,-2.5703,-2.5688,-2.5687,-2.5645,-2.5353,-2.5196,-2.4895,-2.4871,-2.4842,-2.4211,-2.3383,-2.3749,-2.4149,-2.4204,-2.4243,-2.4371,-2.4448,-2.4421,-2.4419,-2.4372,-2.9864,-2.9916,-2.9916,-2.9916,-2.9913,-3.0007,-3.0079,-3.0118,-3.0267,-3.0346,-3.04,-3.0474,-3.0544,-3.0491,-3.0259,-2.9878,-2.9279,-2.9878,-2.9199,-2.8542,-2.8424,-2.7992,-2.7245,-2.6632,-2.6309,-2.5866,-2.5747,-2.5704,-2.5702,-2.5705,-2.5705,-2.5697,-2.5692,-2.5692,-2.5876,-2.6289,-2.671,-2.7202,-2.7582,-2.843,-2.9449,-3.0311,-3.0801,-3.08,-3.0801,-3.08,-3.0797,-3.08,-3.08,-3.0796,-3.0791,-3.0787,-3.0796,-3.0794,-3.0768,-3.0722,-3.0703,-3.0721,-3.0721,-3.0718,-3.0753,-3.0789,-3.0788,-3.0785,-3.0783,-3.0778,-3.0783,-3.0739,-3.0721,-3.0714,-3.0673,-3.0475,-3.0236,-2.9783,-2.8848,-2.7999,-2.756,-2.6946,-2.642,-2.6033,-2.5839,-2.5703,-2.5663,-2.5662,-2.5691,-2.5707,-2.5704,-2.5704,-2.5694,-2.5694,-2.5677,-2.5664,-2.5662,-2.5677,-2.5692,-2.5706,-2.5688,-2.5687,-2.5685,-2.5538,-2.5524,-2.5469,-2.5434,-2.5299,-2.4756,-2.4142,-2.4639,-2.4918,-2.4807,-2.4804,-2.5,-2.5011,-2.4816,-2.4791,-2.4784,-2.9734,-2.9888,-2.9888,-2.9916,-2.9888,-2.9913,-3.0003,-3.0101,-3.0126,-3.0207,-3.0311,-3.033,-3.0343,-3.0195,-2.9542,-2.9196,-2.8966,-2.8668,-2.8352,-2.7869,-2.7656,-2.7424,-2.6799,-2.6106,-2.6106,-2.5874,-2.5816,-2.5701,-2.5769,-2.5779,-2.5701,-2.5692,-2.5699,-2.5697,-2.5725,-2.5923,-2.625,-2.6867,-2.7123,-2.7972,-2.9372,-3.0342,-3.072,-3.0799,-3.0795,-3.0791,-3.0795,-3.0787,-3.0767,-3.0767,-3.0796,-3.079,-3.0784,-3.0795,-3.0791,-3.0796,-3.0782,-3.0798,-3.0779,-3.0761,-3.0781,-3.08,-3.0795,-3.0786,-3.0792,-3.0798,-3.0798,-3.0801,-3.0773,-3.0756,-3.059,-3.0066,-2.9333,-2.8941,-2.8594,-2.7847,-2.7315,-2.6736,-2.6248,-2.6148,-2.5893,-2.5774,-2.5693,-2.569,-2.5706,-2.5703,-2.5701,-2.5699,-2.5698,-2.5697,-2.5702,-2.5677,-2.5682,-2.5684,-2.5683,-2.568,-2.5697,-2.5694,-2.5692,-2.5668,-2.564,-2.5629,-2.5613,-2.5377,-2.4924,-2.4781,-2.5058,-2.5207,-2.5225,-2.524,-2.5253,-2.519,-2.509,-2.5101,-2.4996,-2.8249,-2.8885,-2.901,-2.9328,-2.9742,-2.9847,-2.9929,-2.9984,-3.0079,-3.013,-3.0206,-3.0273,-3.0312,-3.0107,-2.9397,-2.9014,-2.8912,-2.8567,-2.7934,-2.769,-2.7621,-2.7611,-2.6992,-2.6569,-2.6398,-2.6314,-2.6375,-2.6413,-2.6257,-2.5918,-2.5701,-2.5724,-2.571,-2.5697,-2.5795,-2.5719,-2.5912,-2.6433,-2.717,-2.8262,-2.9402,-3.0292,-3.0791,-3.078,-3.0767,-3.0769,-3.0753,-3.0686,-3.0661,-3.067,-3.067,-3.0689,-3.0686,-3.0684,-3.0709,-3.0801,-3.0723,-3.0724,-3.0783,-3.0796,-3.0787,-3.0791,-3.0797,-3.0798,-3.0799,-3.0798,-3.0796,-3.08,-3.0799,-3.078,-3.0762,-3.0428,-3.0092,-2.9564,-2.8666,-2.8082,-2.7402,-2.6456,-2.5992,-2.5991,-2.5969,-2.5789,-2.5651,-2.5675,-2.5676,-2.5698,-2.5694,-2.569,-2.5704,-2.5697,-2.5687,-2.5702,-2.5692,-2.5698,-2.5681,-2.5663,-2.5684,-2.5683,-2.5703,-2.5682,-2.5675,-2.5647,-2.5638,-2.563,-2.5419,-2.5389,-2.5483,-2.5426,-2.5375,-2.5389,-2.5421,-2.5336,-2.5226,-2.473,-2.4657,-2.6583,-2.7372,-2.8026,-2.8558,-2.898,-2.9554,-2.9679,-2.9553,-2.9834,-3.0,-3.0072,-3.0145,-3.0199,-3.0015,-2.9358,-2.8905,-2.8893,-2.8747,-2.7977,-2.7685,-2.7894,-2.8004,-2.7472,-2.7151,-2.7026,-2.6887,-2.7059,-2.6944,-2.6663,-2.6481,-2.6317,-2.6,-2.611,-2.6061,-2.6087,-2.6355,-2.6619,-2.6714,-2.7894,-2.88,-2.948,-3.0267,-3.0642,-3.0706,-3.0682,-3.0665,-3.0652,-3.0571,-3.0528,-3.0536,-3.0529,-3.0548,-3.0537,-3.056,-3.0598,-3.0646,-3.062,-3.062,-3.0703,-3.0755,-3.0774,-3.0792,-3.0785,-3.0801,-3.0803,-3.0798,-3.0771,-3.0776,-3.0774,-3.0771,-3.0757,-3.0735,-3.0233,-2.9706,-2.9079,-2.8513,-2.7847,-2.6843,-2.6203,-2.6217,-2.6098,-2.5669,-2.5595,-2.5632,-2.5662,-2.569,-2.5689,-2.5701,-2.5692,-2.5701,-2.5685,-2.5681,-2.5672,-2.566,-2.5661,-2.5648,-2.5654,-2.5658,-2.5678,-2.5681,-2.5664,-2.5682,-2.5677,-2.5694,-2.5692,-2.5651,-2.5578,-2.5546,-2.5505,-2.5475,-2.5471,-2.5494,-2.5293,-2.4763,-2.4562,-2.5098,-2.5272,-2.7179,-2.7613,-2.7289,-2.8923,-2.9165,-2.8684,-2.9315,-2.9705,-2.9853,-2.9913,-2.9913,-2.972,-2.9178,-2.8749,-2.8742,-2.7971,-2.7738,-2.7657,-2.7667,-2.7934,-2.7759,-2.7707,-2.7499,-2.7129,-2.7504,-2.7419,-2.7093,-2.7495,-2.7183,-2.6832,-2.6812,-2.6814,-2.6957,-2.7252,-2.764,-2.784,-2.8752,-2.9188,-2.9594,-3.011,-3.0571,-3.055,-3.0524,-3.0491,-3.0424,-3.0404,-3.0394,-3.0409,-3.0414,-3.0399,-3.04,-3.0419,-3.0448,-3.0522,-3.0505,-3.0509,-3.0575,-3.0682,-3.0793,-3.0796,-3.0783,-3.0765,-3.0764,-3.0728,-3.0717,-3.0713,-3.0713,-3.0713,-3.0726,-3.0666,-3.0229,-2.9739,-2.9242,-2.8746,-2.8032,-2.714,-2.6587,-2.6539,-2.6203,-2.5659,-2.5499,-2.5539,-2.5589,-2.5623,-2.5646,-2.5656,-2.5679,-2.5671,-2.5663,-2.5652,-2.5625,-2.5609,-2.5619,-2.5609,-2.5602,-2.5614,-2.564,-2.5667,-2.5675,-2.5681,-2.5683,-2.5703,-2.5702,-2.5675,-2.5661,-2.5614,-2.558,-2.5532,-2.5496,-2.5454,-2.542,-2.5092,-2.5011,-2.3696,-2.4034,-2.5259,-2.6114,-2.6755,-2.804,-2.8464,-2.8297,-2.8549,-2.9026,-2.9486,-2.9542,-2.9608,-2.9436,-2.8962,-2.889,-2.9244,-2.8597,-2.835,-2.8354,-2.8409,-2.8477,-2.8448,-2.821,-2.7923,-2.8007,-2.8349,-2.8322,-2.7988,-2.827,-2.8316,-2.8043,-2.7696,-2.7543,-2.7697,-2.7986,-2.833,-2.8764,-2.916,-2.9446,-3.0072,-3.0234,-3.0494,-3.0429,-3.0375,-3.0392,-3.0378,-3.0266,-3.026,-3.0266,-3.0272,-3.0239,-3.0257,-3.0257,-3.0315,-3.0418,-3.0392,-3.0416,-3.0482,-3.0556,-3.0625,-3.0682,-3.0667,-3.0672,-3.0699,-3.0667,-3.0639,-3.0636,-3.0636,-3.0636,-3.0664,-3.0656,-3.0411,-2.9863,-2.9347,-2.8882,-2.8171,-2.7271,-2.6738,-2.6571,-2.6041,-2.5453,-2.542,-2.5444,-2.549,-2.5561,-2.5586,-2.5608,-2.5632,-2.563,-2.5598,-2.5593,-2.5588,-2.5586,-2.5593,-2.5578,-2.5547,-2.5565,-2.5603,-2.5597,-2.5627,-2.5629,-2.564,-2.5673,-2.5682,-2.5684,-2.5662,-2.5657,-2.5642,-2.5586,-2.5451,-2.5312,-2.5299,-2.5323,-2.5296,-2.2853,-2.3209,-2.3904,-2.4771,-2.5783,-2.6998,-2.7436,-2.7301,-2.7524,-2.7923,-2.8534,-2.8771,-2.9013,-2.897,-2.8952,-2.8961,-2.938,-2.9115,-2.894,-2.8923,-2.896,-2.9064,-2.8907,-2.868,-2.846,-2.876,-2.8951,-2.8833,-2.8267,-2.879,-2.8905,-2.8793,-2.8606,-2.8411,-2.8365,-2.8603,-2.898,-2.9385,-2.9544,-2.9646,-3.0254,-3.0213,-3.0145,-3.0075,-2.9997,-2.9968,-2.9968,-2.9885,-2.9837,-2.9858,-2.9897,-2.9962,-3.0018,-3.0095,-3.0157,-3.0247,-3.0284,-3.0297,-3.0384,-3.0467,-3.05,-3.056,-3.0595,-3.0609,-3.0602,-3.0591,-3.056,-3.056,-3.0579,-3.0576,-3.0579,-3.059,-3.0319,-2.9765,-2.9426,-2.8947,-2.8175,-2.7366,-2.6914,-2.6544,-2.5909,-2.5293,-2.5302,-2.5314,-2.536,-2.5431,-2.5489,-2.5525,-2.5554,-2.5549,-2.5531,-2.5534,-2.5562,-2.557,-2.5573,-2.556,-2.5525,-2.5537,-2.5543,-2.5542,-2.5554,-2.558,-2.56,-2.5629,-2.5646,-2.5655,-2.5658,-2.564,-2.5643,-2.5632,-2.5509,-2.541,-2.5414,-2.5444,-2.5327,-2.2691,-2.2816,-2.3463,-2.3786,-2.4084,-2.5692,-2.6048,-2.5685,-2.6252,-2.6669,-2.695,-2.7684,-2.8138,-2.8317,-2.8724,-2.9186,-2.9262,-2.9263,-2.9219,-2.9221,-2.9223,-2.9277,-2.925,-2.9092,-2.879,-2.8475,-2.8765,-2.8867,-2.824,-2.8914,-2.9233,-2.9223,-2.9025,-2.9083,-2.9211,-2.9979,-3.0316,-3.0217,-3.0023,-2.9923,-2.9851,-2.9772,-2.967,-2.9594,-2.9568,-2.9568,-2.9532,-2.9514,-2.9486,-2.9495,-2.9485,-2.9561,-2.9687,-2.9724,-2.9834,-3.0026,-3.009,-3.0138,-3.0219,-3.0367,-3.0404,-3.0438,-3.0438,-3.055,-3.0567,-3.0546,-3.0496,-3.0477,-3.0467,-3.0472,-3.0509,-3.0481,-3.0102,-2.9869,-2.9549,-2.9057,-2.8307,-2.7462,-2.6983,-2.6335,-2.569,-2.5187,-2.5193,-2.5206,-2.525,-2.5292,-2.5374,-2.5418,-2.5466,-2.5459,-2.5433,-2.5471,-2.5498,-2.5494,-2.5499,-2.5526,-2.5511,-2.5522,-2.5505,-2.5518,-2.5526,-2.5543,-2.5569,-2.5595,-2.559,-2.5603,-2.5616,-2.5609,-2.5615,-2.5624,-2.5672,-2.561,-2.5615,-2.5556,-2.5465,-2.1861,-2.2068,-2.2303,-2.2648,-2.32,-2.4437,-2.4783,-2.4688,-2.5354,-2.5779,-2.602,-2.6905,-2.735,-2.7657,-2.8466,-2.9027,-2.8994,-2.9254,-2.9304,-2.9272,-2.9212,-2.9295,-2.9266,-2.9138,-2.9,-2.8884,-2.9069,-2.8972,-2.861,-2.895,-2.8961,-2.8957,-2.8883,-2.9098,-2.9368,-2.9798,-2.9791,-2.975,-2.9653,-2.9585,-2.9533,-2.9476,-2.9409,-2.9299,-2.9299,-2.9258,-2.9196,-2.9175,-2.9161,-2.918,-2.918,-2.9264,-2.9387,-2.9435,-2.9475,-2.9634,-2.9705,-2.9894,-2.9937,-2.9996,-2.9972,-3.0099,-3.0271,-3.0373,-3.0386,-3.0378,-3.0367,-3.0344,-3.0284,-3.0296,-3.0409,-3.0303,-3.0067,-3.0125,-2.9836,-2.934,-2.8617,-2.7654,-2.6896,-2.609,-2.5376,-2.4946,-2.4802,-2.4929,-2.4999,-2.5022,-2.5063,-2.5236,-2.5318,-2.5354,-2.5346,-2.5391,-2.5412,-2.5401,-2.5417,-2.5427,-2.5455,-2.5452,-2.5492,-2.5515,-2.5527,-2.5499,-2.5505,-2.5504,-2.5524,-2.5542,-2.5566,-2.5578,-2.5591,-2.5625,-2.5661,-2.5683,-2.5644,-2.5644,-2.564,-2.1214,-2.1385,-2.1384,-2.161,-2.2206,-2.3253,-2.3727,-2.3815,-2.4344,-2.4606,-2.4839,-2.5865,-2.6423,-2.6808,-2.7785,-2.8522,-2.8449,-2.8622,-2.8736,-2.8748,-2.8736,-2.8646,-2.8682,-2.8777,-2.8524,-2.8603,-2.8578,-2.8491,-2.8301,-2.8498,-2.8467,-2.8343,-2.8294,-2.8506,-2.8883,-2.9074,-2.9382,-2.94,-2.94,-2.927,-2.9217,-2.9164,-2.9086,-2.9008,-2.8934,-2.884,-2.8854,-2.883,-2.8807,-2.8842,-2.8842,-2.8929,-2.9049,-2.9093,-2.914,-2.9299,-2.9486,-2.9625,-2.9607,-2.9707,-2.9705,-2.9703,-2.9939,-3.0049,-3.0071,-3.0066,-3.0061,-3.0047,-3.003,-3.0059,-3.0121,-2.9996,-2.9992,-3.0035,-2.987,-2.9357,-2.8877,-2.7918,-2.7138,-2.6272,-2.523,-2.4814,-2.4481,-2.4596,-2.4719,-2.4723,-2.4752,-2.4943,-2.5146,-2.5192,-2.5245,-2.5302,-2.5322,-2.5313,-2.5322,-2.5341,-2.5351,-2.5397,-2.5406,-2.5415,-2.5397,-2.5348,-2.539,-2.5406,-2.5448,-2.5476,-2.5498,-2.5526,-2.552,-2.555,-2.5609,-2.5647,-2.5655,-2.5681,-2.5683,-2.0745,-2.0761,-2.0761,-2.0745,-2.0974,-2.2041,-2.2624,-2.2833,-2.2965,-2.3055,-2.321,-2.472,-2.5321,-2.5656,-2.6967,-2.7646,-2.7707,-2.7754,-2.7855,-2.7855,-2.801,-2.7897,-2.7837,-2.7851,-2.7904,-2.7811,-2.7797,-2.7964,-2.7728,-2.7599,-2.761,-2.7628,-2.7502,-2.763,-2.7887,-2.8196,-2.8654,-2.8842,-2.8904,-2.8777,-2.873,-2.8633,-2.8565,-2.8476,-2.8337,-2.8228,-2.8166,-2.8043,-2.8029,-2.802,-2.795,-2.8334,-2.8552,-2.8633,-2.887,-2.9084,-2.9292,-2.9198,-2.9196,-2.9289,-2.9268,-2.9188,-2.9352,-2.9533,-2.9724,-2.9801,-2.9823,-2.9788,-2.9746,-2.9748,-2.9731,-2.9713,-2.9705,-2.9705,-2.9678,-2.9334,-2.8988,-2.8297,-2.7559,-2.66,-2.5374,-2.4744,-2.4429,-2.4424,-2.4508,-2.4414,-2.4445,-2.4609,-2.4799,-2.5031,-2.5081,-2.5181,-2.5215,-2.5217,-2.5228,-2.5233,-2.5288,-2.5313,-2.5253,-2.5248,-2.5203,-2.5203,-2.5254,-2.5303,-2.5345,-2.538,-2.5406,-2.541,-2.5429,-2.546,-2.5437,-2.5572,-2.5572,-2.5659,-2.567,-1.9528,-1.9513,-1.9528,-1.9674,-1.9911,-2.031,-2.0972,-2.1766,-2.1696,-2.1788,-2.2268,-2.3592,-2.4263,-2.4482,-2.609,-2.6716,-2.7,-2.7191,-2.7485,-2.7532,-2.7424,-2.7424,-2.7409,-2.7361,-2.7439,-2.7376,-2.7376,-2.7298,-2.7125,-2.6853,-2.6522,-2.6472,-2.637,-2.6404,-2.6572,-2.6748,-2.7423,-2.7959,-2.8027,-2.8103,-2.808,-2.796,-2.7926,-2.7837,-2.7686,-2.7613,-2.7601,-2.7512,-2.7542,-2.7666,-2.7695,-2.7926,-2.7971,-2.7978,-2.8121,-2.835,-2.8419,-2.8361,-2.8506,-2.8536,-2.8542,-2.856,-2.8585,-2.903,-2.9349,-2.9579,-2.957,-2.9457,-2.9371,-2.9342,-2.9342,-2.9351,-2.9292,-2.9241,-2.9182,-2.8942,-2.8519,-2.7796,-2.71,-2.6388,-2.5199,-2.4884,-2.4549,-2.4264,-2.4309,-2.419,-2.4146,-2.4256,-2.4456,-2.4685,-2.4874,-2.4968,-2.5025,-2.5018,-2.5097,-2.5121,-2.5185,-2.5212,-2.5121,-2.5055,-2.5055,-2.5066,-2.5121,-2.516,-2.5222,-2.5243,-2.5269,-2.5274,-2.5226,-2.5165,-2.5152,-2.5337,-2.5493,-2.5554,-2.5611,-1.8569,-1.8536,-1.8401,-1.8489,-1.8669,-1.8842,-1.9343,-1.989,-2.0307,-2.0893,-2.1698,-2.2665,-2.343,-2.4192,-2.5319,-2.5988,-2.6178,-2.6318,-2.6506,-2.659,-2.6771,-2.6404,-2.6404,-2.6387,-2.6165,-2.6251,-2.6285,-2.6165,-2.6164,-2.5935,-2.5589,-2.5389,-2.5154,-2.5233,-2.5389,-2.5526,-2.5779,-2.6421,-2.6866,-2.7123,-2.717,-2.7155,-2.7137,-2.7042,-2.6915,-2.6868,-2.6901,-2.6787,-2.6821,-2.6951,-2.6934,-2.6982,-2.7111,-2.7234,-2.7247,-2.7476,-2.7642,-2.7713,-2.7868,-2.7935,-2.7984,-2.8002,-2.7942,-2.8309,-2.8646,-2.8897,-2.8931,-2.8901,-2.889,-2.8879,-2.8931,-2.8942,-2.8826,-2.8716,-2.856,-2.8409,-2.7755,-2.7018,-2.6433,-2.5859,-2.5394,-2.5116,-2.4784,-2.4435,-2.4147,-2.4066,-2.3862,-2.3702,-2.3986,-2.4342,-2.4546,-2.4682,-2.4763,-2.4795,-2.4871,-2.4916,-2.4877,-2.4871,-2.4867,-2.484,-2.4869,-2.4923,-2.4955,-2.5025,-2.5074,-2.5086,-2.5091,-2.5043,-2.5005,-2.4942,-2.4929,-2.5078,-2.5247,-2.5367,-2.545,-1.7679,-1.7639,-1.741,-1.7334,-1.7362,-1.7652,-1.7713,-1.7646,-1.8881,-2.0137,-2.1132,-2.1775,-2.2736,-2.3673,-2.4398,-2.4821,-2.499,-2.5145,-2.5222,-2.536,-2.5403,-2.5217,-2.499,-2.4673,-2.4885,-2.4622,-2.4602,-2.5,-2.4929,-2.4693,-2.4418,-2.4353,-2.4276,-2.4199,-2.4045,-2.4163,-2.428,-2.4302,-2.5046,-2.5542,-2.6012,-2.6133,-2.6115,-2.5977,-2.5763,-2.5542,-2.554,-2.5496,-2.5449,-2.5568,-2.5662,-2.5721,-2.5991,-2.6354,-2.6354,-2.6438,-2.662,-2.6734,-2.6861,-2.6959,-2.7239,-2.7392,-2.7619,-2.7402,-2.742,-2.8226,-2.8442,-2.8467,-2.8467,-2.833,-2.8299,-2.8247,-2.8125,-2.7914,-2.7695,-2.7547,-2.7186,-2.6545,-2.6019,-2.5559,-2.5456,-2.5185,-2.4923,-2.4605,-2.464,-2.4282,-2.3912,-2.3614,-2.356,-2.3988,-2.4109,-2.4309,-2.4513,-2.4567,-2.457,-2.4604,-2.4505,-2.4491,-2.4518,-2.4526,-2.4513,-2.4632,-2.4785,-2.4861,-2.4915,-2.4902,-2.4895,-2.4814,-2.4752,-2.4785,-2.4799,-2.4857,-2.4979,-2.5098,-2.5216,-1.6,-1.6009,-1.6343,-1.6488,-1.6475,-1.6548,-1.6582,-1.6577,-1.7234,-1.8501,-1.9938,-2.0832,-2.1787,-2.2818,-2.2988,-2.3317,-2.3643,-2.3764,-2.3809,-2.4126,-2.4261,-2.4071,-2.4102,-2.3728,-2.3791,-2.3967,-2.3988,-2.3812,-2.3794,-2.3475,-2.3106,-2.2988,-2.2973,-2.287,-2.255,-2.2663,-2.2693,-2.247,-2.2651,-2.3593,-2.4346,-2.4397,-2.4333,-2.4313,-2.4143,-2.4122,-2.4102,-2.4097,-2.4092,-2.4199,-2.4178,-2.434,-2.4622,-2.5074,-2.5166,-2.5128,-2.5343,-2.5456,-2.5495,-2.5657,-2.5889,-2.5678,-2.5624,-2.5639,-2.6098,-2.733,-2.797,-2.7956,-2.7915,-2.7691,-2.7543,-2.744,-2.7302,-2.7023,-2.6783,-2.6653,-2.6555,-2.6082,-2.5561,-2.5472,-2.5382,-2.5215,-2.4969,-2.4884,-2.503,-2.4765,-2.4335,-2.3952,-2.3573,-2.3655,-2.3577,-2.3792,-2.4255,-2.4352,-2.4292,-2.4174,-2.4043,-2.4099,-2.4146,-2.4155,-2.4155,-2.4355,-2.454,-2.4681,-2.4768,-2.4678,-2.4599,-2.4476,-2.4459,-2.4534,-2.4551,-2.4554,-2.4655,-2.4773,-2.4917,-1.4676,-1.4505,-1.463,-1.4687,-1.4755,-1.5096,-1.5186,-1.5188,-1.5812,-1.6756,-1.7977,-1.9396,-2.0754,-2.1737,-2.1814,-2.1894,-2.2306,-2.2425,-2.2564,-2.2893,-2.2827,-2.273,-2.264,-2.2454,-2.2292,-2.2398,-2.2528,-2.246,-2.242,-2.2243,-2.1885,-2.1663,-2.1592,-2.1435,-2.1121,-2.1253,-2.1178,-2.0911,-2.0616,-2.1196,-2.2388,-2.2515,-2.2767,-2.279,-2.2723,-2.2664,-2.2515,-2.2515,-2.2546,-2.2672,-2.2775,-2.301,-2.325,-2.3501,-2.3637,-2.3743,-2.3895,-2.4045,-2.3953,-2.4133,-2.4376,-2.4132,-2.4147,-2.4378,-2.4233,-2.5309,-2.5896,-2.5947,-2.6269,-2.6133,-2.6099,-2.5995,-2.5872,-2.5658,-2.5584,-2.5528,-2.5452,-2.5216,-2.4952,-2.4891,-2.4865,-2.4852,-2.4551,-2.4158,-2.4215,-2.3968,-2.3711,-2.3336,-2.3124,-2.31,-2.3062,-2.3106,-2.3469,-2.3679,-2.357,-2.3516,-2.3487,-2.3581,-2.3744,-2.3754,-2.3783,-2.4051,-2.4284,-2.4328,-2.4355,-2.4374,-2.4266,-2.4126,-2.4154,-2.4248,-2.4229,-2.421,-2.432,-2.4405,-2.4495,-1.3446,-1.3022,-1.2826,-1.2715,-1.2788,-1.3504,-1.369,-1.3638,-1.447,-1.5056,-1.5618,-1.7531,-1.9345,-2.0409,-2.0707,-2.0906,-2.0922,-2.0616,-2.0911,-2.0941,-2.0833,-2.0806,-2.0662,-2.0406,-2.0293,-2.038,-2.0552,-2.0515,-2.0417,-2.0331,-2.0243,-2.0219,-2.0169,-2.008,-1.9991,-1.9953,-1.9723,-1.9389,-1.9193,-1.9282,-1.9965,-2.0706,-2.118,-2.1349,-2.129,-2.1121,-2.0948,-2.0886,-2.0946,-2.1164,-2.1452,-2.1688,-2.1876,-2.2016,-2.2113,-2.226,-2.2505,-2.2411,-2.2323,-2.2878,-2.2892,-2.287,-2.3038,-2.2986,-2.2745,-2.2961,-2.3548,-2.3774,-2.4059,-2.4571,-2.4496,-2.4488,-2.4369,-2.4239,-2.4234,-2.4214,-2.4148,-2.4143,-2.4153,-2.4112,-2.4168,-2.4183,-2.4027,-2.3595,-2.3495,-2.3231,-2.2783,-2.2321,-2.2036,-2.215,-2.2185,-2.2194,-2.2364,-2.2552,-2.286,-2.2949,-2.3004,-2.3082,-2.3212,-2.3294,-2.3385,-2.3574,-2.3723,-2.3842,-2.3862,-2.3844,-2.3842,-2.3738,-2.3808,-2.384,-2.3868,-2.3829,-2.3862,-2.3954,-2.4019,-1.1697,-1.1623,-1.1984,-1.2122,-1.2137,-1.2333,-1.2357,-1.2425,-1.3159,-1.3618,-1.3947,-1.4887,-1.6565,-1.8586,-1.8237,-1.8338,-1.8632,-1.8559,-1.836,-1.8233,-1.8875,-1.8927,-1.8835,-1.8737,-1.822,-1.833,-1.8651,-1.8744,-1.8493,-1.8319,-1.8182,-1.8113,-1.8113,-1.7935,-1.755,-1.762,-1.775,-1.7484,-1.7302,-1.7258,-1.7872,-1.8694,-1.9643,-1.9824,-1.9798,-1.9773,-1.9747,-1.9721,-1.9747,-1.9901,-2.0155,-2.0256,-2.0343,-2.0454,-2.0616,-2.0565,-2.0844,-2.0486,-2.0507,-2.0906,-2.0812,-2.0343,-2.0481,-2.0826,-2.0651,-2.0516,-2.0815,-2.0673,-2.1217,-2.2483,-2.271,-2.2805,-2.2739,-2.2546,-2.2454,-2.2431,-2.24,-2.261,-2.2752,-2.2804,-2.29,-2.3054,-2.322,-2.3218,-2.3662,-2.328,-2.2707,-2.2241,-2.1875,-2.1667,-2.1358,-2.1404,-2.144,-2.2041,-2.26,-2.2556,-2.2578,-2.2652,-2.2652,-2.263,-2.2732,-2.2996,-2.3141,-2.3188,-2.3229,-2.3223,-2.3235,-2.3218,-2.3264,-2.3299,-2.3403,-2.3426,-2.3441,-2.3464,-2.3504]},{"header":{"parameterUnit":"m.s-1","parameterCategory":1,"la1":31.0,"la2":29.5877,"lo1":-88.7671,"lo2":-86.6584,"dy":0.0162,"dx":0.0185,"nx":115,"ny":88,"refTime":"2023-08-23T06:00:00:Z","depth":0,"parameterNumber":3,"parameterNumberName":"V-component_of_WINDS"},"data":[0.0,0.0,0.0,0.0,0.0,0.0,0.0,0.0,0.0,0.0,0.0,0.0,0.0,0.0,0.0,0.0,0.0,0.0,0.0,0.0,0.0,0.0,0.0,0.0,0.0,0.0,0.0,0.0,0.0,0.0,0.0,0.0,0.0,0.0,0.0,0.0,0.0,0.0,0.0,0.0,0.0,0.0,0.0,0.0,0.0,0.0,0.0,0.0,0.0,0.0,0.0,0.0,0.0,0.0,0.0,0.0,0.0,0.0,0.0,0.0,0.0,0.0,0.0,0.0,0.0,0.0,0.0,0.0,0.0,0.0,0.0,0.0,0.0,0.0,0.0,0.0,0.0,0.0,0.0,0.0,0.0,0.0,0.0,0.0,0.0,0.0,0.0,0.0,0.0,0.0,0.0,0.0,0.0,0.0,0.0,0.0,0.0,0.0,0.0,0.0,0.0,0.0,0.0,0.0,0.0,0.0,0.0,0.0,0.0,0.0,0.0,0.0,0.0,0.0,0.0,0.0,0.0,0.0,0.0,0.0,0.0,0.0,0.0,0.0,0.0,0.0,0.0,0.0,0.0,0.0,0.0,0.0,0.0,0.0,0.0,0.0,0.0,0.0,0.0,0.0,0.0,0.0,0.0,0.0,0.0,0.0,0.0,0.0,0.0,0.0,0.0,0.0,0.0,0.0,0.0,0.0,0.0,0.0,0.0,0.0,0.0,0.0,0.0,0.0,0.0,0.0,0.0,0.0,0.0,0.0,0.0,0.0,0.0,0.0,0.0,0.0,0.0,0.0,0.0,0.0,0.0,0.0,0.0,0.0,0.0,0.0,0.0,0.0,0.0,0.0,0.0,0.0,0.0,0.0,0.0,0.0,0.0,0.0,0.0,0.0,0.0,0.0,0.0,0.0,0.0,0.0,0.0,0.0,0.0,0.0,0.0,0.0,0.0,0.0,0.0,0.0,0.0,0.0,0.0,0.0,0.0,0.0,0.0,0.0,0.0,0.0,0.0,0.0,0.0,0.0,0.0,0.0,0.0,0.0,0.0,0.0,0.0,0.0,0.0,0.0,0.0,0.0,0.0,0.0,0.0,0.0,0.0,0.0,0.0,0.0,0.0,0.0,0.0,0.0,0.0,0.0,0.0,0.0,0.0,0.0,0.0,0.0,0.0,0.0,0.0,0.0,0.0,0.0,0.0,0.0,0.0,0.0,0.0,0.0,0.0,0.0,0.0,0.0,0.0,0.0,0.0,0.0,0.0,0.0,0.0,0.0,0.0,0.0,0.0,0.0,0.0,0.0,0.0,0.0,0.0,0.0,0.0,0.0,0.0,0.0,0.0,0.0,0.0,0.0,0.0,0.0,0.0,0.0,0.0,0.0,0.0,0.0,0.0,0.0,0.0,0.0,0.0,0.0,0.0,0.0,0.0,0.0,0.0,0.0,0.0,0.0,0.0,0.0,0.0,0.0,0.0,0.0,0.0,0.0,0.0,0.0,0.0,0.0,0.0,0.0,0.0,0.0,0.0,0.0,0.0,0.0,0.0,0.0,0.0,0.0,0.0,0.0,0.0,0.0,0.0,0.0,0.0,0.0,0.0,0.0,0.0,0.0,0.0,0.0,0.0,0.0,0.0,0.0,0.0,0.0,0.0,0.0,0.0,0.0,0.0,0.0,0.0,0.0,0.0,0.0,0.0,0.0,0.0,0.0,0.0,0.0,0.0,0.0,0.0,0.0,0.0,0.0,0.0,0.0,0.0,0.0,0.0,0.0,0.0,0.0,0.0,0.0,0.0,0.0,0.0,0.0,0.0,0.0,0.0,0.0,0.0,0.0,0.0,0.0,0.0,0.0,0.0,0.0,0.0,0.0,0.0,0.0,0.0,0.0,0.0,0.0,0.0,0.0,0.0,0.0,0.0,0.0,0.0,0.0,0.0,0.0,0.0,0.0,0.0,0.0,0.0,0.0,0.0,0.0,0.0,0.0,0.0,0.0,0.0,0.0,0.0,0.0,0.0,0.0,0.0,0.0,0.0,0.0,0.0,0.0,0.0,0.0,0.0,0.0,0.0,0.0,0.0,0.0,0.0,0.0,0.0,0.0,0.0,0.0,0.0,0.0,0.0,0.0,0.0,0.0,0.0,0.0,0.0,0.0,0.0,0.0,0.0,0.0,0.0,0.0,0.0,0.0,0.0,0.0,0.0,0.0,0.0,0.0,0.0,0.0,0.0,0.0,0.0,0.0,0.0,0.0,0.0,0.0,0.0,0.0,0.0,0.0,0.0,0.0,0.0,0.0,0.0,0.0,0.0,0.0,0.0,0.0,0.0,0.0,0.0,0.0,0.0,0.0,0.0,0.0,0.0,0.0,0.0,0.0,0.0,0.0,0.0,0.0,0.0,0.0,0.0,0.0,0.0,0.0,0.0,0.0,0.0,0.0,0.0,0.0,0.0,0.0,0.0,0.0,0.0,0.0,0.0,0.0,0.0,0.0,0.0,0.0,0.0,0.0,0.0,0.0,0.0,0.0,0.0,0.0,0.0,0.0,0.0,0.0,0.0,0.0,0.0,0.0,0.0,0.0,0.0,0.0,0.0,0.0,0.0,0.0,0.0,0.0,0.0,0.0,0.0,0.0,0.0,0.0,0.0,0.0,0.0,0.0,0.0,0.0,0.0,0.0,0.0,0.0,0.0,0.0,0.0,0.0,0.0,0.0,0.0,0.0,0.0,0.0,0.0,0.0,0.0,0.0,0.0,0.0,0.0,0.0,0.0,0.0,0.0,0.0,0.0,0.0,0.0,0.0,0.0,0.0,0.0,0.0,0.0,0.0,0.0,0.0,0.0,0.0,0.0,0.0,0.0,0.0,0.0,0.0,0.0,0.0,0.0,0.0,0.0,0.0,0.0,0.0,0.0,0.0,0.0,0.0,0.0,0.0,0.0,0.0,0.0,0.0,0.0,0.0,0.0,0.0,0.0,0.0,0.0,0.0,0.0,0.0,0.0,0.0,0.0,0.0,0.0,0.0,0.0,0.0,0.0,0.0,0.0,0.0,0.0,0.0,0.0,0.0,0.0,0.0,0.0,0.0,0.0,0.0,0.0,0.0,0.0,0.0,0.0,0.0,0.0,0.0,0.0,0.0,0.0,0.0,0.0,0.0,0.0,0.0,0.0,0.0,0.0,0.0,0.0,0.0,0.0,0.0,0.0,0.0,0.0,0.0,0.0,0.0,0.0,0.0,0.0,0.0,0.0,0.0,0.0,0.0,0.0,0.0,0.0,0.0,0.0,0.0,0.0,0.0,0.0,0.0,0.0,0.0,0.0,0.0,0.0,0.0,0.0,0.0,0.0,0.0,0.0,0.0,0.0,0.0,0.0,0.0,0.0,0.0,0.0,0.0,0.0,0.0,0.0,0.0,0.0,0.0,0.0,0.0,0.0,0.0,0.0,0.0,0.0,0.0,0.0,0.0,0.0,0.0,0.0,0.0,0.0,0.0,0.0,0.0,0.0,0.0,0.0,0.0,0.0,0.0,0.0,0.0,0.0,0.0,0.0,0.0,0.0,0.0,0.0,0.0,0.0,0.0,0.0,0.0,0.0,0.0,0.0,0.0,0.0,0.0,0.0,0.0,0.0,0.0,0.0,0.0,0.0,0.0,0.0,0.0,0.0,0.0,0.0,0.0,0.0,0.0,0.0,0.0,0.0,0.0,0.0,0.0,0.0,0.0,0.0,0.0,0.0,0.0,0.0,0.0,0.0,0.0,0.0,0.0,0.0,0.0,0.0,0.0,0.0,0.0,0.0,0.0,0.0,0.0,0.0,0.0,0.0,0.0,0.0,0.0,0.0,0.0,0.0,0.0,0.0,0.0,0.0,0.0,0.0,0.0,0.0,0.0,0.0,0.0,0.0,0.0,0.0,0.0,0.0,0.0,0.0,0.0,0.0,0.0,0.0,0.0,0.0,0.0,0.0,0.0,0.0,0.0,0.0,0.0,0.0,0.0,0.0,0.0,0.0,0.0,0.0,0.0,0.0,0.0,0.0,0.0,0.0,0.0,0.0,0.0,0.0,0.0,0.0,0.0,0.0,0.0,0.0,0.0,0.0,0.0,0.0,0.0,0.0,0.0,0.0,0.0,0.0,0.0,0.0,0.0,0.0,0.0,0.0,0.0,0.0,0.0,0.0,0.0,0.0,0.0,0.0,0.0,0.0,0.0,0.0,0.0,0.0,0.0,0.0,0.0,0.0,0.0,0.0,0.0,0.0,0.0,0.0,0.0,0.0,0.0,0.0,0.0,2.3748,0.0,0.0,0.0,0.0,0.0,0.0,0.0,0.0,0.0,0.0,0.0,0.0,0.0,0.0,0.0,0.0,0.0,0.0,0.0,0.0,0.0,0.0,0.0,0.0,0.0,0.0,0.0,0.0,0.0,0.0,0.0,0.0,0.0,0.0,0.0,0.0,0.0,0.0,0.0,0.0,0.0,0.0,0.0,0.0,0.0,0.0,0.0,0.0,0.0,0.0,0.0,0.0,0.0,0.0,0.0,0.0,0.0,0.0,0.0,0.0,0.0,0.0,0.0,0.0,0.0,0.0,0.0,0.0,0.0,0.0,0.0,0.0,0.0,0.0,0.0,0.0,0.0,0.0,0.0,0.0,0.0,0.0,0.0,0.0,0.0,0.0,0.0,0.0,0.0,0.0,0.0,0.0,0.0,0.0,0.0,0.0,0.0,0.0,0.0,0.0,0.0,0.0,0.0,0.0,0.0,0.0,0.0,0.0,0.0,0.0,2.4444,2.4078,2.2959,2.2374,2.2458,0.0,0.0,0.0,0.0,0.0,0.0,0.0,0.0,0.0,0.0,0.0,0.0,0.0,0.0,0.0,0.0,0.0,0.0,0.0,0.0,0.0,0.0,0.0,0.0,0.0,0.0,0.0,0.0,0.0,0.0,0.0,0.0,0.0,0.0,0.0,0.0,0.0,0.0,0.0,0.0,0.0,0.0,0.0,0.0,0.0,0.0,0.0,0.0,0.0,0.0,0.0,0.0,0.0,0.0,0.0,0.0,0.0,0.0,0.0,0.0,0.0,0.0,0.0,0.0,0.0,0.0,0.0,0.0,0.0,0.0,0.0,0.0,0.0,0.0,0.0,0.0,0.0,0.0,0.0,0.0,0.0,0.0,0.0,0.0,0.0,0.0,0.0,0.0,0.0,0.0,0.0,0.0,0.0,0.0,0.0,0.0,0.0,0.0,0.0,0.0,0.0,0.0,0.0,0.0,0.0,0.0,0.0,0.0,0.0,0.0,0.0,0.0,2.1504,2.0884,2.1277,0.0,0.0,0.0,0.0,0.0,0.0,0.0,0.0,0.0,0.0,0.0,0.0,0.0,0.0,0.0,0.0,0.0,0.0,0.0,0.0,0.0,0.0,0.0,0.0,0.0,0.0,0.0,0.0,0.0,0.0,0.0,0.0,0.0,0.0,0.0,0.0,0.0,0.0,0.0,0.0,0.0,0.0,0.0,0.0,0.0,0.0,0.0,0.0,0.0,0.0,0.0,0.0,0.0,0.0,0.0,0.0,0.0,0.0,0.0,0.0,0.0,0.0,0.0,0.0,0.0,0.0,0.0,0.0,0.0,0.0,0.0,0.0,0.0,0.0,0.0,0.0,0.0,0.0,0.0,0.0,0.0,0.0,0.0,0.0,0.0,0.0,0.0,0.0,0.0,0.0,0.0,0.0,0.0,0.0,0.0,0.0,0.0,0.0,0.0,0.0,0.0,0.0,0.0,0.0,0.0,0.0,0.0,0.0,0.0,0.0,2.282,2.3379,2.1537,0.0,2.0834,0.0,0.0,0.0,0.0,0.0,0.0,0.0,0.0,0.0,0.0,0.0,0.0,0.0,0.0,0.0,0.0,0.0,0.0,0.0,0.0,0.0,0.0,0.0,0.0,0.0,0.0,0.0,0.0,0.0,0.0,0.0,0.0,0.0,0.0,0.0,0.0,0.0,0.0,0.0,0.0,0.0,0.0,0.0,0.0,0.0,0.0,0.0,0.0,0.0,0.0,0.0,0.0,0.0,0.0,0.0,0.0,0.0,0.0,0.0,0.0,0.0,0.0,0.0,0.0,0.0,0.0,0.0,0.0,0.0,0.0,0.0,0.0,0.0,0.0,0.0,0.0,0.0,0.0,0.0,0.0,0.0,0.0,0.0,0.0,0.0,0.0,0.0,0.0,0.0,0.0,0.0,0.0,0.0,0.0,0.0,0.0,0.0,0.0,0.0,0.0,0.0,0.0,0.0,0.0,0.0,0.0,0.0,0.0,0.0,0.0,2.1733,2.119,1.9329,1.8175,0.0,0.0,0.0,0.0,0.0,0.0,0.0,0.0,0.0,0.0,0.0,0.0,0.0,0.0,0.0,0.0,0.0,0.0,0.0,0.0,0.0,0.0,0.0,0.0,0.0,0.0,0.0,0.0,0.0,0.0,0.0,0.0,0.0,0.0,0.0,0.0,0.0,0.0,0.0,0.0,0.0,0.0,0.0,0.0,0.0,0.0,0.0,0.0,0.0,0.0,0.0,0.0,0.0,0.0,0.0,0.0,0.0,0.0,0.0,0.0,0.0,0.0,0.0,0.0,0.0,0.0,0.0,0.0,0.0,0.0,0.0,0.0,0.0,0.0,0.0,0.0,0.0,0.0,0.0,0.0,0.0,0.0,0.0,0.0,0.0,0.0,0.0,0.0,0.0,0.0,0.0,0.0,0.0,0.0,0.0,0.0,0.0,0.0,0.0,0.0,0.0,0.0,0.0,0.0,0.0,0.0,0.0,0.0,0.0,0.0,2.1453,1.9756,1.783,1.6102,1.5052,1.4753,0.0,0.0,0.0,0.0,0.0,0.0,0.0,0.0,0.0,0.0,0.0,0.0,0.0,0.0,0.0,0.0,0.0,0.0,0.0,0.0,0.0,0.0,0.0,0.0,0.0,0.0,0.0,0.0,0.0,0.0,0.0,0.0,0.0,0.0,0.0,0.0,0.0,0.0,0.0,0.0,0.0,0.0,0.0,0.0,0.0,0.0,0.0,0.0,0.0,0.0,0.0,0.0,0.0,0.0,0.0,0.0,0.0,0.0,0.0,0.0,0.0,0.0,0.0,0.0,0.0,0.0,0.0,0.0,0.0,0.0,0.0,0.0,0.0,0.0,0.0,0.0,0.0,0.0,0.0,0.0,0.0,0.0,0.0,0.0,0.0,0.0,0.0,0.0,0.0,0.0,0.0,0.0,0.0,0.0,0.0,0.0,0.0,0.0,0.0,0.0,0.0,0.0,0.0,0.0,0.0,0.0,0.0,0.0,2.2596,1.9635,1.6507,1.3424,1.1972,1.135,0.0,0.0,0.0,0.0,0.0,0.0,0.0,0.0,0.0,0.0,0.0,0.0,0.0,0.0,0.0,0.0,0.0,0.0,0.0,0.0,0.0,0.0,0.0,0.0,0.0,0.0,0.0,0.0,0.0,0.0,0.0,0.0,0.0,0.0,0.0,0.0,0.0,0.0,0.0,0.0,0.0,0.0,0.0,0.0,0.0,0.0,0.0,0.0,0.0,0.0,0.0,0.0,0.0,0.0,0.0,0.0,0.0,0.0,0.0,0.0,0.0,0.0,0.0,0.0,0.0,0.0,0.0,0.0,0.0,0.0,0.0,0.0,0.0,0.0,0.0,0.0,0.0,0.0,0.0,0.0,0.0,0.0,0.0,0.0,0.0,0.0,0.0,0.0,0.0,0.0,0.0,0.0,0.0,0.0,0.0,0.0,0.0,0.0,0.0,0.0,0.0,0.0,0.0,0.0,0.0,0.0,0.0,0.0,0.0,1.8182,1.5183,1.2523,1.0361,0.8771,0.7974,0.0,0.0,0.0,0.0,0.0,0.0,0.0,0.0,0.0,0.0,0.0,0.0,0.0,0.0,0.0,0.0,0.0,0.0,0.0,0.0,0.0,0.0,0.0,0.0,0.0,0.0,0.0,0.0,0.0,0.0,0.0,0.0,0.0,0.0,0.0,0.0,0.0,0.0,0.0,0.0,0.0,0.0,0.0,0.0,0.0,0.0,0.0,0.0,0.0,0.0,0.0,0.0,0.0,0.0,0.0,0.0,0.0,0.0,0.0,0.0,0.0,0.0,0.0,0.0,0.0,0.0,0.0,0.0,0.0,0.0,0.0,0.0,0.0,0.0,0.0,0.0,0.0,0.0,0.0,0.0,0.0,0.0,0.0,0.0,0.0,0.0,0.0,0.0,0.0,0.0,0.0,0.0,0.0,0.0,0.0,0.0,0.0,0.0,0.0,0.0,0.0,0.0,0.0,0.0,0.0,0.0,0.0,0.0,0.0,1.3553,0.0,0.8878,0.6921,0.5331,0.442,0.0,0.0,0.0,0.0,0.0,0.0,0.0,0.0,0.0,0.0,0.0,0.0,0.0,0.0,0.0,0.0,0.0,0.0,0.0,0.0,0.0,0.0,0.0,0.0,0.0,0.0,0.0,0.0,0.0,0.0,0.0,0.0,0.0,0.0,0.0,0.0,0.0,0.0,0.0,0.0,0.0,0.0,0.0,0.0,0.0,0.0,0.0,0.0,0.0,0.0,0.0,0.0,0.0,0.0,0.0,0.0,0.0,0.0,0.0,0.0,0.0,0.0,0.0,0.0,0.0,0.0,0.0,0.0,0.0,0.0,0.0,0.0,0.0,0.0,0.0,0.0,0.0,0.0,0.0,0.0,0.0,0.0,0.0,0.0,0.0,0.0,0.0,0.0,0.0,0.0,0.0,0.0,0.0,0.0,0.0,0.0,0.0,0.0,0.0,0.0,0.0,0.0,0.0,0.0,0.0,0.0,0.0,0.0,1.1828,0.8933,0.7762,0.5796,0.2942,0.1674,0.075,0.0,0.0,0.0,0.0,0.0,0.0,0.0,0.0,0.0,0.0,0.0,0.0,0.0,0.0,0.0,0.0,0.0,0.0,0.0,0.0,0.0,0.0,0.0,0.0,0.0,0.0,0.0,0.0,0.0,0.0,0.0,0.0,0.0,0.0,0.0,0.0,0.0,0.0,0.0,0.0,0.0,0.0,0.0,0.0,0.0,0.0,0.0,0.0,0.0,0.0,0.0,0.0,0.0,0.0,0.0,0.0,0.0,0.0,0.0,0.0,0.0,0.0,0.0,0.0,0.0,0.0,0.0,0.0,0.0,0.0,0.0,0.0,0.0,0.0,0.0,0.0,0.0,0.0,0.0,0.0,0.0,0.0,0.0,0.0,0.0,0.0,0.0,0.0,0.0,0.0,0.0,0.0,0.0,0.0,0.0,0.0,0.0,0.0,0.0,0.0,0.0,0.0,0.0,0.0,0.0,0.0,0.0,0.0,0.0,0.6903,0.5081,0.3451,0.2008,0.0404,-0.0301,0.0,0.0,0.0,0.0,0.0,0.0,0.0,0.0,0.0,0.0,0.0,0.0,0.0,0.0,0.0,0.0,0.0,0.0,0.0,0.0,0.0,0.0,0.0,0.0,0.0,0.0,0.0,0.0,0.0,0.0,0.0,0.0,0.0,0.0,0.0,0.0,0.0,0.0,0.0,0.0,0.0,0.0,0.0,0.0,0.0,0.0,0.0,0.0,0.0,0.0,0.0,0.0,0.0,0.0,0.0,0.0,0.0,0.0,0.0,0.0,0.0,0.0,0.0,0.0,0.0,0.0,0.0,0.0,0.0,0.0,0.0,0.0,0.0,0.0,0.0,0.0,0.0,0.0,0.0,0.0,0.0,0.0,0.0,0.0,0.0,0.0,0.0,0.0,0.0,0.0,0.0,0.0,0.0,0.0,0.0,0.0,0.0,0.0,0.0,0.0,0.0,0.0,0.0,0.0,0.0,0.0,0.0,0.0,0.0,0.5007,0.3507,0.2043,0.0694,-0.034,-0.0932,-0.1082,0.0,0.0,0.0,0.0,0.0,0.0,0.0,0.0,0.0,0.0,0.0,0.0,0.0,0.0,0.0,0.0,0.0,0.0,0.0,0.0,0.0,0.0,0.0,0.0,0.0,0.0,0.0,0.0,0.0,0.0,0.0,0.0,0.0,0.0,0.0,0.0,0.0,0.0,0.0,0.0,0.0,0.0,0.0,0.0,0.0,0.0,0.0,0.0,0.0,0.0,0.0,0.0,0.0,0.0,0.0,0.0,0.0,0.0,0.0,0.0,0.0,0.0,0.0,0.0,0.0,0.0,0.0,0.0,0.0,0.0,0.0,0.0,0.0,0.0,0.0,0.0,0.0,0.0,0.0,0.0,0.0,0.0,0.0,0.0,0.0,0.0,0.0,0.0,0.0,0.0,0.0,0.0,0.0,0.0,0.0,0.0,0.0,0.0,0.0,0.0,0.0,0.0,0.0,0.0,0.0,0.0,0.0,0.0,0.3353,0.2741,0.1344,-0.0744,-0.0734,-0.126,0.0,0.0,0.0,0.0,0.0,0.0,0.0,0.0,0.0,0.0,0.0,0.0,0.0,0.0,0.0,0.0,0.0,0.0,0.0,0.0,0.0,0.0,0.0,0.0,0.0,0.0,0.0,0.0,0.0,0.0,0.0,0.0,0.0,0.0,0.0,0.0,0.0,0.0,0.0,0.0,0.0,0.0,0.0,0.0,0.0,0.0,0.0,0.0,0.0,0.0,0.0,0.0,0.0,0.0,0.0,0.0,0.0,0.0,0.0,0.0,0.0,0.0,0.0,0.0,0.0,0.0,0.0,0.0,0.0,0.0,0.0,0.0,0.0,0.0,0.0,0.0,0.0,0.0,0.0,0.0,0.0,0.0,0.0,0.0,0.0,0.0,0.0,0.0,0.0,0.0,0.0,0.0,0.0,0.0,0.0,0.0,0.0,0.0,0.0,0.0,0.0,0.0,0.0,0.0,0.0,0.0,0.0,0.0,0.0,0.2633,0.1081,0.0048,-0.0512,-0.1103,-0.1624,0.0,0.0,0.0,0.0,0.0,0.0,0.0,0.0,0.0,0.0,0.0,0.0,0.0,0.0,0.0,0.0,0.0,0.0,0.0,0.0,0.0,0.0,0.0,0.0,0.0,0.0,0.0,0.0,0.0,0.0,0.0,0.0,0.0,0.0,0.0,0.0,0.0,0.0,0.0,0.0,0.0,0.0,0.0,0.0,0.0,0.0,0.0,0.0,0.0,0.0,0.0,0.0,0.0,0.0,0.0,0.0,0.0,0.0,0.0,0.0,0.0,0.0,0.0,0.0,0.0,0.0,0.0,0.0,0.0,0.0,0.0,0.0,0.0,0.0,0.0,0.0,0.0,0.0,0.0,0.0,0.0,0.0,0.0,0.0,0.0,0.0,0.0,0.0,0.0,0.0,0.0,0.0,0.0,0.0,0.0,0.0,0.0,0.0,0.0,0.0,0.0,0.0,0.0,0.0,0.0,0.0,0.0,0.0,0.3168,0.1855,0.0,-0.1181,-0.1591,-0.206,-0.2557,0.0,0.0,0.0,0.0,0.0,0.0,0.0,0.0,0.0,0.0,0.0,0.0,0.0,0.0,0.0,0.0,0.0,0.0,0.0,0.0,0.0,0.0,0.0,0.0,0.0,0.0,0.0,0.0,0.0,0.0,0.0,0.0,0.0,0.0,0.0,0.0,0.0,0.0,0.0,0.0,0.0,0.0,0.0,0.0,0.0,0.0,0.0,0.0,0.0,0.0,0.0,0.0,0.0,0.0,0.0,0.0,0.0,0.0,0.0,0.0,0.0,0.0,0.0,0.0,0.0,0.0,0.0,0.0,0.0,0.0,0.0,0.0,0.0,0.0,0.0,0.0,0.0,0.0,0.0,0.0,0.0,0.0,0.0,0.0,0.0,0.0,0.0,0.0,0.0,0.0,0.0,0.0,0.0,0.0,0.0,0.0,0.0,0.0,0.0,0.0,0.0,0.0,0.0,0.0,0.0,0.0,0.0,0.0,0.1819,0.1199,-0.0637,-0.2153,-0.3289,-0.316,-0.3561,0.0,0.0,0.0,0.0,0.0,0.0,0.0,0.0,0.0,0.0,0.0,0.0,0.0,0.0,0.0,0.0,0.0,0.0,0.0,0.0,0.0,0.0,0.0,0.0,0.0,0.0,0.0,0.0,0.0,0.0,0.0,0.0,0.0,0.0,0.0,0.0,0.0,0.0,0.0,0.0,0.0,0.0,0.0,0.0,0.0,0.0,0.0,0.0,0.0,0.0,0.0,0.0,0.0,0.0,0.0,0.0,0.0,0.0,0.0,0.0,0.0,0.0,0.0,0.0,0.0,0.0,0.0,0.0,0.0,0.0,0.0,0.0,0.0,0.0,0.0,0.0,0.0,0.0,0.0,0.0,0.0,0.0,0.0,0.0,0.0,0.0,0.0,0.0,0.0,0.0,0.0,0.0,0.0,0.0,0.0,0.0,0.0,0.0,0.0,0.0,0.0,0.0,0.0,0.0,0.0,0.0,0.0,0.0,0.1933,0.1199,-0.0637,-0.2516,-0.4397,-0.3468,-0.3544,0.0,0.0,0.0,0.0,0.0,0.0,0.0,0.0,0.0,0.0,0.0,0.0,0.0,0.0,0.0,0.0,0.0,0.0,0.0,0.0,0.0,0.0,0.0,0.0,0.0,0.0,0.0,0.0,0.0,0.0,0.0,0.0,0.0,0.0,0.0,0.0,0.0,0.0,0.0,0.0,0.0,0.0,0.0,0.0,0.0,0.0,0.0,0.0,0.5628,0.0,0.0,0.0,0.0,0.0,0.0,0.0,0.0,0.0,0.0,0.0,0.0,0.0,0.0,0.0,0.0,0.0,0.0,0.0,0.0,0.0,0.0,0.0,0.0,0.0,0.0,0.0,0.0,0.0,0.0,0.0,0.0,0.0,0.0,0.0,0.0,0.0,0.0,0.0,0.0,0.0,0.0,0.0,0.0,0.0,0.0,0.0,0.0,0.0,0.0,0.0,0.0,0.0,0.0,0.0,0.0,0.0,0.0,0.0,0.1627,0.0889,-0.0732,-0.24,-0.3967,-0.3748,-0.4365,0.0,0.0,0.0,0.0,0.0,0.0,0.0,0.0,0.0,0.0,0.0,0.0,0.0,0.0,0.0,0.0,0.0,0.0,0.0,0.0,0.0,0.0,0.0,0.0,0.0,0.0,0.0,0.0,0.0,0.0,0.0,0.0,0.0,0.0,0.0,0.0,0.0,0.0,0.0,0.0,0.0,0.0,0.0,0.0,0.0,0.0,0.0,0.0,0.0,0.0,0.0,0.0,0.0,0.0,0.0,0.0,0.0,0.0,0.0,0.0,0.0,0.0,0.0,0.0,0.0,0.0,0.0,0.0,0.0,0.0,0.0,0.0,0.0,0.0,0.0,0.0,0.0,0.0,0.0,0.0,0.0,0.0,0.0,0.0,0.0,0.0,0.0,0.0,0.0,0.0,0.0,0.0,0.0,0.0,0.0,0.0,0.0,0.0,0.0,0.0,0.0,0.0,0.0,0.0,0.0,0.0,0.0,0.2792,0.122,0.0425,-0.0874,-0.2126,-0.3156,-0.3971,-0.5211,-0.6881,0.0,0.0,0.0,0.0,0.0,0.0,0.0,0.0,0.0,0.0,0.0,0.0,0.0,0.0,0.0,0.0,0.0,0.0,0.0,0.0,0.0,0.0,0.0,0.0,0.0,0.0,0.0,0.0,0.0,0.0,0.0,0.0,0.0,0.0,0.0,0.0,0.0,0.0,0.981,0.7671,0.0,0.0,0.0,0.0,0.0,0.0,0.0,0.0,0.285,0.0,0.0,0.0,0.0,0.0,0.0,0.0,0.0,0.0,0.0,0.0,0.0,0.0,0.0,0.0,0.0,0.0,0.0,0.0,0.0,0.0,0.0,0.0,0.0,0.0,0.0,0.0,0.0,0.0,0.0,0.0,0.0,0.0,0.0,0.0,0.0,0.0,0.0,0.0,0.0,0.0,0.0,0.0,0.0,0.0,0.0,0.0,0.0,0.0,0.0,0.0,0.0,0.0,0.0,0.0,0.0,0.4186,0.2357,0.0894,-0.0232,-0.1108,-0.2112,-0.3146,-0.3993,-0.4847,-0.5788,0.0,0.0,0.0,0.0,0.0,0.0,0.0,0.0,0.0,0.0,0.0,0.0,0.0,0.0,0.0,0.0,0.0,0.0,0.0,0.0,0.0,0.0,0.0,0.0,0.0,0.0,0.0,0.0,0.0,0.0,0.0,0.0,0.0,0.0,0.0,0.0,0.0,0.0,0.0,0.6726,0.4844,0.0,0.0,0.0,0.0,0.0,0.0,0.0,0.0,0.1519,0.0,0.0,0.0,0.0,0.0,0.0,0.0,0.0,0.0,0.0,0.0,0.0,0.0,0.0,0.0,0.0,0.0,0.0,0.0,0.0,0.0,0.0,0.0,0.0,0.0,0.0,0.0,0.0,0.0,0.0,0.0,0.0,0.0,0.0,0.0,0.0,0.0,0.0,0.0,0.0,0.0,0.0,0.0,0.0,0.0,0.0,0.0,0.0,0.0,0.0,0.0,0.0,0.0,0.0,0.0,0.3186,0.1921,0.0733,-0.0375,-0.115,-0.1798,-0.2351,-0.3205,-0.392,0.0,0.0,0.0,0.0,0.0,0.0,0.0,0.0,0.0,0.0,0.0,0.0,0.0,0.0,0.0,0.0,0.0,0.0,0.0,0.0,0.0,0.0,0.0,0.0,0.0,0.0,0.0,0.0,0.0,0.0,0.0,0.0,0.0,0.0,0.0,0.0,0.0,0.0,0.0,0.0,0.4988,0.3028,0.1477,0.0,0.0,0.0,0.0,0.0,0.0,-0.225,-0.1444,0.0,0.0,0.0,0.0,0.0,0.0,0.0,0.0,0.0,0.0,0.0,0.0,0.0,0.0,0.0,0.0,0.0,0.0,0.0,0.0,0.0,0.0,0.0,0.0,0.0,0.0,0.0,0.0,0.0,0.0,0.0,0.0,0.0,0.0,0.0,0.0,0.0,0.0,0.0,0.0,0.0,0.0,0.0,0.0,0.0,0.0,0.0,0.0,0.0,0.0,0.0,0.0,0.0,0.0,0.0,0.2178,0.1468,0.0563,-0.0563,-0.1182,-0.1576,-0.1745,-0.2581,-0.3301,0.0,0.0,0.0,0.0,0.0,0.0,0.0,0.0,0.0,0.0,0.0,0.0,0.0,0.0,0.0,0.0,0.0,0.0,0.0,0.0,0.0,0.0,0.0,0.0,0.0,0.0,0.0,0.0,0.0,0.0,0.0,0.0,0.0,0.0,0.0,0.0,0.0,0.0,0.0,0.0,0.0,0.1198,-0.0334,-0.228,0.0,0.0,0.0,0.0,-0.4789,-0.4632,0.0,0.0,0.0,0.0,0.0,0.0,0.0,0.0,0.0,0.0,0.0,0.0,0.0,0.0,0.0,0.0,0.0,0.0,0.0,0.0,0.0,0.0,0.0,0.0,0.0,0.0,0.0,0.0,0.0,0.0,0.0,0.0,0.0,0.0,0.0,0.0,0.0,0.0,0.0,0.0,0.0,0.0,0.0,0.0,0.0,0.0,0.0,0.0,0.0,0.0,0.0,0.0,0.0,0.0,0.0,0.0,0.1341,0.0999,0.0165,-0.1215,-0.1426,-0.172,-0.2143,-0.2994,-0.3817,0.0,0.0,0.0,0.0,0.0,0.0,0.0,0.0,0.0,0.0,0.0,0.0,0.0,0.0,0.0,0.0,0.0,0.0,0.0,0.0,0.0,0.0,0.0,0.0,0.0,0.0,0.0,0.0,0.0,0.0,0.0,0.0,0.0,0.0,0.0,0.0,0.0,0.0,0.0,0.0,0.0,0.0044,-0.2688,-0.3853,-0.4796,0.0,0.0,-0.5657,-0.6541,-0.5746,0.0,0.0,0.0,0.0,0.0,0.0,0.0,0.0,0.0,0.0,0.0,0.0,0.0,0.0,0.0,0.0,0.0,0.0,0.0,0.0,0.0,0.0,0.0,0.0,0.0,0.0,0.0,0.0,0.0,0.0,0.0,0.0,0.0,0.0,0.0,0.0,0.0,0.0,0.0,0.0,0.0,0.0,0.0,0.0,0.0,0.0,0.0,0.0,0.0,0.0,0.0,0.0,0.0,0.0,0.0,0.218,0.0654,0.0275,-0.0381,-0.1411,-0.175,-0.199,-0.2221,-0.2745,-0.3371,0.0,0.0,0.0,0.0,0.0,0.0,0.0,0.0,0.0,0.0,0.0,0.0,0.0,0.0,0.0,0.0,0.0,0.0,0.0,0.0,0.0,0.0,0.0,0.0,0.0,0.0,0.0,0.0,0.0,0.0,0.0,0.0,0.0,0.0,0.0,0.0,0.0,0.0,0.0,0.0,0.0,0.0,-0.4138,-0.5458,0.0,0.0,0.0,-0.725,-0.7761,0.0,0.0,0.0,0.0,0.0,0.0,0.0,0.0,0.0,0.0,0.0,0.0,0.0,0.0,0.0,0.0,0.0,0.0,0.0,0.0,0.0,0.0,0.0,0.0,0.0,0.0,0.0,0.0,0.0,0.0,0.0,0.0,0.0,0.0,0.0,0.0,0.0,0.0,0.0,0.0,0.0,0.0,0.0,0.0,0.0,0.0,0.0,0.0,0.0,0.0,0.0,0.0,0.0,0.0,0.0,0.0,0.0,0.0217,-0.0199,-0.0816,-0.1636,-0.2005,-0.228,-0.2504,-0.2727,0.0,0.0,0.0,0.0,0.0,0.0,0.0,0.0,0.0,0.0,0.0,0.0,0.0,0.0,0.0,0.0,0.0,0.0,0.0,0.0,0.0,0.0,0.0,0.0,0.0,0.0,0.0,0.4928,0.0,0.0,0.0,0.0,0.0,0.0,0.0,0.0,0.0,0.0,0.0,0.0,0.0,0.0,-0.3244,-0.5882,-0.7188,-0.8271,0.0,0.0,-0.8595,-0.8734,-0.8313,-0.7606,0.0,0.0,0.0,0.0,0.0,0.0,0.0,0.0,0.0,0.0,0.0,0.0,0.0,0.0,0.0,0.0,0.0,0.0,0.0,0.0,0.0,0.0,0.0,0.0,0.0,0.0,0.0,0.0,0.0,0.0,0.0,0.0,0.0,0.0,0.0,0.0,0.0,0.0,0.0,0.0,0.0,0.0,0.0,0.0,0.0,0.0,0.0,0.0,0.0,0.0,0.0,0.0,0.0,0.0,0.0,0.0211,-0.0194,-0.0959,-0.2004,-0.2094,-0.2532,-0.3399,-0.3321,-0.3578,0.0,0.0,0.0,0.0,0.0,0.0,0.0,0.0,0.0,0.0,0.0,0.0,0.0,0.0,0.0,0.0,0.0,0.0,0.0,0.0,0.0,0.0,0.0,0.0,0.0,0.0,0.0,0.0,0.0,0.0,0.0,0.0,0.0,0.0,0.0,0.0,0.0,0.0,0.0,0.0,0.0,-0.5954,-0.8492,-0.9238,-0.9785,0.0,0.0,-0.9301,-0.9482,-0.889,-0.8026,-0.7017,0.0,0.0,0.0,0.0,0.0,0.0,0.0,0.0,0.0,0.0,0.0,0.0,0.0,0.0,0.0,0.0,0.0,0.0,0.0,0.0,0.0,0.0,0.0,0.0,0.0,0.0,0.0,0.0,0.0,0.0,0.0,0.0,0.0,0.0,0.0,0.0,0.0,0.0,0.0,0.0,0.0,0.0,0.0,0.0,0.0,0.0,0.0,0.0,0.0,0.0,0.0,0.0,0.0,0.0231,0.007,-0.0852,-0.1569,-0.204,-0.2552,-0.3019,-0.336,-0.358,-0.37,0.0,0.0,0.0,0.0,0.0,0.0,0.0,0.0,0.0,0.0,0.0,0.0,0.0,0.0,0.0,0.0,0.0,0.0,0.0,0.0,0.0,0.0,0.0,0.0,0.0,0.0,0.0,0.0,0.4575,0.5339,0.5715,0.0,0.0,0.0,0.0,0.0,0.0,0.0,0.0,0.0,0.0,-0.717,-0.987,-1.0627,0.0,0.0,-1.1147,-1.0558,-1.0159,-0.946,-0.8673,-0.7901,-0.7111,0.0,0.0,0.0,0.0,0.0,0.0,0.0,0.0,0.0,0.0,0.0,0.0,0.0,0.0,0.0,0.0,0.0,0.0,0.0,0.0,0.0,0.0,0.0,0.0,0.0,0.0,0.0,0.0,0.0,0.0,0.0,0.0,0.0,0.0,0.0,0.0,0.0,0.0,0.0,0.0,0.0,0.0,0.0,0.0,0.0,0.0,0.0,0.0,0.0,0.0,0.0,0.0,-0.0065,-0.0105,-0.1268,-0.2073,-0.2412,-0.2993,-0.3368,-0.349,-0.3767,-0.3742,0.0,0.0,0.0,0.0,0.0,0.0,0.0,0.0,0.0,0.0,0.0,0.0,0.0,0.0,0.0,0.0,0.0,0.0,0.0,0.0,0.0,0.0,0.0,0.0,0.0,0.0,0.0,0.0,0.3969,0.48,0.5217,0.0,0.0,0.0,0.0,0.0,0.0,0.0,0.0,0.0,0.0,-0.885,-1.1022,-1.1593,-1.1885,-1.2255,-1.1646,-1.0975,-1.0537,-0.9909,-0.9369,-0.8976,0.0,0.0,0.0,0.0,0.0,0.0,0.0,0.0,0.0,0.0,0.0,0.0,0.0,0.0,0.0,0.0,0.0,0.0,0.0,0.0,0.0,0.0,0.0,0.0,0.0,0.0,0.0,0.0,0.0,0.0,0.1409,0.0,0.0,0.0,0.0,0.0,0.0,0.0,0.0,0.0,0.0,0.0,0.0,0.0,0.0,0.0,0.0,0.0,0.0,0.0,0.0,0.0,0.0,-0.0099,-0.0315,-0.14,-0.2343,-0.3206,-0.3288,-0.3491,-0.3861,-0.3899,-0.3771,-0.3538,0.0,0.0,0.0,0.0,0.0,0.0,0.0,0.0,0.0,0.0,0.0,0.0,0.0,0.0,0.0,0.0,0.0,0.0,0.0,0.0,0.0,0.0,0.0,0.0,0.0,0.0,0.2941,0.3666,0.4119,0.0,0.0,0.0,0.0,0.0,0.0,0.0,0.0,0.0,0.0,-0.9569,-1.1344,-1.1973,-1.211,-1.2132,-1.2167,-1.1004,-1.0181,-1.0618,-1.029,-1.0028,0.0,0.0,0.0,0.0,0.0,0.0,0.0,0.0,0.0,0.0,0.0,0.0,0.0,0.0,0.0,0.0,0.0,0.0,0.0,0.0,0.0,0.0,0.0,0.0,0.0,0.0,0.0,0.1125,0.0923,0.0,0.0,0.0,0.0,0.0,0.0,0.0,0.0,0.0,0.0,0.0,-0.1863,-0.1921,0.0,0.0,0.0,0.0,0.0,0.0,0.0,0.0,0.0,0.0,0.0,0.0,-0.1061,-0.1016,-0.2116,-0.2876,-0.3175,-0.3452,-0.3689,-0.3849,-0.3847,-0.391,-0.4048,0.0,0.0,0.0,0.0,0.0,0.0,0.0,0.0,0.0,0.0,0.0,0.0,0.0,0.0,0.0,0.0,0.0,0.0,0.0,0.0,0.0,0.0,0.0,0.0,0.0,0.2222,0.0,0.0,0.0,0.0,0.0,0.0,0.0,0.0,0.0,0.0,0.0,-0.7033,-0.9846,-1.0994,-1.1947,-1.2928,-1.2855,-1.295,0.0,0.0,0.0,0.0,0.0,0.0,0.0,0.0,0.0,0.0,0.0,0.0,0.0,0.0,-0.7969,-0.7145,-0.727,-0.7643,-0.8103,0.0,0.0,0.0,0.0,0.0,0.0,0.0,0.0,0.0,0.0,0.0,0.0,0.0,0.0,0.0,0.0,0.0524,0.0,0.0,0.0,0.0,0.0,0.0,0.0,0.0,-0.2859,-0.2994,-0.2813,-0.285,-0.2438,0.0,-0.1117,-0.0489,0.0,0.0,0.0,0.0,0.0,0.0,0.0,0.0,-0.1555,-0.1691,-0.2594,-0.318,-0.3335,-0.3647,-0.3802,-0.3802,-0.3802,-0.408,-0.4638,-0.5061,-0.547,0.0,0.0,0.0,0.0,0.0,0.0,0.0,0.0,0.0,0.0,0.0,0.0,0.0,0.0,0.0,0.0,0.0,0.0,0.0,0.0,0.0,0.0,0.0,0.1576,0.0,0.0,0.0,0.0,0.0,0.0,0.0,0.0,0.0,-0.5526,-0.7145,-0.9068,-1.1243,-1.2026,-1.2554,-1.3034,0.0,0.0,0.0,0.0,0.0,0.0,0.0,-1.287,-1.2811,-1.2813,-1.2919,-1.3304,-1.2664,-1.2014,-1.1868,0.0,0.0,-0.9497,-0.9693,-1.0238,-1.0718,-1.0622,-1.069,-1.1529,-1.1149,-1.0774,0.0,0.0,0.0,0.0,0.0,0.0,0.0,0.0,0.0122,-0.0443,0.0,-0.0354,0.0,0.0,0.0,0.0,0.0,-0.2138,0.0,0.0,-0.3954,-0.4126,-0.392,-0.3194,-0.2574,-0.2035,-0.1257,-0.0743,-0.0546,-0.0809,0.0,0.0,0.0,0.0,0.0,0.0,-0.1612,-0.2336,-0.2866,-0.3335,-0.3763,-0.3802,-0.3802,-0.3802,-0.3841,-0.4339,-0.5295,-0.4785,-0.4977,-0.6118,-0.5191,0.0,0.0,0.0,0.0,0.0,0.0,0.0,0.0,0.0,0.0,0.0,0.0,0.0,0.0,0.0,0.0,0.0,0.0,0.0,0.0,0.046,0.0,0.0,0.0,0.0,0.0,0.0,0.0,0.0,0.0,0.0,-0.6846,-0.9442,-1.145,-1.1461,0.0,0.0,0.0,0.0,-1.2797,-1.3791,-1.3717,-1.3835,-1.4734,-1.4719,-1.468,-1.478,0.0,0.0,-1.5145,-1.432,-1.348,-1.3131,-1.2931,-1.2573,-1.1099,-1.1295,-1.1916,-1.2495,-1.2281,-1.2251,-1.2823,-1.2238,-1.1806,0.0,0.0,0.0,0.0,0.0,0.0586,0.0339,0.0609,-0.0601,-0.1096,-0.1033,-0.066,0.0,0.0,0.0,0.0,0.0,0.0,-0.3471,-0.3966,-0.4105,-0.4191,-0.4176,-0.3595,-0.3187,-0.2953,-0.2086,-0.1594,-0.1498,-0.1578,-0.1163,-0.0379,0.0,0.0,0.0,0.0,-0.2837,-0.2908,-0.3332,-0.3647,-0.3802,-0.3802,-0.3802,-0.3802,-0.4233,-0.4567,-0.4884,-0.5028,-0.5331,-0.5827,-0.5385,0.0,0.0,0.0,0.0,0.0,0.0,0.0,0.0,0.0,0.0,0.0,0.0,0.0,0.0,0.0,0.0,0.0,0.0,0.0,-0.1237,-0.1174,-0.1032,0.0,0.0,0.0,0.0,0.0,0.0,0.0,0.0,0.0,-1.0017,-1.1024,-1.2048,0.0,0.0,-1.3844,-1.3275,-1.3197,-1.3459,-1.4346,0.0,0.0,0.0,-1.4084,-1.4048,-1.4193,-1.4943,-1.5402,-1.4852,-1.3937,-1.3026,-1.2372,-1.2236,-1.2083,-1.181,-1.2813,-1.3599,-1.3421,-1.342,-1.3403,-1.3162,-1.2836,-1.2601,-0.0766,-0.0604,0.0345,0.0912,0.114,0.0173,-0.0044,0.0179,-0.0928,-0.1355,-0.1339,-0.0993,-0.0931,-0.1104,-0.1093,0.0,0.0,0.0,-0.3916,-0.4224,-0.4224,-0.4232,-0.4244,-0.3713,-0.3333,-0.3068,-0.2331,-0.1887,-0.1688,-0.1648,-0.1355,-0.0762,0.0,0.0,-0.1623,-0.2769,-0.3371,-0.3375,-0.3659,-0.3802,-0.3802,-0.3802,-0.3802,-0.3802,-0.4153,-0.4465,-0.4698,-0.4747,-0.4972,-0.5444,-0.5226,-0.492,0.0,0.0,0.0,0.0,0.0,0.0,0.0,0.0,0.0,0.0,0.0,0.0329,0.0,0.0,0.0,0.0,-0.1666,-0.2152,-0.2794,-0.2772,0.0,0.0,0.0,0.0,0.0,0.0,0.0,-0.7029,-0.8858,-1.0367,-1.1295,-1.2059,-1.2754,-1.3261,-1.354,-1.3561,-1.3124,0.0,-1.342,-1.44,-1.3985,-1.382,-1.4563,-1.4801,-1.4872,-1.4847,-1.5194,-1.5325,-1.4689,-1.3442,-1.2318,-1.186,-1.1638,-1.1543,-1.1543,-1.2812,-1.3838,-1.3635,-1.3566,-1.3404,-1.2971,-1.2702,-1.2444,-0.1326,-0.0942,0.0403,0.0987,0.0897,0.0224,-0.009,-0.0179,-0.1031,-0.1391,-0.1391,-0.1391,-0.1686,-0.2133,-0.2983,0.0,-0.3526,-0.3964,-0.4224,-0.4253,-0.4255,-0.4166,-0.4086,-0.3599,-0.3092,-0.252,-0.215,-0.1724,-0.1337,-0.13,-0.1247,-0.1219,-0.2093,-0.2506,-0.2534,-0.2917,-0.3375,-0.3802,-0.3802,-0.3802,-0.3802,-0.3802,-0.3802,-0.3802,-0.3795,-0.4064,-0.4569,-0.4133,-0.423,-0.5003,-0.4926,-0.4852,-0.4786,0.0,0.0,0.0,0.0,0.0,0.0,0.0,0.0,0.0,0.0,0.0,0.0,0.0,0.0,0.0,-0.3481,0.0,-0.4156,-0.4261,0.0,0.0,0.0,-0.4718,-0.5737,-0.6005,-0.6681,-0.8203,0.0,0.0,-1.1284,0.0,-1.3344,-1.3077,-1.2946,-1.2757,-1.2426,-1.244,-1.2854,-1.3968,-1.436,-1.4739,-1.5183,-1.5699,-1.5945,-1.5897,-1.5528,-1.4822,-1.4275,-1.2828,-1.158,-1.1308,-1.1151,-1.0996,-1.0989,-1.1863,-1.2694,-1.3386,-1.302,-1.2563,-1.2461,-1.2065,-1.1691,-0.1051,-0.0762,-0.0269,-0.0135,-0.0314,-0.0673,-0.0852,-0.0897,-0.1211,-0.1391,-0.1391,-0.1391,-0.17,-0.2226,-0.2788,-0.3232,-0.3604,-0.4047,-0.4101,-0.3765,-0.3765,-0.3546,-0.3123,-0.2646,-0.2338,-0.2113,-0.1677,-0.1422,-0.1298,-0.132,-0.1288,-0.1321,-0.2159,-0.2552,-0.2539,-0.3237,-0.3665,-0.3802,-0.3802,-0.3802,-0.3802,-0.3802,-0.3802,-0.3802,-0.3695,-0.3734,-0.3846,-0.4075,-0.4372,-0.4789,-0.5239,-0.5216,-0.4623,-0.4516,0.0,0.0,0.0,0.0,0.0,0.0,0.0,0.0,0.0,-0.2158,-0.2231,0.0,-0.287,0.0,-0.4579,-0.5394,-0.5665,-0.5726,0.0,0.0,-0.5649,-0.5844,-0.6958,-0.753,-0.8249,-0.909,-1.0234,-1.123,-1.1973,-1.2391,-1.265,-1.2795,-1.3168,-1.3117,-1.2249,-1.2461,-1.2706,-1.2835,-1.3049,-1.3235,-1.3481,-1.3554,-1.4035,-1.4852,-1.4244,-1.3362,-1.2657,-1.1847,-1.0983,-1.0348,-1.064,-1.0915,-1.0863,-1.1577,-1.225,-1.2646,-1.2451,-1.2117,-1.1898,-1.1705,-1.1665,-0.0868,-0.0583,-0.0448,-0.0404,-0.0404,-0.0762,-0.0897,-0.0942,-0.1256,-0.1391,-0.1436,-0.1883,-0.2241,-0.2556,-0.3226,-0.3673,-0.3898,-0.3989,-0.3853,-0.3587,-0.3361,-0.3102,-0.2735,-0.2294,-0.2036,-0.195,-0.1525,-0.1317,-0.1318,-0.1294,-0.1303,-0.1302,-0.1971,-0.2368,-0.2542,-0.335,-0.3802,-0.3802,-0.3802,-0.3802,-0.3802,-0.3802,-0.3802,-0.3802,-0.3716,-0.384,-0.4105,-0.4319,-0.4712,-0.5194,-0.5751,-0.5951,-0.5745,-0.5643,-0.5341,0.0,0.0,0.0,0.0,0.0,0.0,0.0,0.0,0.0,0.0,0.0,-0.5464,0.0,-0.69,-0.7353,-0.7613,-0.7228,-0.7054,-0.7177,-0.6814,-0.6791,-0.7445,-0.7981,-0.8601,-0.9433,-1.0447,-1.1358,-1.2189,-1.2488,-1.2632,-1.2577,-1.2783,-1.2688,-1.2052,-1.2031,-1.2055,-1.1958,-1.2082,-1.2409,-1.287,-1.2988,-1.3255,-1.4029,-1.3601,-1.2788,-1.215,-1.1361,-1.0623,-1.0169,-1.0365,-1.0699,-1.0915,-1.1325,-1.1806,-1.2119,-1.2065,-1.186,-1.1806,-1.1889,-1.2028,-0.0775,-0.0359,-0.0359,-0.0224,-0.009,-0.0494,-0.0718,-0.0718,-0.1211,-0.1436,-0.157,-0.242,-0.2868,-0.3045,-0.3851,-0.421,-0.4166,-0.3765,-0.3544,-0.3408,-0.3004,-0.2705,-0.2519,-0.2167,-0.1953,-0.1788,-0.146,-0.1297,-0.1297,-0.1301,-0.1303,-0.1301,-0.1751,-0.2167,-0.2522,-0.3377,-0.3802,-0.3802,-0.3802,-0.3802,-0.3802,-0.3802,-0.3841,-0.3919,-0.3908,-0.4171,-0.4753,-0.4894,-0.529,-0.6023,-0.6471,-0.6906,-0.7346,-0.7113,-0.7164,0.0,-0.6702,0.0,0.0,0.0,0.0,0.0,0.0,0.0,0.0,-0.779,-0.8517,-0.9877,-0.9463,-0.9197,-0.9418,-0.8545,-0.8017,-0.8129,-0.7735,-0.7423,-0.7406,-0.7891,-0.8521,-0.9307,-1.0334,-1.1319,-1.2017,-1.262,-1.2727,-1.2311,-1.213,-1.197,-1.1656,-1.1474,-1.1335,-1.1232,-1.1455,-1.2006,-1.2883,-1.3094,-1.3148,-1.3568,-1.3047,-1.2494,-1.2024,-1.1106,-1.033,-1.0271,-1.0219,-1.0372,-1.0867,-1.1069,-1.1364,-1.1833,-1.1803,-1.1767,-1.1963,-1.2164,-1.2332,-0.0495,-0.009,-0.009,-0.018,-0.0359,-0.0583,-0.0718,-0.0718,-0.1211,-0.166,-0.2064,-0.2242,-0.2735,-0.3451,-0.3631,-0.3721,-0.3721,-0.3631,-0.3184,-0.2467,-0.2378,-0.2085,-0.1649,-0.1489,-0.1457,-0.1424,-0.1357,-0.1305,-0.1305,-0.1331,-0.1303,-0.1303,-0.2063,-0.2504,-0.2622,0.0,0.0,0.0,-0.3802,-0.3802,-0.3802,-0.3802,-0.4036,-0.4504,-0.4495,0.0,-0.5341,-0.6016,-0.6596,-0.702,-0.7471,0.0,0.0,0.0,0.0,0.0,0.0,0.0,0.0,0.0,0.0,0.0,-0.9929,-1.0023,-0.9683,-0.9776,-1.0054,-1.0496,-0.9894,-0.9568,-0.9755,-0.8786,-0.8102,-0.8021,-0.7483,-0.7044,-0.6933,-0.807,-0.8928,-0.8867,-1.0402,-1.1444,-1.1491,-1.1674,-1.1754,-1.1595,-1.1624,-1.152,-1.1141,-1.1198,-1.113,-1.0775,-1.113,-1.1815,-1.2672,-1.228,-1.2062,-1.2333,-1.1763,-1.1131,-1.0852,-1.0462,-0.9967,-0.9767,-0.9945,-1.0147,-1.0217,-1.0746,-1.1247,-1.162,-1.1784,-1.193,-1.1989,-1.2054,-1.2149,0.0185,0.0,0.0,-0.0137,0.0,-0.0631,-0.0762,-0.0942,-0.1256,-0.1705,-0.22,-0.2466,-0.2959,-0.3587,-0.3587,-0.3587,-0.3587,-0.3139,-0.2648,-0.22,-0.193,-0.165,-0.1411,-0.1325,-0.1298,-0.1324,-0.1294,-0.1319,-0.132,-0.1296,-0.1303,-0.1303,-0.1969,-0.2357,-0.2553,-0.3313,-0.3695,-0.3695,-0.3779,-0.3781,-0.3738,-0.4048,-0.4387,-0.4698,0.0,0.0,0.0,0.0,0.0,0.0,0.0,0.0,0.0,0.0,0.0,-0.8134,-0.8472,-0.8749,-0.893,-0.9645,-1.0413,-1.1228,-1.1898,-1.202,-1.1385,-1.1506,-1.1782,-1.2076,-1.1411,-1.0762,-1.0298,-0.94,-0.8431,-0.7517,-0.7515,-0.7497,-0.728,-0.8501,-0.9419,-0.9363,-1.0437,-1.1244,-1.1118,-1.1277,-1.134,-1.1209,-1.1209,-1.1123,-1.0874,-1.1055,-1.1068,-1.0681,-1.0717,-1.1089,-1.1533,-1.1422,-1.1228,-1.1527,-1.1181,-1.0777,-1.0619,-1.0233,-0.9893,-0.971,-0.9721,-0.9765,-1.002,-1.0267,-1.0631,-1.1269,-1.1435,-1.1593,-1.1895,-1.2127,-1.2222,0.0903,0.0237,0.0047,-0.0231,-0.0459,-0.0678,-0.0942,-0.1166,0.0,0.0,0.0,-0.2599,-0.3048,-0.3451,-0.3496,-0.3452,-0.3318,-0.2557,-0.2155,-0.2064,-0.1615,-0.1387,-0.1425,-0.133,-0.1304,-0.1297,-0.1309,-0.1294,-0.1294,-0.1294,-0.1332,-0.1405,-0.1771,-0.2216,-0.267,-0.3262,-0.3558,-0.3585,-0.3671,-0.3689,-0.363,-0.4315,-0.4756,-0.4854,-0.547,-0.6279,-0.7318,-0.7433,-0.7976,-0.897,-0.8862,-0.8938,-0.9289,-0.9244,-0.9349,-0.9724,-0.9921,-1.0195,-1.0533,-1.0671,-1.1263,-1.2368,-1.2791,-1.2889,-1.2524,-1.272,-1.3027,-1.3466,-1.2656,-1.174,-1.0902,-0.9989,-0.8753,-0.7089,-0.7632,-0.7877,-0.7511,-0.8634,-0.9523,-0.9712,-1.0362,-1.0908,-1.0802,-1.0987,-1.1067,-1.0914,-1.0829,-1.0781,-1.066,-1.0816,-1.0885,-1.0737,-1.0503,-1.0375,-1.058,-1.0665,-1.0707,-1.0863,-1.0795,-1.0646,-1.0506,-1.0154,-0.9849,-0.9716,-0.9401,-0.9368,-0.9713,-0.9622,-0.9804,-1.0751,-1.0809,-1.0836,-1.1545,-1.1912,-1.2029,0.1319,0.1252,0.0139,-0.0458,-0.0676,-0.0943,-0.1166,-0.1346,-0.1391,-0.1705,-0.22,-0.2288,-0.2556,-0.3001,-0.3001,-0.278,-0.2378,-0.2244,-0.193,0.0,-0.1436,-0.1421,-0.1395,-0.1321,-0.1292,-0.1308,-0.1318,-0.1303,-0.1303,-0.1303,-0.1407,-0.1688,-0.2095,-0.2672,-0.332,-0.3487,-0.3479,-0.3441,-0.3491,-0.3567,-0.3624,-0.4282,-0.4904,-0.5461,-0.6089,-0.6945,-0.791,-0.828,-0.8727,-0.9228,-0.9395,-0.9578,-0.9787,-0.9584,-0.9539,-0.9701,-0.995,-1.0082,-1.0012,-1.0606,-1.119,-1.1742,-1.1887,-1.2119,-1.2542,-1.2625,-1.275,-1.2948,-1.2061,-1.1364,-1.1295,-1.0212,-0.897,-0.7871,-0.7533,-0.7355,-0.7202,-0.7946,-0.8718,-0.9409,-1.0139,-1.0567,-1.0412,-1.0505,-1.0551,-1.0366,-1.0407,-1.0518,-1.0579,-1.039,-1.0337,-1.0545,-1.0268,-1.0112,-1.028,-1.0346,-1.0353,-1.0225,-1.0237,-1.0125,-0.9847,-0.9637,-0.9487,-0.933,-0.899,-0.8824,-0.8919,-0.884,-0.9047,-0.9623,-0.9799,-1.009,-1.0597,-1.0782,-1.0984,0.2741,0.2154,0.0928,0.0505,0.0637,0.009,-0.0179,-0.0269,-0.0269,-0.0987,-0.2155,-0.22,-0.2466,-0.2865,-0.2613,-0.238,-0.216,-0.1875,-0.1562,-0.1344,-0.1344,-0.1337,-0.1323,-0.1295,-0.1316,-0.1301,-0.1311,-0.1297,-0.1295,-0.1241,-0.1379,-0.1741,-0.2352,-0.2926,-0.3432,-0.3463,-0.3381,-0.3295,-0.343,-0.364,-0.3919,-0.4588,-0.52,-0.5817,-0.6452,-0.7282,-0.8239,-0.8431,-0.889,-0.9582,-0.9627,-0.9626,-0.9717,-0.9589,-0.9578,-0.9741,-0.9956,-1.0136,-1.0328,-1.0791,-1.1071,-1.1156,-1.1156,-1.1292,-1.1552,-1.1897,-1.2216,-1.2486,-1.2029,-1.1473,-1.0909,-0.9908,-0.8711,-0.7342,-0.7469,-0.7657,-0.7691,-0.8688,-0.9514,-0.9842,-1.0073,-1.0122,-0.9916,-0.9948,-0.9938,-0.986,-1.0005,-1.0231,-1.0437,-1.0187,-1.0069,-1.0364,-1.0033,-0.982,-0.9932,-0.9951,-0.9942,-0.9933,-0.9857,-0.9718,-0.9497,-0.9344,-0.9063,-0.8761,-0.8513,-0.8211,-0.7954,-0.7869,-0.818,-0.8811,-0.9035,-0.9404,-1.0019,-1.0228,-1.0296,0.3982,0.3016,0.1765,0.1381,0.1512,0.0948,0.0718,0.0718,0.0673,-0.0135,-0.1436,-0.1525,-0.1834,-0.222,-0.1881,-0.1777,-0.1853,-0.1485,-0.1306,-0.1306,-0.1306,-0.1303,-0.1294,-0.1313,-0.1295,-0.1281,-0.1258,-0.1282,-0.1274,-0.1213,-0.1423,-0.1859,-0.261,-0.3082,-0.3336,-0.3368,-0.3297,-0.3206,-0.3471,-0.3803,-0.4206,-0.4956,-0.5552,-0.5986,-0.6706,-0.7489,-0.8284,-0.8446,-0.8916,-0.9745,-0.9723,-0.9658,-0.9684,-0.9581,-0.9621,-0.9832,-0.9915,-1.0166,-1.0629,-1.0875,-1.096,-1.0828,-1.0773,-1.081,-1.0822,-1.1249,-1.1627,-1.1821,-1.1759,-1.1297,-1.0302,-0.9584,-0.8495,-0.6943,-0.7335,-0.7773,-0.7973,-0.91,-1.0056,-1.0078,-0.9992,-0.9718,-0.9384,-0.9264,-0.9257,-0.9342,-0.9597,-0.9933,-1.0133,-0.9988,-0.9948,-0.9978,-0.9739,-0.9483,-0.9556,-0.9524,-0.9533,-0.9593,-0.9372,-0.9236,-0.9157,-0.8852,-0.8508,-0.8197,-0.7837,-0.7514,-0.713,-0.6942,-0.7257,-0.7908,-0.8236,-0.8699,-0.9643,-0.9797,-0.9807,0.4186,0.3567,0.2308,0.1371,0.0855,0.0763,0.0762,0.0762,0.0718,0.0628,0.0403,0.0448,0.0044,-0.048,-0.0521,-0.0815,-0.1351,-0.1307,-0.1303,-0.1302,-0.1305,-0.1292,-0.1307,-0.1303,-0.1274,-0.1227,-0.1218,-0.1203,-0.1217,-0.1247,-0.1554,-0.2153,-0.2816,-0.3185,-0.3206,-0.3242,-0.3202,-0.3194,-0.3713,-0.4036,-0.4266,-0.5284,-0.5878,-0.6018,-0.6948,-0.7668,-0.8113,-0.8655,-0.9139,-0.9584,-0.9782,-0.9879,-0.9846,-0.97,-0.9721,-1.0024,-0.9907,-1.0102,-1.0617,-1.0701,-1.0821,-1.1051,-1.1014,-1.1008,-1.1008,-1.1081,-1.1016,-1.0842,-1.0635,-1.0377,-0.9673,-0.9382,-0.8522,-0.6889,-0.6818,-0.7196,-0.7797,-0.7922,-0.8396,-0.9829,-0.9622,-0.9301,-0.8507,-0.8413,-0.8533,-0.8696,-0.9025,-0.9451,-0.9799,-0.9744,-0.9593,-0.9644,-0.945,-0.9245,-0.9144,-0.9062,-0.9043,-0.8918,-0.867,-0.8585,-0.8463,-0.8075,-0.7537,-0.7593,-0.714,-0.6698,-0.6466,-0.6263,-0.6267,-0.6957,-0.7463,-0.7946,-0.8829,-0.9214,-0.9388,0.4933,0.4396,0.3171,0.2121,0.148,0.1795,0.2019,0.1972,0.1948,0.1937,0.1934,0.1912,0.1081,-0.026,-0.0167,-0.0489,-0.1091,-0.0957,-0.095,-0.1071,-0.1084,-0.1118,-0.1251,-0.1249,-0.1226,-0.1187,-0.1185,-0.1179,-0.1274,-0.158,-0.1933,-0.2229,-0.2872,-0.3192,-0.3192,-0.3192,-0.3192,-0.3192,-0.3727,-0.4182,-0.4591,-0.5309,-0.5884,-0.6215,-0.6635,-0.7206,-0.7861,-0.816,-0.8614,-0.931,-0.9448,-0.9491,-0.9497,-0.9405,-0.9529,-0.9949,-1.0126,-1.0266,-1.0328,-1.0498,-1.0563,-1.0522,-1.051,-1.051,-1.051,-1.0346,-1.0172,-0.9989,-1.0319,-1.0285,-0.9319,-0.8751,-0.788,-0.6688,-0.6429,-0.6781,-0.7596,-0.7529,-0.7879,-0.8835,-0.8411,-0.7829,-0.7485,-0.7441,-0.7707,-0.8098,-0.8405,-0.8652,-0.9208,-0.9218,-0.8931,-0.8597,-0.8414,-0.8571,-0.8721,-0.8861,-0.8736,-0.8513,-0.8351,-0.8267,-0.7875,-0.7674,-0.7335,-0.7011,-0.6616,-0.6219,-0.5969,-0.5889,-0.5872,-0.6421,-0.7186,-0.7877,-0.8189,-0.8564,-0.8869,0.5329,0.4652,0.358,0.2732,0.2153,0.2632,0.2893,0.2885,0.2785,0.2758,0.2795,0.282,0.1806,0.0254,0.0202,-0.0118,-0.0777,-0.0687,-0.0716,-0.0864,-0.0878,-0.103,-0.1163,-0.1199,-0.1184,-0.1194,-0.1154,-0.1185,-0.1247,-0.1858,-0.2196,-0.2294,-0.2857,-0.3192,-0.3192,-0.3192,-0.3192,-0.3261,-0.3727,-0.4256,-0.4782,-0.5315,-0.5848,-0.635,-0.6486,-0.6846,-0.7519,-0.7778,-0.825,-0.8925,-0.9098,-0.9171,-0.9171,-0.9171,-0.9393,-0.9763,-1.0169,-1.0336,-1.0159,-1.0148,-1.0178,-1.0205,-1.0025,-0.9878,-0.9882,-0.9899,-0.958,-0.8986,-0.973,-0.9702,-0.8599,-0.7782,-0.6946,-0.5963,-0.5838,-0.6169,-0.6912,-0.6982,-0.7196,-0.7803,-0.735,-0.6625,-0.6432,-0.6274,-0.6406,-0.7312,-0.7377,-0.7598,-0.8268,-0.8255,-0.7835,-0.7375,-0.7299,-0.7455,-0.7962,-0.8164,-0.8106,-0.7989,-0.7812,-0.7707,-0.7354,-0.7259,-0.6964,-0.6499,-0.6255,-0.6023,-0.5694,-0.5588,-0.5697,-0.617,-0.6831,-0.7536,-0.7771,-0.8076,-0.8262,0.5151,0.4255,0.332,0.2869,0.2825,0.2811,0.2788,0.2782,0.2765,0.2738,0.2772,0.3041,0.2357,0.0978,0.0971,0.0356,-0.0533,-0.0568,-0.0672,-0.0879,-0.0879,-0.0988,-0.1169,-0.1205,-0.1189,-0.1125,-0.1123,-0.111,-0.1152,-0.1859,-0.2192,-0.2255,-0.2893,-0.3192,-0.3192,-0.3192,-0.3192,-0.3259,-0.3694,-0.4225,-0.4749,-0.5315,-0.5815,-0.6317,-0.6683,-0.6889,-0.7052,-0.7798,-0.831,-0.8354,-0.8883,-0.9184,-0.919,-0.919,-0.9311,-0.9506,-0.9967,-1.0164,-1.0061,-0.9633,-0.9594,-1.013,-0.9606,-0.9309,-0.9288,-0.9729,-0.9369,-0.7869,-0.8408,-0.8316,-0.7322,-0.6776,-0.601,-0.513,-0.4922,-0.5284,-0.5926,-0.6053,-0.6242,-0.6694,-0.6593,-0.6072,-0.5443,-0.4755,-0.5204,-0.5994,-0.6021,-0.6112,-0.7105,-0.69,-0.653,-0.6376,-0.6245,-0.614,-0.6345,-0.6903,-0.713,-0.7094,-0.7086,-0.7097,-0.6938,-0.6707,-0.6321,-0.5969,-0.5732,-0.5542,-0.5365,-0.5428,-0.5656,-0.5968,-0.6213,-0.6701,-0.7477,-0.7551,-0.7797,0.5151,0.4249,0.3578,0.3122,0.2853,0.2751,0.2767,0.2762,0.2948,0.3002,0.3071,0.3409,0.2818,0.1587,0.1588,0.0859,-0.0341,-0.0298,-0.0404,-0.0692,-0.0692,-0.0867,-0.1138,-0.1137,-0.1121,-0.1096,-0.1091,-0.1087,-0.1178,-0.1849,-0.2188,-0.2321,-0.2893,-0.3192,-0.3192,-0.3192,-0.3192,-0.3228,-0.3395,-0.3758,-0.4289,-0.4818,-0.5345,-0.5885,-0.635,-0.6679,-0.6881,-0.747,-0.79,-0.8098,-0.8517,-0.8764,-0.8781,-0.8904,-0.9019,-0.912,-0.9386,-0.9371,-0.8995,-0.8733,-0.8546,-0.8407,-0.8198,-0.8069,-0.8179,-0.8341,-0.8074,-0.7368,-0.6929,-0.6634,-0.6278,-0.6065,-0.5777,-0.4991,-0.4793,-0.5072,-0.5574,-0.5403,-0.5253,-0.5702,-0.5388,-0.4737,-0.4571,-0.4272,-0.4546,-0.5257,-0.5266,-0.5547,-0.6177,-0.6159,-0.578,-0.5532,-0.5385,-0.5125,-0.4468,-0.5571,-0.6272,-0.6332,-0.6371,-0.6308,-0.6182,-0.6178,-0.5896,-0.5705,-0.5381,-0.5341,-0.5305,-0.5305,-0.554,-0.5891,-0.6109,-0.6485,-0.7316,-0.7477,-0.775,0.5003,0.4378,0.3847,0.3439,0.3173,0.3107,0.3077,0.3111,0.3325,0.3371,0.3478,0.3826,0.3212,0.2073,0.206,0.1268,-0.0113,-0.0074,-0.0183,-0.054,-0.0576,-0.0745,-0.1041,-0.1106,-0.1095,-0.111,-0.1065,-0.1062,-0.1126,-0.1677,-0.1974,-0.2055,-0.2586,-0.2933,-0.3019,-0.3025,-0.3092,-0.3159,-0.3192,-0.346,-0.3995,-0.4353,-0.4785,-0.5315,-0.5881,-0.6313,-0.6716,-0.7106,-0.7461,-0.7819,-0.8149,-0.8382,-0.85,-0.8662,-0.8787,-0.8803,-0.8964,-0.8781,-0.817,-0.7897,-0.7601,-0.7252,-0.6903,-0.6785,-0.6893,-0.7045,-0.678,-0.6179,-0.6013,-0.5676,-0.5343,-0.5461,-0.5378,-0.4837,-0.4716,-0.4884,-0.5294,-0.4771,-0.4619,-0.4759,-0.4408,-0.3934,-0.383,-0.3938,-0.4254,-0.4762,-0.4641,-0.4782,-0.5329,-0.5208,-0.4919,-0.4624,-0.4536,-0.4235,-0.3851,-0.4439,-0.5024,-0.5152,-0.5648,-0.5593,-0.5635,-0.562,-0.5576,-0.5384,-0.5301,-0.5274,-0.5274,-0.5242,-0.5485,-0.5864,-0.6028,-0.6295,-0.6972,-0.7542,-0.7706,0.4713,0.459,0.4118,0.3867,0.3811,0.3773,0.3857,0.3802,0.3808,0.3814,0.3855,0.4192,0.3402,0.2257,0.2178,0.151,0.0,0.0,-0.0183,-0.0494,-0.0491,-0.0726,-0.108,-0.1114,-0.1111,-0.1104,-0.1047,-0.1002,-0.1032,-0.1388,-0.1606,-0.1672,-0.2006,-0.2428,-0.272,-0.2753,-0.2889,-0.3125,-0.3192,-0.346,-0.3928,-0.4028,-0.4323,-0.4782,-0.5348,-0.5885,-0.6383,-0.6749,-0.7106,-0.7493,-0.7824,-0.8182,-0.8452,-0.8538,-0.8528,-0.8538,-0.8743,-0.8464,-0.7811,-0.7185,-0.6879,-0.6651,-0.6115,-0.564,-0.5761,-0.6182,-0.5939,-0.4935,-0.5112,-0.5337,-0.4754,-0.4723,-0.4753,-0.4539,-0.4558,-0.4533,-0.4395,-0.4194,-0.4031,-0.3963,-0.3826,-0.3734,-0.3654,-0.3652,-0.3919,-0.4216,-0.4089,-0.3946,-0.4447,-0.4238,-0.3764,-0.3688,-0.3812,-0.371,-0.3447,-0.3304,-0.3583,-0.3941,-0.4601,-0.4951,-0.5152,-0.5215,-0.5325,-0.5215,-0.5187,-0.5187,-0.5128,-0.5128,-0.5348,-0.5645,-0.5832,-0.6171,-0.6748,-0.731,-0.7524,0.4993,0.4694,0.4458,0.4186,0.393,0.3844,0.3845,0.3884,0.4084,0.4229,0.419,0.4068,0.3372,0.2407,0.1891,0.1047,0.0,0.0,-0.0181,-0.0456,-0.0482,-0.0714,-0.1044,-0.1109,-0.1065,-0.1048,-0.1006,-0.1022,-0.1066,-0.1331,-0.1532,-0.1634,-0.1931,-0.2323,-0.2676,-0.2686,-0.2855,-0.3159,-0.3192,-0.3293,-0.3493,-0.383,-0.4061,-0.4325,-0.512,-0.5683,-0.5885,-0.6515,-0.6946,-0.7101,-0.7657,-0.8149,-0.8414,-0.8517,-0.8517,-0.8457,-0.8113,-0.7617,-0.6888,-0.6135,-0.5514,-0.5132,-0.4663,-0.4512,-0.4577,-0.4812,-0.4776,-0.4296,-0.4565,-0.4586,-0.4528,-0.4445,-0.4469,-0.4616,-0.4555,-0.4416,-0.4191,-0.4001,-0.3884,-0.3797,-0.3715,-0.3652,-0.3624,-0.3613,-0.3697,-0.386,-0.3722,-0.3749,-0.3805,-0.3749,-0.361,-0.3613,-0.353,-0.3416,-0.3218,-0.3079,-0.319,-0.3408,-0.3879,-0.4463,-0.4688,-0.4908,-0.5018,-0.5101,-0.5073,-0.503,-0.4976,-0.5093,-0.5344,-0.5585,-0.5886,-0.6286,-0.6728,-0.7095,-0.7366,0.5078,0.4824,0.4756,0.4609,0.4323,0.4258,0.4233,0.4272,0.4506,0.4623,0.4538,0.4031,0.3331,0.2484,0.1668,0.0838,0.0072,-0.0071,-0.0246,-0.045,-0.0482,-0.0714,-0.1042,-0.1063,-0.1052,-0.0999,-0.0979,-0.0959,-0.0971,-0.117,-0.1362,-0.1552,-0.1747,-0.2088,-0.2536,-0.2666,-0.2845,-0.3113,-0.3176,-0.3192,-0.3259,-0.3527,-0.3694,-0.3828,-0.4558,-0.4957,-0.5054,-0.5716,-0.6379,-0.6909,-0.7596,-0.8117,-0.8452,-0.8284,-0.8149,-0.7987,-0.7396,-0.6671,-0.5972,-0.5362,-0.4718,-0.4154,-0.3861,-0.38,-0.3883,-0.3875,-0.392,-0.4018,-0.4168,-0.4189,-0.4318,-0.4399,-0.4444,-0.4597,-0.4506,-0.4306,-0.408,-0.3906,-0.3772,-0.372,-0.3657,-0.3621,-0.3613,-0.3613,-0.3613,-0.3613,-0.3613,-0.3613,-0.3585,-0.3557,-0.353,-0.3471,-0.3388,-0.3218,-0.3051,-0.2942,-0.286,-0.3026,-0.3274,-0.3855,-0.427,-0.4574,-0.4743,-0.4932,-0.4987,-0.4861,-0.4822,-0.5124,-0.5418,-0.5676,-0.593,-0.6597,-0.7086,-0.7114,-0.7357,0.506,0.5018,0.4982,0.4987,0.4951,0.494,0.489,0.496,0.496,0.4947,0.4766,0.3953,0.3231,0.2413,0.1509,0.067,0.007,-0.0206,-0.0272,-0.0409,-0.0514,-0.0754,-0.1035,-0.1043,-0.0994,-0.0982,-0.0911,-0.0887,-0.091,-0.0947,-0.1055,-0.1392,-0.149,-0.1775,-0.2345,-0.2553,-0.2788,-0.3069,-0.3158,-0.3192,-0.3192,-0.3228,-0.3228,-0.3261,-0.3794,-0.4128,-0.4225,-0.4752,-0.558,-0.6745,-0.7493,-0.7987,-0.822,-0.7787,-0.7456,-0.7391,-0.6568,-0.5877,-0.5249,-0.4818,-0.4392,-0.384,-0.3616,-0.3499,-0.3578,-0.3545,-0.3547,-0.3644,-0.39,-0.4082,-0.4168,-0.4329,-0.4452,-0.4476,-0.4357,-0.4189,-0.3971,-0.383,-0.375,-0.3654,-0.3616,-0.3613,-0.3613,-0.3613,-0.3613,-0.3585,-0.3557,-0.3444,-0.3502,-0.3416,-0.3388,-0.3302,-0.3218,-0.3109,-0.2942,-0.2858,-0.2805,-0.2802,-0.2968,-0.3327,-0.3965,-0.4325,-0.4605,-0.4767,-0.4835,-0.4703,-0.4683,-0.4919,-0.5229,-0.5466,-0.6026,-0.6921,-0.7146,-0.7031,-0.7237,0.5401,0.5018,0.5018,0.5018,0.5018,0.5018,0.4961,0.4849,0.4847,0.4836,0.4538,0.3281,0.2657,0.2248,0.0989,0.0209,0.0,-0.0203,-0.0101,-0.0034,-0.0508,-0.0804,-0.1011,-0.1014,-0.0958,-0.0938,-0.0921,-0.0873,-0.0882,-0.0874,-0.1084,-0.1384,-0.1442,-0.1814,-0.2441,-0.2592,-0.2805,-0.3117,-0.3174,-0.3192,-0.3192,-0.3192,-0.3192,-0.3259,-0.373,-0.3961,-0.4061,-0.4522,-0.5378,-0.6609,-0.7027,-0.7358,-0.7657,-0.7092,-0.6662,-0.6531,-0.5877,-0.5319,-0.4987,-0.4325,-0.3797,-0.3596,-0.3429,-0.3305,-0.329,-0.3358,-0.3471,-0.3609,-0.3853,-0.3994,-0.4154,-0.4283,-0.4357,-0.433,-0.4249,-0.4081,-0.3927,-0.383,-0.3739,-0.3638,-0.3616,-0.3613,-0.3613,-0.3557,-0.3557,-0.3499,-0.3246,-0.3077,-0.319,-0.3023,-0.2856,-0.3079,-0.3051,-0.297,-0.2888,-0.2805,-0.2719,-0.2663,-0.2745,-0.2907,-0.3602,-0.4242,-0.4522,-0.4743,-0.4684,-0.4573,-0.4424,-0.4446,-0.4787,-0.5402,-0.5808,-0.6459,-0.654,-0.6527,-0.699,0.5709,0.5318,0.5038,0.4903,0.4931,0.4887,0.4825,0.4768,0.4757,0.4722,0.4395,0.3339,0.259,0.2167,0.1038,0.0274,0.0,-0.0202,-0.0202,-0.0167,-0.0624,-0.0908,-0.0991,-0.0992,-0.093,-0.0914,-0.0872,-0.0886,-0.0872,-0.0897,-0.1134,-0.1493,-0.1557,-0.1943,-0.2602,-0.2726,-0.2868,-0.3081,-0.3179,-0.3192,-0.3192,-0.3192,-0.3192,-0.3228,-0.3529,-0.3661,-0.3727,-0.4284,-0.5209,-0.6108,-0.6404,-0.6535,-0.6802,-0.6239,-0.5873,-0.5807,-0.4954,-0.4425,-0.4325,-0.3727,-0.3395,-0.3362,-0.3261,-0.3228,-0.3202,-0.3279,-0.3374,-0.3475,-0.3714,-0.3885,-0.4049,-0.4167,-0.4275,-0.4292,-0.4191,-0.4038,-0.3916,-0.3778,-0.3698,-0.3632,-0.3613,-0.3613,-0.3585,-0.3388,-0.3246,-0.3077,-0.2599,-0.2657,-0.2826,-0.2519,-0.2465,-0.28,-0.2912,-0.283,-0.2719,-0.2607,-0.2467,-0.241,-0.2521,-0.2657,-0.3249,-0.3996,-0.4279,-0.4443,-0.4467,-0.4423,-0.4233,-0.4375,-0.5144,-0.5603,-0.5765,-0.6158,-0.6506,-0.6579,-0.6984,0.6011,0.5883,0.5162,0.4854,0.4875,0.4739,0.4695,0.4671,0.4668,0.4657,0.4435,0.3755,0.299,0.2365,0.143,0.0707,0.0169,0.0034,-0.0135,-0.0232,-0.0483,-0.0723,-0.0833,-0.0906,-0.0881,-0.0872,-0.088,-0.0873,-0.0897,-0.0897,-0.1233,-0.1631,-0.1769,-0.2054,-0.2497,-0.2829,-0.2954,-0.2898,-0.3124,-0.319,-0.3192,-0.3192,-0.3192,-0.3228,-0.3228,-0.3293,-0.3458,-0.3951,-0.4713,-0.5543,-0.5543,-0.5708,-0.5877,-0.5348,-0.502,-0.4855,-0.4195,-0.3629,-0.3529,-0.3395,-0.3228,-0.3228,-0.3228,-0.3192,-0.3196,-0.3206,-0.3242,-0.3278,-0.356,-0.3809,-0.3976,-0.4133,-0.4267,-0.4281,-0.4191,-0.404,-0.3916,-0.3746,-0.3627,-0.3585,-0.3557,-0.3502,-0.336,-0.3019,-0.2597,-0.246,-0.204,-0.1958,-0.2125,-0.2071,-0.2268,-0.2775,-0.2775,-0.2691,-0.2549,-0.241,-0.2214,-0.2102,-0.2268,-0.2484,-0.2945,-0.3531,-0.3911,-0.414,-0.4257,-0.4197,-0.3982,-0.4463,-0.523,-0.5687,-0.5742,-0.6573,-0.7333,-0.7145,-0.7334,0.6619,0.607,0.5501,0.5274,0.5198,0.4845,0.4632,0.4545,0.4545,0.4501,0.4251,0.3599,0.3183,0.2909,0.1785,0.1008,0.084,0.0673,0.0605,0.0701,0.0412,0.0,-0.0346,-0.0652,-0.0855,-0.088,-0.0874,-0.0897,-0.0897,-0.0869,-0.1177,-0.1679,-0.1681,-0.19,-0.2095,-0.2555,-0.2774,-0.255,-0.2871,-0.3155,-0.3125,-0.3159,-0.3159,-0.3159,-0.3159,-0.3192,-0.3228,-0.3391,-0.3556,-0.3889,-0.4483,-0.4878,-0.4915,-0.4486,-0.4156,-0.4059,-0.3794,-0.3498,-0.3464,-0.3328,-0.3192,-0.3192,-0.3192,-0.3192,-0.3192,-0.3192,-0.3192,-0.3259,-0.3558,-0.3861,-0.4131,-0.4233,-0.4303,-0.4276,-0.4183,-0.4065,-0.4011,-0.3887,-0.3717,-0.3559,-0.3193,-0.2907,-0.288,-0.2265,-0.1928,-0.1761,-0.151,-0.1259,-0.1371,-0.1567,-0.2071,-0.2607,-0.2635,-0.2521,-0.2382,-0.2184,-0.1878,-0.1793,-0.1961,-0.2347,-0.2781,-0.3321,-0.3806,-0.4013,-0.4103,-0.3992,-0.3887,-0.4162,-0.4861,-0.5263,-0.5786,-0.6553,-0.7144,-0.7272,-0.7416,0.698,0.6611,0.5969,0.573,0.5614,0.5132,0.4858,0.4733,0.4492,0.4357,0.4244,0.3861,0.3556,0.3151,0.2414,0.1946,0.1578,0.141,0.1411,0.1427,0.1079,0.0684,0.0464,-0.0059,-0.0451,-0.0742,-0.0649,-0.0674,-0.0757,-0.0561,-0.0617,-0.1288,-0.1203,-0.1154,-0.1416,-0.1892,-0.1856,-0.1834,-0.2335,-0.2753,-0.2753,-0.2889,-0.2956,-0.2956,-0.2956,-0.3025,-0.3192,-0.3226,-0.3023,-0.2954,-0.3284,-0.3818,-0.4087,-0.3859,-0.3661,-0.3629,-0.3462,-0.3362,-0.3295,-0.3261,-0.3192,-0.3192,-0.3192,-0.3192,-0.3192,-0.3192,-0.3192,-0.3293,-0.356,-0.3928,-0.4267,-0.4303,-0.43,-0.4265,-0.4105,-0.4011,-0.4004,-0.3865,-0.3767,-0.3576,-0.3133,-0.2802,-0.2402,-0.1649,-0.1175,-0.1008,-0.0476,-0.028,-0.1119,-0.137,-0.1846,-0.2268,-0.241,-0.2382,-0.2212,-0.1933,-0.1542,-0.1513,-0.1624,-0.212,-0.2656,-0.3218,-0.3807,-0.3955,-0.4075,-0.4021,-0.399,-0.4271,-0.4666,-0.5403,-0.6022,-0.6514,-0.6955,-0.7343,-0.7421,0.7245,0.7162,0.649,0.6188,0.6063,0.5517,0.5169,0.5027,0.4628,0.4409,0.4303,0.4303,0.3894,0.3453,0.3184,0.2783,0.238,0.2114,0.2115,0.2235,0.1519,0.1182,0.1012,0.0528,0.0,-0.0614,-0.0313,-0.0337,-0.0336,-0.0084,-0.014,-0.0589,-0.0449,-0.0477,-0.0739,-0.0946,-0.1011,-0.0963,-0.1588,-0.2038,-0.2079,-0.2318,-0.2452,-0.2753,-0.2519,-0.2653,-0.2822,-0.2788,-0.2554,-0.208,-0.2013,-0.2383,-0.2855,-0.3194,-0.3261,-0.3261,-0.306,-0.296,-0.2958,-0.3025,-0.3092,-0.3125,-0.3192,-0.3192,-0.3192,-0.3192,-0.3092,-0.3123,-0.3291,-0.3725,-0.4167,-0.4265,-0.4265,-0.4227,-0.4029,-0.3863,-0.3732,-0.3679,-0.3547,-0.3376,-0.2604,-0.1987,-0.1621,-0.1035,-0.0616,-0.0196,0.0336,0.042,-0.042,-0.1006,-0.1371,-0.1762,-0.1875,-0.1961,-0.1821,-0.1624,-0.1262,-0.1234,-0.1316,-0.1835,-0.2432,-0.2864,-0.3373,-0.3904,-0.4045,-0.4001,-0.4065,-0.431,-0.4824,-0.5634,-0.6092,-0.6428,-0.6908,-0.7448,-0.7357,0.7461,0.7395,0.6829,0.6589,0.6519,0.5995,0.5521,0.512,0.502,0.4694,0.4334,0.4303,0.4233,0.3961,0.342,0.3115,0.2941,0.2778,0.2746,0.2786,0.2125,0.1652,0.127,0.0851,0.0401,0.0261,0.0314,0.028,0.0168,0.0308,0.028,-0.0056,-0.0112,-0.014,-0.0198,-0.0553,-0.0511,-0.0184,-0.0732,-0.1176,-0.1366,-0.151,-0.1848,-0.2316,-0.2014,-0.2014,-0.2115,-0.178,-0.1378,-0.1277,-0.1109,-0.1143,-0.1344,-0.168,-0.2017,-0.2285,-0.2321,-0.2252,-0.2285,-0.2554,-0.272,-0.2855,-0.2889,-0.3058,-0.3092,-0.3092,-0.2755,-0.2584,-0.2684,-0.3155,-0.3992,-0.3939,-0.4102,-0.4054,-0.3885,-0.36,-0.3149,-0.2835,-0.2694,-0.2501,-0.1742,-0.1091,-0.0839,-0.0503,-0.0028,0.028,0.0561,0.0561,-0.0084,-0.0392,-0.056,-0.0951,-0.1314,-0.1372,-0.1374,-0.1205,-0.0982,-0.101,-0.1146,-0.1548,-0.2053,-0.242,-0.2899,-0.3571,-0.3942,-0.3974,-0.4125,-0.4343,-0.4776,-0.5405,-0.585,-0.6245,-0.6581,-0.6897,-0.6987,0.7493,0.7489,0.7232,0.7129,0.7031,0.6544,0.6181,0.5848,0.5352,0.4954,0.4694,0.4434,0.4303,0.42,0.3995,0.3732,0.3629,0.3609,0.337,0.3091,0.2631,0.2141,0.167,0.1256,0.1181,0.1146,0.1101,0.0813,0.0533,0.0954,0.0785,0.0505,0.0477,0.0589,0.0537,0.0347,0.0325,0.0515,0.0124,-0.0287,-0.046,-0.0566,-0.1007,-0.1176,-0.1209,-0.1176,-0.1344,-0.1209,-0.0706,-0.037,-0.0168,-0.0034,0.0034,-0.0101,-0.0538,-0.1141,-0.1309,-0.1343,-0.1342,-0.1509,-0.1543,-0.1713,-0.1914,-0.2016,-0.2083,-0.2049,-0.2014,-0.1878,-0.1811,-0.2181,-0.2681,-0.3109,-0.3361,-0.3361,-0.329,-0.3055,-0.2616,-0.1942,-0.1635,-0.1461,-0.098,-0.056,-0.0364,0.0028,0.056,0.0813,0.0869,0.0617,0.0224,0.014,0.0084,-0.0364,-0.0783,-0.098,-0.1066,-0.101,-0.0869,-0.0897,-0.098,-0.1384,-0.1707,-0.2069,-0.2724,-0.3436,-0.3699,-0.3808,-0.4107,-0.4312,-0.476,-0.5153,-0.5571,-0.5926,-0.6117,-0.6287,-0.6388,0.7619,0.7493,0.7493,0.7493,0.7423,0.7031,0.6806,0.6539,0.5815,0.5385,0.519,0.4861,0.4667,0.4625,0.459,0.4499,0.4408,0.4499,0.4006,0.3284,0.3113,0.2726,0.2084,0.1891,0.1753,0.1639,0.1659,0.1403,0.1038,0.1375,0.1375,0.115,0.1262,0.1262,0.1073,0.1004,0.1225,0.1158,0.0933,0.0651,0.0514,0.0265,0.0,-0.0168,-0.0101,-0.0168,-0.0504,-0.0235,0.0134,0.0538,0.0773,0.0907,0.121,0.1277,0.0906,0.0201,-0.0134,-0.0302,-0.0335,-0.0536,-0.0738,-0.084,-0.0873,-0.0974,-0.1041,-0.1176,-0.1041,-0.1174,-0.114,-0.1307,-0.1742,-0.2098,-0.2413,-0.2442,-0.2365,-0.2204,-0.1776,-0.1206,-0.0548,-0.0341,-0.0169,-0.0028,0.0168,0.0308,0.0785,0.0898,0.0982,0.0982,0.0673,0.0701,0.056,0.0112,-0.028,-0.0588,-0.0757,-0.0926,-0.0869,-0.0897,-0.0953,-0.1199,-0.1477,-0.1725,-0.2393,-0.2938,-0.3342,-0.35,-0.3875,-0.4226,-0.4514,-0.4849,-0.5257,-0.5574,-0.5729,-0.5752,-0.5779,0.8037,0.7521,0.7521,0.7493,0.7521,0.7423,0.7134,0.6708,0.6507,0.6214,0.5789,0.569,0.5624,0.5562,0.5442,0.5378,0.5336,0.5119,0.4522,0.3638,0.3457,0.2913,0.2021,0.1854,0.1854,0.1809,0.1805,0.1769,0.1633,0.1774,0.1769,0.16,0.1487,0.1515,0.1376,0.133,0.1433,0.1584,0.157,0.1405,0.1154,0.0761,0.0402,0.0302,0.0605,0.0773,0.0571,0.0907,0.1444,0.1444,0.1648,0.1748,0.1849,0.1985,0.2052,0.1648,0.1075,0.037,0.0369,0.0168,-0.0101,-0.0202,-0.0571,-0.0941,-0.0739,-0.0403,-0.037,-0.1076,-0.0705,-0.0604,-0.0968,-0.1378,-0.1569,-0.158,-0.1499,-0.1155,-0.0715,-0.0321,0.0315,0.0456,0.0508,0.0591,0.0729,0.0813,0.0926,0.101,0.1066,0.1094,0.1122,0.115,0.1038,0.0588,0.0252,-0.0028,-0.0224,-0.042,-0.0561,-0.0673,-0.0757,-0.0896,-0.1119,-0.1343,-0.1623,-0.2164,-0.2592,-0.3153,-0.3577,-0.3908,-0.4165,-0.4422,-0.468,-0.5011,-0.5304,-0.525,-0.5085,0.8873,0.8317,0.7943,0.7893,0.8004,0.7684,0.7358,0.7129,0.6806,0.6576,0.6317,0.5987,0.5892,0.592,0.5681,0.5607,0.562,0.5553,0.4894,0.4077,0.3728,0.3176,0.2302,0.1945,0.1875,0.1955,0.1931,0.2195,0.2182,0.2011,0.1769,0.1714,0.1629,0.1515,0.1521,0.1489,0.1528,0.1646,0.1751,0.1821,0.1734,0.1554,0.1344,0.1142,0.1814,0.1781,0.1713,0.2415,0.2716,0.2616,0.2616,0.2618,0.2651,0.2684,0.2619,0.2188,0.2182,0.1879,0.1512,0.121,0.0907,0.0773,0.0504,0.0437,0.0302,0.037,0.0538,0.0202,0.0336,0.0302,0.0,-0.0332,-0.0558,-0.0613,-0.0594,-0.046,0.003,0.0693,0.1106,0.1135,0.1191,0.1267,0.1288,0.1205,0.1177,0.1122,0.1206,0.129,0.1403,0.1515,0.1346,0.1038,0.0757,0.0505,0.0364,0.0196,0.0028,-0.0056,-0.0084,-0.028,-0.0644,-0.0924,-0.1147,-0.1315,-0.1583,-0.2249,-0.3044,-0.3489,-0.3707,-0.3879,-0.4055,-0.4211,-0.4391,-0.4277,-0.4126,0.9708,0.9292,0.8602,0.8392,0.8481,0.7954,0.771,0.7574,0.7335,0.7064,0.6839,0.6511,0.635,0.6277,0.6173,0.6144,0.6108,0.5947,0.5312,0.4726,0.4293,0.3811,0.3191,0.2704,0.2573,0.2382,0.2635,0.2802,0.2861,0.2725,0.2389,0.1961,0.1797,0.1651,0.1538,0.1641,0.1803,0.2102,0.2042,0.2235,0.2547,0.2515,0.2479,0.2653,0.2921,0.3088,0.2817,0.3416,0.3782,0.3716,0.3613,0.3616,0.3547,0.3516,0.3351,0.3086,0.3151,0.3151,0.2686,0.2285,0.2017,0.1715,0.1479,0.1076,0.1042,0.1176,0.1344,0.1243,0.1276,0.1344,0.1208,0.0671,0.033,0.0292,0.0381,0.0373,0.0516,0.1319,0.1861,0.1948,0.1968,0.1936,0.1874,0.1624,0.1457,0.129,0.1318,0.1459,0.16,0.1769,0.1712,0.1458,0.1261,0.1092,0.1064,0.0896,0.0728,0.056,0.0532,0.0364,0.0,-0.0308,-0.056,-0.0673,-0.0757,-0.1288,-0.2097,-0.2657,-0.3188,-0.3269,-0.3297,-0.3272,-0.3302,-0.3288,-0.3316,1.03,1.0339,0.9491,0.8939,0.8604,0.8465,0.826,0.8022,0.8233,0.7994,0.7582,0.7423,0.7423,0.7307,0.714,0.7002,0.7033,0.6812,0.6181,0.5721,0.5472,0.4894,0.4273,0.3956,0.3895,0.3722,0.3713,0.3762,0.3838,0.3925,0.3458,0.2939,0.2552,0.2081,0.2003,0.2235,0.2509,0.2681,0.2579,0.2939,0.3372,0.3497,0.3416,0.392,0.412,0.4217,0.4276,0.4544,0.461,0.4646,0.4613,0.4577,0.4442,0.4444,0.4245,0.3984,0.4118,0.4084,0.372,0.2921,0.2018,0.1648,0.1512,0.1478,0.1511,0.1812,0.198,0.2047,0.2047,0.2047,0.1846,0.1507,0.1221,0.1266,0.1437,0.1569,0.1745,0.2166,0.2648,0.2731,0.2754,0.2697,0.2539,0.2319,0.1958,0.1764,0.1709,0.185,0.1796,0.1908,0.202,0.1906,0.1736,0.1679,0.182,0.1679,0.1482,0.1258,0.1119,0.0924,0.0672,0.0364,0.0196,-0.0112,-0.0252,-0.0672,-0.1064,-0.1595,-0.2069,-0.2402,-0.2567,-0.2591,-0.2728,-0.2859,-0.2877,1.1018,1.0701,1.0624,1.0123,0.9343,0.9077,0.8838,0.8651,0.8762,0.8805,0.8699,0.8716,0.849,0.8163,0.7896,0.764,0.7359,0.713,0.6741,0.6286,0.5941,0.5503,0.5016,0.4784,0.4485,0.4813,0.4903,0.5377,0.5949,0.5335,0.5088,0.4599,0.3892,0.3412,0.3278,0.3158,0.3416,0.3564,0.3548,0.3779,0.3959,0.4081,0.4048,0.4378,0.4981,0.4882,0.4845,0.5609,0.5642,0.5609,0.5576,0.5536,0.5437,0.5437,0.5107,0.4716,0.4882,0.4851,0.442,0.3718,0.3286,0.2921,0.2649,0.2347,0.2248,0.2649,0.2748,0.2781,0.2781,0.2781,0.2683,0.2547,0.2427,0.2416,0.2503,0.2654,0.2899,0.3228,0.3401,0.3469,0.3457,0.3436,0.3234,0.304,0.2623,0.2293,0.2238,0.2212,0.2158,0.2186,0.2324,0.238,0.2211,0.2238,0.238,0.2322,0.2235,0.2012,0.1762,0.1566,0.1371,0.1343,0.1119,0.0728,0.0308,-0.0028,-0.0308,-0.0588,-0.1064,-0.1733,-0.1975,-0.1992,-0.2158,-0.2327,-0.2408,1.155,1.1226,1.1627,1.1061,0.9897,0.9594,0.9347,0.9135,0.9209,0.9309,0.9513,0.9418,0.9113,0.8719,0.8645,0.8476,0.8217,0.8006,0.7754,0.7514,0.7288,0.6777,0.6409,0.626,0.644,0.6442,0.6484,0.6989,0.7475,0.6746,0.6773,0.6647,0.6048,0.533,0.405,0.4179,0.4299,0.449,0.4613,0.4961,0.5233,0.5463,0.5723,0.5982,0.6547,0.6678,0.6678,0.7209,0.7405,0.7237,0.7074,0.6883,0.6724,0.6465,0.6067,0.5708,0.551,0.5547,0.505,0.4384,0.4151,0.3685,0.3384,0.3251,0.3318,0.3418,0.3516,0.3516,0.3518,0.3551,0.3518,0.3249,0.302,0.2866,0.3288,0.3522,0.3709,0.3998,0.4112,0.4204,0.4219,0.4233,0.4177,0.3981,0.3536,0.3151,0.2989,0.2852,0.2573,0.2629,0.2796,0.2768,0.2687,0.28,0.2942,0.2884,0.2852,0.274,0.2488,0.2291,0.2151,0.2069,0.1818,0.1343,0.0952,0.0672,0.056,0.0503,-0.0308,-0.1287,-0.1393,-0.1415,-0.1332,-0.1501,-0.1799,1.1907,1.2004,1.241,1.1601,1.0192,1.0023,0.9804,0.9603,0.9815,0.9872,0.9842,0.9465,0.9279,0.9235,0.9437,0.9342,0.9296,0.9227,0.9108,0.8969,0.876,0.8986,0.8873,0.8583,0.8222,0.8604,0.852,0.8448,0.8769,0.8496,0.8659,0.876,0.8254,0.7117,0.4594,0.4347,0.4734,0.5328,0.5632,0.6429,0.7098,0.7423,0.7742,0.8103,0.827,0.827,0.8468,0.8533,0.8699,0.8737,0.8769,0.8511,0.8059,0.7999,0.7577,0.6863,0.6671,0.6544,0.6251,0.4912,0.4544,0.4447,0.4312,0.392,0.3787,0.3954,0.432,0.4317,0.4384,0.435,0.4084,0.3844,0.3729,0.3701,0.4186,0.457,0.48,0.509,0.5306,0.5358,0.5198,0.5124,0.5097,0.4928,0.4481,0.4119,0.3849,0.3544,0.3183,0.3239,0.3433,0.3297,0.3244,0.3272,0.3385,0.3474,0.3444,0.336,0.3188,0.2907,0.2655,0.2488,0.2209,0.1874,0.1677,0.1454,0.1567,0.1679,0.0699,-0.0196,-0.0756,-0.0866,-0.0699,-0.0725,-0.1084,1.3331,1.3064,1.3203,1.2522,1.1378,1.1137,1.1034,1.1056,1.1289,1.1343,1.128,1.1041,1.0877,1.079,1.0361,1.0243,1.0161,0.9576,0.9486,0.9582,0.9703,0.9448,0.9474,0.9679,0.9598,0.9699,0.9762,1.0046,1.0307,1.011,1.0078,1.0148,1.0122,0.9035,0.7663,0.7154,0.7428,0.759,0.7807,0.8135,0.8538,0.8661,0.8886,0.9308,0.9308,0.9436,0.9627,0.9691,0.9793,0.9799,0.9799,0.9544,0.916,0.9069,0.8871,0.8253,0.7994,0.7419,0.7326,0.6822,0.6748,0.6158,0.5474,0.5117,0.5153,0.5084,0.515,0.5282,0.551,0.5444,0.502,0.5514,0.5505,0.5176,0.5462,0.5869,0.6181,0.6544,0.6768,0.6687,0.6563,0.651,0.6443,0.61,0.5628,0.5433,0.5242,0.445,0.3953,0.4101,0.427,0.3993,0.3855,0.3796,0.3827,0.3885,0.3833,0.3719,0.3583,0.3416,0.3163,0.3074,0.285,0.2681,0.2486,0.2291,0.2237,0.2097,0.1649,0.1007,0.0364,-0.0112,-0.0084,-0.0196,-0.0503,1.4444,1.4154,1.412,1.3734,1.2983,1.2137,1.1766,1.1809,1.184,1.1836,1.1847,1.1958,1.2007,1.1866,1.1722,1.1524,1.1494,1.1166,1.0923,1.0892,1.0923,1.1104,1.101,1.0759,1.1308,1.1267,1.1329,1.1547,1.1904,1.1478,1.1502,1.1704,1.172,1.1085,1.0122,0.9622,0.8843,0.8849,0.8918,0.9334,0.9564,0.9723,1.0015,1.0237,1.0388,1.0533,1.0609,1.0672,1.0735,1.064,1.064,1.0458,1.018,1.0053,0.9856,0.9308,0.8699,0.8285,0.842,0.8134,0.7994,0.7924,0.7153,0.6765,0.6666,0.6597,0.6527,0.6593,0.6761,0.6629,0.6437,0.6994,0.6924,0.6556,0.6759,0.715,0.73,0.7644,0.775,0.772,0.7593,0.7616,0.7572,0.7257,0.6826,0.674,0.6632,0.5701,0.4831,0.4897,0.4936,0.4632,0.4408,0.4349,0.4294,0.4298,0.4242,0.4079,0.4024,0.3968,0.4079,0.4015,0.3738,0.3486,0.3322,0.31,0.2736,0.2458,0.2317,0.1955,0.1342,0.0924,0.0672,0.0392,0.0112,1.5176,1.5153,1.5153,1.5142,1.4789,1.3146,1.2157,1.176,1.1544,1.1495,1.1446,1.2358,1.2728,1.2757,1.3189,1.3446,1.3364,1.3312,1.31,1.31,1.2765,1.3009,1.3092,1.3061,1.2901,1.3191,1.3221,1.2818,1.3411,1.3498,1.3429,1.3438,1.3562,1.3253,1.2562,1.1751,1.0642,1.0355,1.0413,1.0759,1.0885,1.1243,1.1469,1.1686,1.1919,1.2128,1.232,1.2596,1.2626,1.2696,1.2848,1.2027,1.15,1.1243,1.0508,0.9837,0.9201,0.9558,0.9627,0.934,0.9404,0.9589,0.9009,0.8538,0.7999,0.7707,0.754,0.76,0.7762,0.7832,0.7897,0.7962,0.7994,0.7994,0.8091,0.8238,0.8312,0.8449,0.8524,0.8451,0.8244,0.8159,0.8055,0.7818,0.7875,0.7786,0.762,0.7144,0.6298,0.5578,0.5532,0.5152,0.4987,0.4873,0.4818,0.4791,0.4601,0.4463,0.468,0.4708,0.4842,0.4842,0.4567,0.4291,0.4156,0.3935,0.3627,0.3458,0.332,0.2901,0.2758,0.1928,0.1648,0.112,0.084,1.6532,1.6519,1.6532,1.6327,1.5944,1.527,1.4347,1.3338,1.3524,1.345,1.2954,1.3862,1.4185,1.4313,1.4611,1.4771,1.466,1.4344,1.3816,1.3765,1.3936,1.3936,1.3965,1.4016,1.3906,1.3986,1.3986,1.4097,1.4385,1.4885,1.5429,1.5438,1.5611,1.5592,1.5187,1.4712,1.3412,1.2448,1.2442,1.2366,1.2465,1.2779,1.2948,1.3092,1.3317,1.3468,1.3537,1.3717,1.3657,1.3494,1.3433,1.2948,1.2895,1.2787,1.2373,1.1634,1.1518,1.1711,1.1301,1.1277,1.1315,1.1322,1.1152,0.9996,0.9148,0.8517,0.8479,0.8726,0.8945,0.9041,0.9041,0.9079,0.9201,0.936,0.9482,0.9649,0.9681,0.9741,0.983,0.9899,0.9673,0.9459,0.924,0.8771,0.8818,0.8745,0.858,0.8263,0.7652,0.6875,0.6317,0.5937,0.5691,0.5632,0.5363,0.5254,0.5038,0.4901,0.5254,0.5469,0.5469,0.5414,0.5254,0.5062,0.4846,0.4736,0.4598,0.4457,0.4391,0.4835,0.469,0.3561,0.2595,0.2151,0.1651,1.7545,1.7552,1.7693,1.7545,1.7295,1.7077,1.6448,1.575,1.5372,1.4937,1.4774,1.5505,1.5804,1.5786,1.6091,1.6239,1.6081,1.5813,1.5458,1.5352,1.4993,1.5553,1.5553,1.5543,1.5877,1.5734,1.5677,1.5877,1.5916,1.6324,1.6897,1.7125,1.7572,1.7423,1.7125,1.6815,1.6423,1.537,1.4701,1.4346,1.4257,1.4287,1.4278,1.4416,1.4652,1.4778,1.4758,1.4925,1.4944,1.4748,1.4738,1.465,1.4453,1.4177,1.4109,1.3438,1.3184,1.3033,1.27,1.2694,1.2679,1.2687,1.2771,1.1835,1.0996,1.0375,1.028,1.0305,1.0337,1.0368,1.028,1.0249,1.0456,1.0701,1.0892,1.1119,1.1179,1.1226,1.1357,1.1547,1.1439,1.1248,1.0841,1.0215,0.994,1.0185,1.0067,0.9636,0.8849,0.788,0.7358,0.6961,0.6664,0.647,0.6172,0.6068,0.6145,0.6172,0.6344,0.6453,0.6258,0.6041,0.5905,0.5691,0.5473,0.5418,0.5391,0.5523,0.5601,0.5959,0.6014,0.5074,0.4027,0.334,0.2815,1.8387,1.8426,1.8669,1.8793,1.8741,1.844,1.8382,1.8473,1.7151,1.6379,1.651,1.7051,1.7211,1.716,1.7524,1.7705,1.7499,1.7241,1.7093,1.7308,1.7175,1.7412,1.7702,1.8174,1.775,1.8178,1.8205,1.7587,1.7823,1.8147,1.8484,1.8602,1.867,1.8737,1.8871,1.8752,1.8504,1.8313,1.7213,1.6468,1.594,1.578,1.5808,1.5997,1.6413,1.6826,1.6864,1.7036,1.7246,1.6963,1.6785,1.6623,1.6123,1.5562,1.5524,1.538,1.5023,1.4819,1.4546,1.4447,1.3954,1.3695,1.3322,1.3588,1.3374,1.1981,1.1564,1.1502,1.1502,1.1735,1.1758,1.1881,1.212,1.2501,1.2841,1.3065,1.3186,1.3162,1.3079,1.3164,1.2936,1.2694,1.2122,1.1473,1.1067,1.1517,1.1341,1.0824,1.0275,0.9178,0.8508,0.8045,0.7465,0.7219,0.7278,0.723,0.7492,0.7605,0.7584,0.7557,0.7465,0.7063,0.6583,0.6372,0.6154,0.6209,0.6236,0.6475,0.6632,0.6583,0.6529,0.6226,0.5538,0.4765,0.422,1.9891,1.9858,1.9737,1.9693,1.9678,1.9591,1.9588,1.9669,1.9826,1.8951,1.7992,1.8309,1.8608,1.8685,1.8908,1.9093,1.9188,1.8692,1.8476,1.8512,1.8658,1.8933,1.8958,1.93,1.9222,1.9064,1.9038,1.9196,1.9311,1.9698,2.013,2.0294,2.0281,2.0368,2.0664,2.054,2.0478,2.0635,2.0261,1.9063,1.8222,1.8218,1.8337,1.8363,1.8651,1.8677,1.8704,1.8742,1.878,1.861,1.8637,1.8425,1.8013,1.7516,1.7418,1.7472,1.7054,1.6849,1.6755,1.6542,1.6177,1.6437,1.6521,1.657,1.5837,1.3775,1.271,1.274,1.2832,1.3171,1.3434,1.3644,1.3874,1.4368,1.477,1.5003,1.5216,1.5059,1.4907,1.4669,1.4434,1.4013,1.3487,1.3023,1.248,1.2179,1.1902,1.1618,1.1593,1.0874,0.9887,0.9252,0.8204,0.7913,0.8157,0.8442,0.8751,0.8652,0.8521,0.8554,0.8613,0.8031,0.7444,0.7106,0.6869,0.7047,0.7316,0.7717,0.7771,0.753,0.7477,0.7331,0.6983,0.632,0.581,2.0863,2.0958,2.0943,2.0927,2.0879,2.0682,2.0664,2.0857,2.1271,2.1112,2.0499,2.0528,2.0484,2.0448,2.0566,2.0596,2.0755,2.0191,2.0183,2.0165,2.024,2.0466,2.0565,2.0711,2.097,2.0886,2.0688,2.0762,2.0862,2.1108,2.1506,2.1758,2.1828,2.1955,2.2257,2.2104,2.2122,2.2375,2.2647,2.1997,2.0695,2.0586,2.0365,2.0341,2.0415,2.0451,2.0586,2.0586,2.0524,2.0414,2.0328,2.0091,1.9813,1.9545,1.9442,1.9312,1.9092,1.8871,1.8925,1.8728,1.841,1.8601,1.8613,1.8245,1.8178,1.6397,1.583,1.5784,1.5513,1.5741,1.5798,1.5969,1.6167,1.6504,1.6654,1.6776,1.6926,1.6928,1.683,1.6711,1.6575,1.6488,1.6058,1.5801,1.5316,1.5049,1.4424,1.3643,1.3385,1.2673,1.1656,1.0805,0.9992,0.9537,0.9854,0.9982,1.0,0.9828,0.9533,0.9507,0.9488,0.8843,0.8302,0.8111,0.8031,0.8096,0.8415,0.8751,0.8732,0.8468,0.8521,0.8573,0.8196,0.7812,0.746,2.1676,2.1888,2.2049,2.2135,2.2093,2.1663,2.1592,2.1879,2.2229,2.2802,2.3319,2.3106,2.2801,2.2518,2.2351,2.2272,2.2096,2.182,2.1891,2.2212,2.2341,2.2312,2.2499,2.2863,2.2937,2.2833,2.2626,2.2685,2.2826,2.2929,2.2981,2.3157,2.3201,2.3252,2.3303,2.331,2.3454,2.3731,2.3914,2.3918,2.3325,2.2696,2.2174,2.2011,2.2095,2.2257,2.2366,2.2398,2.2315,2.2108,2.1829,2.1594,2.1404,2.126,2.1215,2.1032,2.0713,2.0671,2.068,2.0152,1.9988,1.9925,1.985,1.985,1.986,1.961,1.9026,1.8742,1.8503,1.8016,1.8085,1.8162,1.8322,1.8557,1.8596,1.8622,1.874,1.8778,1.8701,1.8627,1.8586,1.8598,1.8353,1.8146,1.7826,1.7625,1.7246,1.6592,1.5791,1.4696,1.3662,1.3041,1.2429,1.2086,1.1491,1.1224,1.1065,1.0948,1.067,1.0585,1.0381,0.9946,0.9585,0.9392,0.934,0.9332,0.9392,0.9651,0.9529,0.9451,0.9432,0.9477,0.934,0.9046,0.904,2.2712,2.275,2.2539,2.2443,2.2413,2.2306,2.2293,2.259,2.3679,2.4317,2.4715,2.5527,2.5386,2.4168,2.35,2.3471,2.4009,2.3595,2.3874,2.4362,2.3943,2.3902,2.3999,2.4199,2.4567,2.4436,2.4143,2.4045,2.4264,2.442,2.4571,2.4646,2.4646,2.4799,2.5122,2.5048,2.4885,2.5144,2.5293,2.5347,2.4941,2.4307,2.3724,2.3573,2.3595,2.3616,2.3638,2.3659,2.3638,2.3457,2.3135,2.2996,2.2892,2.2767,2.2647,2.264,2.2304,2.2553,2.2429,2.203,2.1931,2.2446,2.24,2.2187,2.2243,2.2341,2.1982,2.1928,2.1403,2.0156,1.996,1.9999,2.0162,2.0524,2.0711,2.0735,2.0797,2.0627,2.0441,2.0354,2.0216,2.0041,1.9788,1.9396,1.8821,1.8642,1.8511,1.797,1.7833,1.6776,1.566,1.5197,1.4735,1.3146,1.1953,1.1994,1.1911,1.1855,1.1855,1.1812,1.1614,1.1216,1.0914,1.0721,1.0586,1.0553,1.0619,1.0704,1.0602,1.0526,1.0389,1.0338,1.0254,1.0202,1.0159]}]]